[[{"header":{"parameterUnit":"m.s-1","parameterCategory":1,"la1":30.6,"la2":28.766,"lo1":-90.7593,"lo2":-88.6598,"dy":0.0162,"dx":0.0183,"nx":116,"ny":114,"refTime":"2024-05-03T12:00:00:Z","depth":0,"parameterNumber":2,"parameterNumberName":"U-component_of_WINDS"},"data":[0.0,0.0,0.0,0.0,0.0,0.0,0.0,0.0,0.0,0.0,0.0,0.0,0.0,0.0,0.0,0.0,0.0,0.0,0.0,0.0,0.0,0.0,0.0,0.0,0.0,0.0,0.0,0.0,0.0,0.0,0.0,0.0,0.0,0.0,0.0,0.0,0.0,0.0,0.0,0.0,0.0,0.0,0.0,0.0,0.0,0.0,0.0,0.0,0.0,0.0,0.0,0.0,0.0,0.0,0.0,0.0,0.0,0.0,0.0,0.0,0.0,0.0,0.0,0.0,0.0,0.0,0.0,0.0,0.0,0.0,0.0,0.0,0.0,0.0,0.0,0.0,0.0,0.0,0.0,0.0,0.0,0.0,0.0,0.0,0.0,0.0,0.0,0.0,0.0,0.0,0.0,0.0,0.0,0.0,0.0,0.0,0.0,0.0,0.0,0.0,0.0,0.0,0.0,0.0,0.0,0.0,0.0,0.0,0.0,0.0,0.0,0.0,0.0,0.0,0.0,0.0,0.0,0.0,0.0,0.0,0.0,0.0,0.0,0.0,0.0,0.0,0.0,0.0,0.0,0.0,0.0,0.0,0.0,0.0,0.0,0.0,0.0,0.0,0.0,0.0,0.0,0.0,0.0,0.0,0.0,0.0,0.0,0.0,0.0,0.0,0.0,0.0,0.0,0.0,0.0,0.0,0.0,0.0,0.0,0.0,0.0,0.0,0.0,0.0,0.0,0.0,0.0,0.0,0.0,0.0,0.0,0.0,0.0,0.0,0.0,0.0,0.0,0.0,0.0,0.0,0.0,0.0,0.0,0.0,0.0,0.0,0.0,0.0,0.0,0.0,0.0,0.0,0.0,0.0,0.0,0.0,0.0,0.0,0.0,0.0,0.0,0.0,0.0,0.0,0.0,0.0,0.0,0.0,0.0,0.0,0.0,0.0,0.0,0.0,0.0,0.0,0.0,0.0,0.0,0.0,0.0,0.0,0.0,0.0,0.0,0.0,0.0,0.0,0.0,0.0,0.0,0.0,0.0,0.0,0.0,0.0,0.0,0.0,0.0,0.0,0.0,0.0,0.0,0.0,0.0,0.0,0.0,0.0,0.0,0.0,0.0,0.0,0.0,0.0,0.0,0.0,0.0,0.0,0.0,0.0,0.0,0.0,0.0,0.0,0.0,0.0,0.0,0.0,0.0,0.0,0.0,0.0,0.0,0.0,0.0,0.0,0.0,0.0,0.0,0.0,0.0,0.0,0.0,0.0,0.0,0.0,0.0,0.0,0.0,0.0,0.0,0.0,0.0,0.0,0.0,0.0,0.0,0.0,0.0,0.0,0.0,0.0,0.0,0.0,0.0,0.0,0.0,0.0,0.0,0.0,0.0,0.0,0.0,0.0,0.0,0.0,0.0,0.0,0.0,0.0,0.0,0.0,0.0,0.0,0.0,0.0,0.0,0.0,0.0,0.0,0.0,0.0,0.0,0.0,0.0,0.0,0.0,0.0,0.0,0.0,0.0,0.0,0.0,0.0,0.0,0.0,0.0,0.0,0.0,0.0,0.0,0.0,0.0,0.0,0.0,0.0,0.0,0.0,0.0,0.0,0.0,0.0,0.0,0.0,0.0,0.0,0.0,0.0,0.0,0.0,0.0,0.0,0.0,0.0,0.0,0.0,0.0,0.0,0.0,0.0,0.0,0.0,0.0,0.0,0.0,0.0,0.0,0.0,0.0,0.0,0.0,0.0,0.0,0.0,0.0,0.0,0.0,0.0,0.0,0.0,0.0,0.0,0.0,0.0,0.0,0.0,0.0,0.0,0.0,0.0,0.0,0.0,0.0,0.0,0.0,0.0,0.0,0.0,0.0,0.0,0.0,0.0,0.0,0.0,0.0,0.0,0.0,0.0,0.0,0.0,0.0,0.0,0.0,0.0,0.0,0.0,0.0,0.0,0.0,0.0,0.0,0.0,0.0,0.0,0.0,0.0,0.0,0.0,0.0,0.0,0.0,0.0,0.0,0.0,0.0,0.0,0.0,0.0,0.0,0.0,0.0,0.0,0.0,0.0,0.0,0.0,0.0,0.0,0.0,0.0,0.0,0.0,0.0,0.0,0.0,0.0,0.0,0.0,0.0,0.0,0.0,0.0,0.0,0.0,0.0,0.0,0.0,0.0,0.0,0.0,0.0,0.0,0.0,0.0,0.0,0.0,0.0,0.0,0.0,0.0,0.0,0.0,0.0,0.0,0.0,0.0,0.0,0.0,0.0,0.0,0.0,0.0,0.0,0.0,0.0,0.0,0.0,0.0,0.0,0.0,0.0,0.0,0.0,0.0,0.0,0.0,0.0,0.0,0.0,0.0,0.0,0.0,0.0,0.0,0.0,0.0,0.0,0.0,0.0,0.0,0.0,0.0,0.0,0.0,0.0,0.0,0.0,0.0,0.0,0.0,0.0,0.0,0.0,0.0,0.0,0.0,0.0,0.0,0.0,0.0,0.0,0.0,0.0,0.0,0.0,0.0,0.0,0.0,0.0,0.0,0.0,0.0,0.0,0.0,0.0,0.0,0.0,0.0,0.0,0.0,0.0,0.0,0.0,0.0,0.0,0.0,0.0,0.0,0.0,0.0,0.0,0.0,0.0,0.0,0.0,0.0,0.0,0.0,0.0,0.0,0.0,0.0,0.0,0.0,0.0,0.0,0.0,0.0,0.0,0.0,0.0,0.0,0.0,0.0,0.0,0.0,0.0,0.0,0.0,0.0,0.0,0.0,0.0,0.0,0.0,0.0,0.0,0.0,0.0,0.0,0.0,0.0,0.0,0.0,0.0,0.0,0.0,0.0,0.0,0.0,0.0,0.0,0.0,0.0,0.0,0.0,0.0,0.0,0.0,0.0,0.0,0.0,0.0,0.0,0.0,0.0,0.0,0.0,0.0,0.0,0.0,0.0,0.0,0.0,0.0,0.0,0.0,0.0,0.0,0.0,0.0,0.0,0.0,0.0,0.0,0.0,0.0,0.0,0.0,0.0,0.0,0.0,0.0,0.0,0.0,0.0,0.0,0.0,0.0,0.0,0.0,0.0,0.0,0.0,0.0,0.0,0.0,0.0,0.0,0.0,0.0,0.0,0.0,0.0,0.0,0.0,0.0,0.0,0.0,0.0,0.0,0.0,0.0,0.0,0.0,0.0,0.0,0.0,0.0,0.0,0.0,0.0,0.0,0.0,0.0,0.0,0.0,0.0,0.0,0.0,0.0,0.0,0.0,0.0,0.0,0.0,0.0,0.0,0.0,0.0,0.0,0.0,0.0,0.0,0.0,0.0,0.0,0.0,0.0,0.0,0.0,0.0,0.0,0.0,0.0,0.0,0.0,0.0,0.0,0.0,0.0,0.0,0.0,0.0,0.0,0.0,0.0,0.0,0.0,0.0,0.0,0.0,0.0,0.0,0.0,0.0,0.0,0.0,0.0,0.0,0.0,0.0,0.0,0.0,0.0,0.0,0.0,0.0,0.0,0.0,0.0,0.0,0.0,0.0,0.0,0.0,0.0,0.0,0.0,0.0,0.0,0.0,0.0,0.0,0.0,0.0,0.0,0.0,0.0,0.0,0.0,0.0,0.0,0.0,0.0,0.0,0.0,0.0,0.0,0.0,0.0,0.0,0.0,0.0,0.0,0.0,0.0,0.0,0.0,0.0,0.0,0.0,0.0,0.0,0.0,0.0,0.0,0.0,0.0,0.0,0.0,0.0,0.0,0.0,0.0,0.0,0.0,0.0,0.0,0.0,0.0,0.0,0.0,0.0,0.0,0.0,0.0,0.0,0.0,0.0,0.0,0.0,0.0,0.0,0.0,0.0,0.0,0.0,0.0,0.0,0.0,0.0,0.0,0.0,0.0,0.0,0.0,0.0,0.0,0.0,0.0,0.0,0.0,0.0,0.0,0.0,0.0,0.0,0.0,0.0,0.0,0.0,0.0,0.0,0.0,0.0,0.0,0.0,0.0,0.0,0.0,0.0,0.0,0.0,0.0,0.0,0.0,0.0,0.0,0.0,0.0,0.0,0.0,0.0,0.0,0.0,0.0,0.0,0.0,0.0,0.0,0.0,0.0,0.0,0.0,0.0,0.0,0.0,0.0,0.0,0.0,0.0,0.0,0.0,0.0,0.0,0.0,0.0,0.0,0.0,0.0,0.0,0.0,0.0,0.0,0.0,0.0,0.0,0.0,0.0,0.0,0.0,0.0,0.0,0.0,0.0,0.0,0.0,0.0,0.0,0.0,0.0,0.0,0.0,0.0,0.0,0.0,0.0,0.0,0.0,0.0,0.0,0.0,0.0,0.0,0.0,0.0,0.0,0.0,0.0,0.0,0.0,0.0,0.0,0.0,0.0,0.0,0.0,0.0,0.0,0.0,0.0,0.0,0.0,0.0,0.0,0.0,0.0,0.0,0.0,0.0,0.0,0.0,0.0,0.0,0.0,0.0,0.0,0.0,0.0,0.0,0.0,0.0,0.0,0.0,0.0,0.0,0.0,0.0,0.0,0.0,0.0,0.0,0.0,0.0,0.0,0.0,0.0,0.0,0.0,0.0,0.0,0.0,0.0,0.0,0.0,0.0,0.0,0.0,0.0,0.0,0.0,0.0,0.0,0.0,0.0,0.0,0.0,0.0,0.0,0.0,0.0,0.0,0.0,0.0,0.0,0.0,0.0,0.0,0.0,0.0,0.0,0.0,0.0,0.0,0.0,0.0,0.0,0.0,0.0,0.0,0.0,0.0,0.0,0.0,0.0,0.0,0.0,0.0,0.0,0.0,0.0,0.0,0.0,0.0,0.0,0.0,0.0,0.0,0.0,0.0,0.0,0.0,0.0,0.0,0.0,0.0,0.0,0.0,0.0,0.0,0.0,0.0,0.0,0.0,0.0,0.0,0.0,0.0,0.0,0.0,0.0,0.0,0.0,0.0,0.0,0.0,0.0,0.0,0.0,0.0,0.0,0.0,0.0,0.0,0.0,0.0,0.0,0.0,0.0,0.0,0.0,0.0,0.0,0.0,0.0,0.0,0.0,0.0,0.0,0.0,0.0,0.0,0.0,0.0,0.0,0.0,0.0,0.0,0.0,0.0,0.0,0.0,0.0,0.0,0.0,0.0,0.0,0.0,0.0,0.0,0.0,0.0,0.0,0.0,0.0,0.0,0.0,0.0,0.0,0.0,0.0,0.0,0.0,0.0,0.0,0.0,0.0,0.0,0.0,0.0,0.0,0.0,0.0,0.0,0.0,0.0,0.0,0.0,0.0,0.0,0.0,0.0,0.0,0.0,0.0,0.0,0.0,0.0,0.0,0.0,0.0,0.0,0.0,0.0,0.0,0.0,0.0,0.0,0.0,0.0,0.0,0.0,0.0,0.0,0.0,0.0,0.0,0.0,0.0,0.0,0.0,0.0,0.0,0.0,0.0,0.0,0.0,0.0,0.0,0.0,0.0,0.0,0.0,0.0,0.0,0.0,0.0,0.0,0.0,0.0,0.0,0.0,0.0,0.0,0.0,0.0,0.0,0.0,0.0,0.0,0.0,0.0,0.0,0.0,0.0,0.0,0.0,0.0,0.0,0.0,0.0,0.0,0.0,0.0,0.0,0.0,0.0,0.0,0.0,0.0,0.0,0.0,0.0,0.0,0.0,0.0,0.0,0.0,0.0,0.0,0.0,0.0,0.0,0.0,0.0,0.0,0.0,0.0,0.0,0.0,0.0,0.0,0.0,0.0,0.0,0.0,0.0,0.0,0.0,0.0,0.0,0.0,0.0,0.0,0.0,0.0,0.0,0.0,0.0,0.0,0.0,0.0,0.0,0.0,0.0,0.0,0.0,0.0,0.0,0.0,0.0,0.0,0.0,0.0,0.0,0.0,0.0,0.0,0.0,0.0,0.0,0.0,0.0,0.0,0.0,0.0,0.0,0.0,0.0,0.0,0.0,0.0,0.0,0.0,0.0,0.0,0.0,0.0,0.0,0.0,0.0,0.0,0.0,0.0,0.0,0.0,0.0,0.0,0.0,0.0,0.0,0.0,0.0,0.0,0.0,0.0,0.0,0.0,0.0,0.0,0.0,0.0,0.0,0.0,0.0,0.0,0.0,0.0,0.0,-1.2877,0.0,0.0,0.0,0.0,0.0,0.0,0.0,0.0,0.0,0.0,0.0,0.0,0.0,0.0,0.0,0.0,0.0,0.0,0.0,0.0,0.0,0.0,0.0,0.0,-0.3707,-0.4408,-0.5979,-0.584,-0.603,-0.6873,0.0,0.0,0.0,0.0,0.0,-0.4903,-0.5298,-0.5647,-0.5903,-0.5838,-0.6129,-0.6751,-0.6089,-0.5744,-0.5688,0.0,0.0,0.0,0.0,0.0,0.0,0.0,0.0,0.0,0.0,0.0,0.0,0.0,0.0,0.0,0.0,0.0,0.0,0.0,0.0,0.0,0.0,0.0,0.0,0.0,0.0,0.0,0.0,0.0,0.0,0.0,0.0,0.0,0.0,0.0,0.0,0.0,0.0,0.0,0.0,0.0,0.0,0.0,0.0,0.0,0.0,0.0,0.0,0.0,0.0,0.0,0.0,0.0,0.0,0.0,0.0,0.0,0.0,0.0,0.0,0.0,0.0,0.0,0.0,0.0,0.0,0.0,0.0,0.0,0.0,0.0,-1.276,0.0,0.0,0.0,0.0,0.0,0.0,0.0,0.0,0.0,0.0,0.0,0.0,0.0,0.0,0.0,0.0,0.0,0.0,0.0,0.0,0.0,-0.3232,-0.4414,-0.4544,-0.5195,-0.681,-0.6711,-0.6903,-0.7703,-0.7405,-0.6713,-0.5574,-0.6152,-0.616,-0.5441,-0.6121,-0.6369,-0.6107,-0.6925,-0.7565,-0.8025,-0.8174,-0.8061,-0.774,-0.7326,0.0,0.0,0.0,0.0,0.0,0.0,0.0,0.0,0.0,0.0,0.0,0.0,0.0,0.0,0.0,0.0,0.0,0.0,0.0,0.0,0.0,0.0,0.0,0.0,0.0,0.0,0.0,0.0,0.0,0.0,0.0,0.0,0.0,0.0,0.0,0.0,0.0,0.0,0.0,0.0,0.0,0.0,0.0,0.0,0.0,0.0,0.0,0.0,0.0,0.0,0.0,0.0,0.0,0.0,0.0,0.0,0.0,0.0,0.0,0.0,0.0,0.0,0.0,-1.6723,-1.7306,-1.8224,-1.7741,-1.7369,-1.6976,-1.356,-1.2432,-1.3022,-1.3792,0.0,0.0,0.0,0.0,0.0,0.0,0.0,0.0,0.0,0.0,0.0,0.0,0.0,0.0,0.0,0.0,0.0,0.0,0.0,-0.432,-0.434,-0.5048,-0.5852,-0.666,-0.7014,-0.7407,-0.7927,-0.7751,-0.7399,-0.6862,-0.6631,-0.6449,-0.6328,-0.6434,-0.6644,-0.6949,-0.7812,-0.8609,-0.9355,-0.9769,-1.0128,-1.0318,-0.851,-0.8152,-0.8839,0.0,0.0,0.0,0.0,0.0,0.0,0.0,0.0,0.0,0.0,0.0,0.0,0.0,0.0,0.0,0.0,0.0,0.0,0.0,0.0,0.0,0.0,0.0,0.0,0.0,0.0,0.0,0.0,0.0,0.0,0.0,0.0,0.0,0.0,0.0,0.0,0.0,0.0,0.0,0.0,0.0,-0.8699,-0.8838,0.0,0.0,0.0,0.0,0.0,0.0,0.0,0.0,0.0,0.0,0.0,0.0,0.0,-1.412,-1.5254,-1.595,-1.6291,-1.6342,-1.6365,-1.6552,-1.6863,-1.6777,-1.6847,-1.7027,-1.6863,0.0,-1.4029,-1.444,0.0,0.0,0.0,0.0,0.0,0.0,0.0,0.0,0.0,0.0,0.0,0.0,0.0,0.0,0.0,0.0,0.0,0.0,0.0,0.0,0.0,-0.5801,-0.6456,-0.7348,-0.8074,-0.8578,-0.882,-0.8587,-0.8125,-0.7471,-0.7261,-0.7068,-0.6841,-0.6838,-0.7159,-0.7821,-0.8667,-0.9503,-1.0332,-1.0547,-1.0996,-1.1567,-1.0443,-0.9749,-0.9386,-0.8859,0.0,0.0,0.0,0.0,0.0,0.0,0.0,0.0,0.0,0.0,0.0,0.0,0.0,0.0,0.0,0.0,0.0,0.0,0.0,0.0,0.0,0.0,0.0,0.0,0.0,0.0,0.0,0.0,0.0,0.0,0.0,0.0,0.0,0.0,0.0,0.0,0.0,0.0,0.0,-0.9878,-1.0213,-1.0597,-1.0332,-1.0482,0.0,0.0,0.0,0.0,0.0,0.0,0.0,0.0,0.0,-1.4514,-1.4713,-1.5055,-1.5534,-1.6338,-1.7031,-1.7639,-1.8146,-1.8741,-1.9406,-1.9406,-1.9621,-1.9964,-1.9765,-1.8764,-1.7224,-1.635,-1.5894,-1.5732,0.0,0.0,0.0,0.0,-1.5574,-1.6152,0.0,0.0,0.0,0.0,0.0,0.0,0.0,0.0,0.0,0.0,0.0,0.0,-0.6263,-0.6643,-0.722,-0.8197,-0.9044,-0.9504,-0.9455,-0.9255,-0.8742,-0.7899,-0.786,-0.7671,-0.7261,-0.7473,-0.8008,-0.8884,-0.9707,-1.0488,-1.125,-1.1357,-1.1768,-1.2359,-1.2074,-1.1279,-1.0176,-0.9839,-0.889,-0.7577,0.0,0.0,0.0,0.0,0.0,0.0,0.0,0.0,0.0,0.0,0.0,0.0,0.0,0.0,0.0,0.0,0.0,0.0,0.0,0.0,0.0,0.0,0.0,0.0,0.0,0.0,0.0,0.0,0.0,0.0,0.0,0.0,0.0,0.0,0.0,0.0,0.0,-1.0973,-1.142,-1.1948,-1.1772,-1.1995,0.0,0.0,0.0,0.0,0.0,0.0,-1.4705,-1.5536,-1.5846,-1.5553,-1.6186,-1.6668,-1.6907,-1.7792,-1.8733,-1.9725,-2.0193,-2.0893,-2.1779,-2.1779,-2.1957,-2.2262,-2.1718,-2.1063,-2.0217,-1.8199,-1.7214,-1.6864,-1.5857,-1.6025,-1.6732,-1.5895,-1.6041,-1.6712,0.0,0.0,0.0,0.0,0.0,0.0,0.0,0.0,0.0,0.0,0.0,-0.6504,-0.6746,-0.7519,-0.8285,-0.899,-0.9552,-0.9713,-0.9338,-0.9413,-0.9112,-0.8311,-0.8276,-0.8091,-0.7681,-0.849,-0.9326,-1.0205,-1.1066,-1.1721,-1.2145,-1.2588,-1.2827,-1.2866,-1.2846,-1.2559,-1.2012,-1.1165,-1.0302,-0.9417,-0.8772,0.0,0.0,0.0,0.0,0.0,0.0,0.0,0.0,0.0,0.0,0.0,0.0,0.0,0.0,0.0,0.0,0.0,0.0,0.0,0.0,0.0,0.0,0.0,0.0,0.0,0.0,0.0,0.0,0.0,0.0,0.0,0.0,0.0,0.0,0.0,0.0,0.0,0.0,-1.1938,-1.2252,0.0,0.0,0.0,0.0,-1.3602,-1.5122,-1.5796,-1.5285,-1.5551,-1.6099,-1.6968,-1.8189,-1.9528,-2.0988,-2.1558,-2.207,-2.2488,-2.183,-2.1776,-2.2268,-2.2268,-2.2282,-2.2296,-2.2262,-2.2212,-2.1981,-1.946,-1.823,-1.7909,-1.7656,-1.7968,-1.8464,-1.7528,-1.7364,-1.7538,0.0,0.0,0.0,-0.3278,-0.3763,-0.4237,-0.4548,-0.5416,-0.5944,-0.569,-0.6594,-0.7361,-0.7621,-0.8493,-0.9347,-1.0082,-1.0657,-1.0674,-0.9923,-1.0255,-0.9906,-0.8675,-0.8959,-0.8933,-0.848,-0.9276,-1.0036,-1.0684,-1.1868,-1.2514,-1.2646,-1.2812,-1.3277,-1.3961,-1.3496,-1.3457,-1.3662,-1.2325,-1.1483,-1.1016,-1.0357,-0.9979,0.0,0.0,0.0,0.0,0.0,0.0,0.0,0.0,0.0,0.0,0.0,0.0,0.0,0.0,0.0,0.0,0.0,0.0,0.0,0.0,0.0,0.0,0.0,0.0,0.0,0.0,0.0,0.0,0.0,0.0,0.0,0.0,0.0,0.0,0.0,0.0,0.0,-1.5013,-1.4923,0.0,-1.5764,-1.5707,-1.5685,-1.5876,-1.7893,-1.8982,-1.8653,-1.9843,-2.0679,-2.1017,-2.147,-2.1971,-2.2517,-2.301,-2.3342,-2.3473,-2.3461,-2.356,-2.3712,-2.3224,-2.3004,-2.2987,-2.2513,-2.2296,-2.2229,-2.1319,-2.0602,-1.9953,-1.8889,-1.8903,-1.9432,-1.8631,-1.8688,-1.9239,0.0,-0.2885,0.0,-0.3427,-0.4024,-0.455,-0.4798,-0.5782,-0.6296,-0.5733,-0.6993,-0.8006,-0.8181,-0.9325,-1.038,-1.1134,-1.1297,-1.1155,-1.0649,-1.0535,-1.0043,-0.9049,-0.9141,-0.9196,-0.911,-0.9997,-1.0767,-1.1336,-1.252,-1.3042,-1.2905,-1.3052,-1.3645,-1.456,-1.3966,-1.4103,-1.4725,-1.3391,-1.2496,-1.1943,-1.1582,-1.145,-1.1285,0.0,0.0,0.0,0.0,0.0,0.0,0.0,0.0,0.0,0.0,0.0,0.0,0.0,0.0,0.0,0.0,0.0,0.0,0.0,0.0,0.0,0.0,0.0,0.0,0.0,0.0,0.0,0.0,0.0,0.0,0.0,0.0,0.0,0.0,0.0,-1.6502,-1.7935,-1.776,-1.7834,-1.8674,-1.8667,-1.8728,-1.8967,-2.0629,-2.165,-2.1781,-2.293,-2.3651,-2.3807,-2.4052,-2.4235,-2.4375,-2.4431,-2.448,-2.4463,-2.4485,-2.4491,-2.4489,-2.4132,-2.3833,-2.3548,-2.3337,-2.2945,-2.2443,-2.2606,-2.2243,-2.1478,-2.045,-2.0348,-2.0724,-2.023,-2.0408,-2.1037,-0.2513,-0.2636,-0.2966,-0.3693,-0.4066,-0.4496,-0.5206,-0.6006,-0.6207,-0.5348,-0.7111,-0.8437,-0.8437,-0.9995,-1.1337,-1.2118,-1.1394,-1.1025,-1.1345,-1.0211,-0.9493,-0.9437,-0.8851,-0.8857,-0.9554,-1.0656,-1.1551,-1.2262,-1.3115,-1.332,-1.2954,-1.334,-1.3947,-1.4683,-1.4296,-1.4566,-1.5226,-1.446,-1.3348,-1.2186,-1.2477,-1.2536,-1.2354,0.0,0.0,0.0,0.0,0.0,0.0,0.0,0.0,0.0,0.0,0.0,0.0,0.0,0.0,0.0,0.0,0.0,0.0,0.0,0.0,0.0,0.0,0.0,0.0,0.0,0.0,0.0,0.0,0.0,0.0,0.0,0.0,0.0,-1.574,-1.7663,-1.9502,-2.0482,-2.0621,-2.0918,-2.1613,-2.1708,-2.2027,-2.2746,-2.3136,-2.3631,-2.438,-2.4414,-2.4611,-2.5043,-2.574,-2.6298,-2.6674,-2.5981,-2.5626,-2.5642,-2.4914,-2.4558,-2.4574,-2.4942,-2.4684,-2.4005,-2.475,-2.4195,-2.2795,-2.323,-2.3001,-2.233,-2.2296,-2.2296,-2.2296,-2.2296,-2.2477,-2.2759,-0.2778,-0.3242,-0.374,-0.4033,-0.4832,-0.5503,-0.5704,-0.6427,-0.674,-0.6216,-0.7964,-0.9274,-0.9274,-1.0839,-1.1953,-1.2171,-1.1394,-1.0785,-1.0549,-1.0245,-1.0124,-1.0195,-0.9521,-0.9787,-1.1151,-1.1323,-1.2135,-1.3588,-1.3821,-1.387,-1.3763,-1.388,-1.4989,-1.6842,-1.5301,-1.5519,-1.6965,-1.5324,-1.4204,-1.3616,-1.4259,-1.4337,-1.4025,0.0,0.0,0.0,0.0,0.0,0.0,0.0,0.0,0.0,0.0,0.0,0.0,0.0,0.0,0.0,0.0,0.0,0.0,0.0,0.0,0.0,0.0,0.0,0.0,0.0,0.0,0.0,0.0,0.0,0.0,0.0,-1.928,-2.0737,-1.945,-2.0696,-2.2041,-2.2788,-2.3358,-2.3666,-2.3576,-2.4001,-2.4531,-2.5123,-2.5701,-2.6259,-2.6799,-2.6556,-2.6467,-2.6581,-2.6274,-2.615,-2.6244,-2.6349,-2.6404,-2.6387,-2.62,-2.6099,-2.6082,-2.5652,-2.5341,-2.5122,-2.4795,-2.4403,-2.3994,-2.3827,-2.3502,-2.3038,-2.2513,-2.2296,-2.2296,-2.2296,-2.2477,-2.2784,-0.3049,-0.3712,-0.4217,-0.4095,-0.514,-0.5956,-0.5919,-0.6582,-0.6886,-0.6322,-0.838,-0.976,-0.9392,-1.1055,-1.2125,-1.1963,-1.1152,-1.0505,-1.0182,-1.0048,-0.9921,-0.9715,-0.9862,-1.057,-1.1915,-1.243,-1.334,-1.464,-1.464,-1.4552,-1.4377,-1.4377,-1.5498,-1.7384,-1.5764,-1.6221,-1.8043,-1.6144,-1.5366,-1.5454,-1.6093,-1.6074,-1.5623,-1.5279,-1.5253,-1.5226,-1.3953,-1.4093,-1.4569,-1.2288,0.0,0.0,0.0,0.0,0.0,0.0,0.0,0.0,0.0,0.0,0.0,0.0,0.0,0.0,0.0,0.0,0.0,0.0,0.0,0.0,0.0,0.0,0.0,0.0,-2.3265,-2.5292,-2.5018,-2.4828,-2.4896,-2.5413,-2.5866,-2.6147,-2.6264,-2.6619,-2.7108,-2.7734,-2.785,-2.8161,-2.8718,-2.8543,-2.8339,-2.8159,-2.7909,-2.7703,-2.7536,-2.7266,-2.7165,-2.7165,-2.6843,-2.686,-2.7148,-2.6568,-2.6307,-2.6241,-2.5844,-2.5312,-2.4699,-2.4641,-2.4401,0.0,0.0,0.0,0.0,0.0,-2.3371,-2.3749,-0.3388,-0.4049,-0.4477,-0.4064,-0.5148,-0.6048,-0.5979,-0.6614,-0.6845,-0.6135,-0.8474,-0.9887,-0.9023,-1.0792,-1.1904,-1.1498,-1.0655,-1.0089,-0.9939,-0.9674,-0.9293,-0.8729,-1.0014,-1.1217,-1.2195,-1.3684,-1.481,-1.5566,-1.5566,-1.5342,-1.496,-1.496,-1.5711,-1.6989,-1.5953,-1.6651,-1.8511,-1.6862,-1.6558,-1.7179,-1.7522,-1.7469,-1.7115,-1.6779,-1.7666,-1.8895,-1.734,-1.6901,-1.6829,-1.5278,0.0,0.0,0.0,0.0,0.0,0.0,0.0,0.0,0.0,0.0,0.0,0.0,0.0,0.0,0.0,0.0,0.0,0.0,0.0,0.0,0.0,0.0,0.0,0.0,-2.7343,-2.9755,-3.1093,-2.9503,-2.8162,-2.8083,-2.8098,-2.8385,-2.9061,-2.9128,-2.9448,-3.0294,-2.9583,-2.9465,-3.0311,0.0,0.0,0.0,0.0,-2.9686,-2.9246,-2.8271,-2.7756,-2.7672,-2.7012,-2.7046,-2.7672,-2.7408,-2.7239,-2.7147,-2.7239,-2.6511,-2.5215,-2.5529,-2.5543,-2.5209,-2.3964,-2.3144,-2.2822,-2.4131,-2.476,-2.5129,-0.4062,-0.4337,-0.4608,-0.4621,-0.5301,-0.5978,-0.6335,-0.6799,-0.7045,-0.6886,-0.8536,-0.9426,-0.8601,-1.0087,-1.0996,-1.0586,-0.9746,-0.9125,-0.8827,-0.9057,-0.9245,-0.9322,-1.0466,-1.1677,-1.2948,-1.4174,-1.5328,-1.6443,-1.6443,-1.625,-1.584,-1.584,-1.6384,-1.7266,-1.6356,-1.6778,-1.8083,-1.704,-1.6664,-1.6789,-1.6878,-1.7366,-1.8098,-1.8608,-1.9158,-1.956,-1.8782,-1.9397,-2.0254,-1.8321,-1.8149,-1.8406,-1.6426,-1.5189,0.0,0.0,0.0,0.0,0.0,0.0,0.0,0.0,0.0,0.0,0.0,0.0,0.0,0.0,0.0,0.0,0.0,0.0,0.0,-2.8323,-3.106,-3.3022,-3.3638,-3.3342,-3.2235,-2.9994,-2.9918,-3.0001,-2.9909,-2.9888,-3.0446,-3.1769,-3.0632,-3.0463,-3.1802,-3.0388,-2.9489,-2.942,-2.8922,-2.8336,-2.7641,-2.776,-2.7503,-2.6911,0.0,0.0,-2.6928,-2.7184,-2.7115,-2.6825,-2.7162,-2.696,-2.6349,-2.611,-2.6317,-2.6688,-2.5577,-2.5065,-2.5036,-2.5572,-2.5637,-2.5564,-0.4502,-0.5069,-0.5338,-0.4659,-0.5765,-0.669,-0.6475,-0.6998,-0.7199,-0.6616,-0.7982,-0.867,-0.784,-0.9065,-0.9838,-0.9573,-0.8925,-0.8526,-0.8504,-0.887,-0.9369,-0.9987,-1.1227,-1.268,-1.4328,-1.5289,-1.6329,-1.734,-1.7158,-1.6943,-1.675,-1.6494,-1.6839,-1.7567,-1.6747,-1.7165,-1.8382,-1.7453,-1.7512,-1.8155,-1.7591,-1.8448,-2.0061,-1.9777,-2.0411,-2.1377,-2.0838,-2.1204,-2.165,-2.0129,-2.0188,-2.0625,-1.9007,-1.8337,-1.7614,0.0,0.0,0.0,0.0,0.0,0.0,0.0,0.0,0.0,0.0,0.0,0.0,0.0,0.0,-2.2283,-2.4872,0.0,-2.9057,-3.3054,-3.4586,-3.5602,-3.6422,-3.6356,-3.4903,-3.1423,-3.1463,-3.164,-3.1249,-3.1406,-3.1905,-3.2784,-3.1679,-3.1359,-3.2263,-3.1025,-3.0206,-3.0006,-2.983,-2.9487,-2.8918,-2.8935,-2.8772,-2.8399,-2.8045,-2.8027,-2.8399,-2.8237,-2.8237,-2.84,-2.822,-2.8049,-2.7877,-2.8063,-2.8376,-2.8693,-2.8551,-2.7755,-2.6712,-2.6712,-2.6712,-2.6801,-0.4542,-0.5538,-0.5986,-0.4702,-0.5989,-0.7035,-0.6505,-0.7017,-0.714,-0.6214,-0.7319,-0.7819,-0.6882,-0.7901,-0.8622,-0.8476,-0.8254,-0.8182,-0.8311,-0.8879,-0.9574,-1.0394,-1.2053,-1.3692,-1.5313,-1.6315,-1.7204,-1.8008,-1.7666,-1.7461,-1.7373,-1.7021,-1.7113,-1.7564,-1.706,-1.751,-1.8552,-1.7847,-1.8344,-1.9538,-1.8634,-1.9726,-2.1768,-2.0715,-2.1454,-2.302,-2.2501,-2.2214,-2.2015,-2.1453,-2.1561,-2.1814,-2.1193,-2.1254,-2.0904,-1.7423,-1.7366,0.0,0.0,0.0,0.0,0.0,0.0,0.0,0.0,0.0,-2.2164,-2.3333,-2.5199,-2.7543,-3.0571,-3.1279,-3.2823,-3.7246,-3.7781,-3.7869,-3.8606,-3.8382,-3.6711,-3.2843,-3.2885,-3.3055,-3.2554,-3.2877,-3.3245,-3.358,-3.2686,-3.2299,-3.2703,-3.1904,-3.1264,-3.0934,-3.1232,-3.1111,-3.0522,-3.0379,-3.0176,-2.9888,-2.9281,-2.9314,-2.9871,-2.9337,-2.9425,-2.9969,-2.9466,-2.9193,-2.9209,-3.0217,-3.057,-3.0523,-3.1397,-3.0497,-2.8682,-2.8251,-2.8274,-2.8569,-0.3787,-0.4894,-0.5786,-0.5209,-0.5306,-0.5705,-0.639,-0.6575,-0.6595,-0.6464,-0.7014,-0.6955,-0.5726,-0.6733,-0.744,-0.73,-0.7844,-0.8041,-0.773,-0.8904,-0.9797,-1.0125,-1.275,-1.4382,-1.4765,-1.6444,-1.7539,-1.8008,-1.7959,-1.7744,-1.7383,-1.7334,-1.7132,-1.6833,-1.7171,-1.7403,-1.7585,-1.7821,-1.8482,-1.9324,-1.9222,-2.0268,-2.1877,-2.1713,-2.2262,-2.3017,-2.2485,-2.1912,-2.159,-2.2804,-2.2857,-2.2614,-2.3728,-2.3748,-2.2789,-2.0042,-1.8968,-1.8143,-1.5686,-1.5015,-1.5555,-1.7722,-1.9359,-2.1478,0.0,0.0,-2.9117,-3.0678,-3.2343,-3.3924,-3.5333,-3.6736,-3.8111,-3.9423,-4.0198,-4.0166,-3.8875,-3.8643,-3.7578,-3.48,-3.4224,-3.3867,-3.3334,-3.3313,-3.3639,-3.4341,-3.3672,-3.352,-3.4223,-3.2936,-3.2161,-3.212,-3.2144,-3.1534,-3.0183,-3.077,-3.0431,-2.9128,-2.9044,-2.9044,-2.913,-2.9351,-2.9506,-2.9677,-3.0017,-2.9934,-2.9659,-3.1489,-3.1861,-3.1391,-3.249,-3.2565,-3.1977,-3.1231,-3.0968,-3.0919,-0.3821,-0.4337,-0.4835,-0.4947,-0.552,-0.6003,-0.6135,-0.6347,-0.6295,-0.57,-0.5965,-0.5899,-0.5132,-0.6045,-0.6725,-0.6748,-0.7184,-0.7494,-0.7583,-0.8669,-0.9687,-1.0516,-1.2218,-1.377,-1.5151,-1.6063,-1.7016,-1.8008,-1.8008,-1.792,-1.7744,-1.7744,-1.7656,-1.748,-1.7666,-1.7744,-1.7764,-1.7939,-1.8787,-2.0009,-1.9497,-2.0443,-2.2035,-2.1218,-2.1432,-2.2097,-2.1379,-2.0766,0.0,-2.096,-2.1271,-2.1642,-2.297,-2.2799,-2.1806,-2.0179,-1.9782,-1.9756,-1.9233,-1.9592,-2.0506,-2.22,-2.4328,-2.6682,-2.9344,-3.1332,-3.3045,-3.4658,-3.6437,-3.8125,-3.9536,-3.9339,-3.9657,0.0,-4.1258,-4.0715,-4.0785,-4.0396,-3.9217,-3.6876,-3.5421,-3.4206,-3.321,-3.3531,-3.3905,-3.4192,-3.3956,-3.382,-3.3867,-3.3271,-3.273,-3.231,-3.2733,-3.2587,-3.1787,-3.2078,-3.1833,-3.1046,-3.1516,-3.1742,-3.1742,-3.207,-3.2074,-3.1827,-3.2018,-3.1908,-3.1688,-3.291,-3.3161,-3.2848,-3.4042,-3.4163,-3.3465,-3.1963,-3.1397,-3.136,-0.3787,-0.3999,-0.4216,-0.4404,-0.5177,-0.5785,-0.588,-0.6071,-0.5973,-0.5334,-0.5205,-0.5093,-0.4886,-0.5508,-0.6012,-0.6184,-0.653,-0.6863,-0.7167,-0.8334,-0.9444,-1.0389,-1.1745,-1.3308,-1.5118,-1.5698,-1.6618,-1.8008,-1.8008,-1.8008,-1.8008,-1.8008,-1.8008,-1.8008,-1.8008,-1.8008,-1.8008,-1.8269,-1.9126,-2.0314,-1.9931,-2.0615,-2.1738,-2.0552,-2.0246,-2.04,-1.9823,-1.9336,-1.8953,-1.879,-1.9329,-2.0249,-2.1256,-2.1352,-2.0953,-2.0195,-2.015,-2.0559,-2.1503,-2.2573,0.0,-2.6219,-2.8666,-3.1047,-3.3013,-3.4974,-3.6731,-3.7897,-3.9607,-4.1111,-4.1846,-4.1096,-4.0992,-4.2876,-4.2082,-4.1502,-4.2197,-4.1423,-3.9926,-3.7663,-3.556,-3.3705,-3.2264,-3.3199,-3.3974,-3.4137,-3.4383,-3.436,-3.4015,-3.3812,-3.3541,-3.3128,-3.3656,-3.3797,-3.3522,-3.3731,-3.3598,-3.3171,-3.3754,-3.3951,-3.3847,-3.4077,-3.3948,-3.3598,-3.3707,-3.3581,-3.3365,-3.4088,-3.4239,-3.4109,-3.5182,-3.5337,-3.4752,-3.3291,-3.2462,-3.2045,-0.3407,-0.3997,-0.436,-0.366,-0.3724,-0.4343,-0.57,-0.5628,-0.5538,-0.583,-0.5149,-0.4715,-0.4965,-0.5024,-0.5148,-0.541,-0.5969,-0.6269,-0.6147,-0.7999,-0.9142,-0.9254,-1.1766,-1.3543,-1.4328,-1.5499,-1.6719,-1.8008,-1.8008,-1.8008,-1.8008,-1.8008,-1.8008,-1.8008,-1.8008,-1.8008,-1.8076,-1.8888,-1.9447,-1.9789,-2.0628,-2.0863,-2.0679,-2.0048,-1.9027,-1.7923,-1.7875,-1.7777,-1.7572,-1.6975,-1.7648,-1.8809,-1.911,-2.008,-2.1044,-2.0752,-2.0092,-1.9766,-2.1221,-2.1963,-2.3524,-2.8439,-3.115,-3.3543,-3.7112,-3.9457,-4.0914,-4.0969,-4.2268,-4.2928,-4.1423,-4.2361,-4.3149,-4.2451,-4.2947,-4.3149,-4.2396,-4.0928,-3.8986,-3.6453,-3.4089,-3.2019,0.0,-3.2154,-3.3715,-3.4426,-3.5154,-3.5554,-3.5532,-3.4861,-3.4699,-3.5203,-3.522,-3.5112,-3.4836,-3.5545,-3.5545,-3.4835,-3.4853,-3.464,-3.417,-3.4127,-3.4105,-3.4105,-3.4493,-3.442,-3.4123,-3.4846,-3.5025,-3.4836,-3.5597,-3.603,-3.6233,-3.6174,-3.511,-3.3733,-0.3158,-0.3406,-0.3585,-0.3519,-0.3884,-0.43,-0.4599,-0.4541,-0.4569,-0.4872,-0.4648,0.0,0.0,0.0,0.0,0.0,-0.5922,-0.6246,-0.6729,-0.7597,-0.8257,-0.8583,-1.0073,-1.1636,-1.3282,-1.4038,-1.533,-1.7126,-1.7126,-1.7126,-1.7126,-1.7126,-1.7126,-1.7126,-1.7126,-1.7126,-1.7191,-1.7985,-1.8473,-1.8836,-1.9622,-1.9785,-1.9434,-1.8105,-1.7325,-1.6768,0.0,-1.4993,-1.514,-1.5565,-1.5703,-1.5912,-1.7012,-1.7565,-1.8017,-1.9176,-2.0504,-2.1969,-2.3758,-2.6185,-2.8932,-3.1963,-3.4619,-3.7147,-3.9716,-4.1119,-4.1754,-4.1205,-4.0118,-3.8807,-3.7304,-3.6731,-3.6876,-3.8129,-3.8773,-3.9876,-4.1996,-3.9992,-3.819,-3.7867,-3.5017,0.0,0.0,0.0,0.0,-3.3022,-3.4639,-3.538,-3.4895,-3.5115,-3.5084,-3.4789,-3.5228,-3.5362,-3.5091,-3.5353,-3.5227,-3.4765,-3.5296,-3.5603,-3.5654,-3.5651,-3.5425,-3.5104,-3.524,-3.4928,-3.4406,-3.5172,-3.5322,-3.52,-3.5946,-3.6379,-3.6626,-3.7168,-3.6541,-3.5339,0.0,-0.3186,-0.3318,-0.3353,-0.3633,0.0,0.0,0.0,0.0,0.0,0.0,0.0,0.0,0.0,0.0,0.0,0.0,-0.6135,-0.6798,-0.7336,-0.7853,-0.8307,-0.9244,-1.0416,-1.1865,-1.2706,-1.3974,-1.5684,-1.6065,-1.6229,-1.6229,-1.6229,-1.6229,-1.6229,-1.6229,-1.6229,-1.6281,-1.7104,-1.747,-1.7527,-1.8133,-1.8142,-1.7629,-1.5961,-1.5267,0.0,-1.3969,-1.343,-1.3426,-1.451,-1.4742,-1.4733,-1.5726,-1.6523,-1.7538,-1.9845,-2.2039,-2.4362,-2.7214,-2.9956,-3.2652,-3.55,-3.7577,-3.93,-4.0815,-4.1578,-4.1427,-3.9509,-3.812,-3.6401,-3.3652,-3.2728,-3.2915,-3.4589,-3.5389,-3.7106,-4.0895,-3.9405,-3.8181,-3.8825,-3.6342,-3.4339,0.0,0.0,0.0,-3.2364,-3.3854,-3.4726,-3.4506,-3.4962,-3.5203,-3.5181,-3.5898,-3.6156,-3.5911,-3.6071,-3.6054,-3.5847,-3.5998,-3.6177,-3.6395,-3.6203,-3.5737,-3.5061,-3.543,-3.5118,-3.4402,-3.5243,-3.5629,-3.5743,-3.6205,-3.6586,-3.6933,-3.747,-3.7212,-3.6485,0.0,0.0,-0.3553,0.0,0.0,0.0,0.0,0.0,0.0,0.0,0.0,0.0,0.0,0.0,0.0,0.0,0.0,0.0,-0.6394,-0.7223,-0.789,-0.8356,-0.926,-0.9925,-1.0299,-1.1545,-1.2706,-1.3776,-1.4718,-1.5186,-1.5204,-1.5234,-1.5234,-1.5204,-1.5253,-1.5234,-1.5231,-1.6197,-1.6317,-1.5847,-1.6189,-1.6007,-1.5389,-1.3756,-1.3022,-1.2948,-1.3443,-1.3065,-1.2522,-1.3905,-1.4825,-1.5415,-1.5533,-1.7227,-1.9756,-2.275,-2.4729,-2.6894,-3.1244,-3.3034,-3.4674,-3.8784,-3.9806,-3.9934,-4.0485,-4.0885,-4.0022,-3.6058,-3.6118,-3.5341,0.0,0.0,-3.1148,-3.2029,-3.3022,-3.5137,-3.9313,-3.9203,-3.8836,0.0,0.0,0.0,0.0,0.0,0.0,-3.2666,0.0,-3.3897,-3.4624,-3.4658,-3.5206,-3.6367,-3.7097,-3.7349,-3.7133,-3.756,-3.7808,-3.7826,-3.6823,-3.6388,-3.6402,-3.5866,-3.5044,-3.4154,-3.5171,-3.501,-3.4152,-3.5166,-3.5898,-3.6354,-3.6354,-3.6684,-3.7171,-3.7171,-3.719,-3.7159,0.0,0.0,0.0,0.0,0.0,0.0,0.0,0.0,0.0,0.0,0.0,0.0,0.0,0.0,0.0,0.0,0.0,0.0,-0.6684,-0.7232,-0.7666,-0.795,-0.8705,-0.9572,-1.0491,-1.0665,-1.1189,-1.2115,-1.2274,-1.2401,-1.2503,-1.2801,-1.2897,-1.2813,-1.326,-1.2972,-1.2209,-1.3596,-1.3815,-1.3199,-1.3711,-1.389,-1.3784,-1.2593,-1.2308,-1.2532,-1.2582,-1.258,-1.2891,-1.4724,-1.652,-1.8244,-1.9941,-2.1677,-2.356,-2.5981,-2.8535,-3.1092,-3.3322,-3.5707,-3.797,-3.9615,-3.9896,-3.9706,-3.929,-3.8353,-3.6434,-3.2565,-3.0016,-2.7441,0.0,0.0,0.0,-2.9704,-3.1408,0.0,-3.9174,-3.9203,0.0,-3.8836,0.0,-3.8015,-3.7486,-3.7485,0.0,0.0,-3.5722,-3.6248,-3.6992,-3.7043,-3.6926,-3.6712,-3.6865,-3.666,-3.6011,-3.6122,-3.6483,-3.7068,-3.6215,-3.6134,-3.6661,-3.5943,-3.5447,-3.5217,-3.5475,-3.5447,-3.5196,-3.5475,-3.5672,-3.5788,-3.5788,-3.6139,-3.6603,-3.6603,-3.6862,-3.7136,0.0,0.0,0.0,0.0,0.0,0.0,0.0,0.0,0.0,0.0,0.0,0.0,0.0,0.0,0.0,0.0,0.0,0.0,0.0,-0.7429,-0.7926,-0.8266,-0.8803,-0.9275,-0.9705,-0.9872,-1.013,-1.053,-1.076,-1.0895,-1.0984,-1.1358,-1.1499,-1.1428,-1.1963,-1.1803,-1.1209,-1.1944,-1.2016,0.0,0.0,-1.1844,-1.2223,-1.1181,-1.1081,-1.1544,-1.2068,-1.3175,-1.4804,-1.735,-1.9298,-2.1133,-2.3872,-2.5761,-2.7588,-3.0818,0.0,-3.468,-3.6474,-3.843,-3.9986,-4.0096,-3.9773,-3.882,-3.6427,-3.4992,-3.2721,-2.7531,-2.509,-2.3035,-2.0213,-2.0011,0.0,0.0,0.0,0.0,-3.7579,-3.8836,-3.9368,0.0,-4.0065,0.0,-4.0408,-3.9763,-3.9214,0.0,-3.7247,-3.6603,-3.7381,-3.7415,-3.7381,-3.728,-3.7608,-3.7505,-3.692,-3.6701,-3.6944,-3.757,-3.6605,-3.6349,-3.6778,-3.5977,-3.5338,-3.4917,0.0,-3.5321,-3.4934,-3.5418,-3.56,-3.56,-3.56,-3.5766,-3.6054,-3.6054,-3.6228,-3.646,0.0,0.0,0.0,0.0,0.0,0.0,0.0,0.0,0.0,0.0,-0.447,-0.4146,0.0,0.0,0.0,0.0,0.0,0.0,0.0,0.0,-0.8223,-0.862,-0.9018,-0.9014,-0.8557,-0.9095,-0.9288,-0.9075,-0.9646,-0.9928,-0.9946,-1.0346,-1.0519,-1.051,-1.0999,-1.1124,-1.099,-1.0792,-1.0676,-1.0526,-0.9745,-1.0017,-1.081,0.0,-0.9893,-1.0543,-1.1748,-1.3858,-1.6608,-2.005,-2.2228,-2.4048,-2.7466,-2.9666,-3.1799,-3.5898,-3.7168,-3.7692,-3.9706,-4.0696,-4.1052,-4.0417,-3.9377,-3.7466,-3.3393,-3.1494,-2.8785,-2.2388,-2.1142,-2.0466,-1.8121,-1.8409,-2.0582,-2.539,0.0,-3.0763,-3.5538,-3.8389,-4.0182,-4.0728,-4.168,-4.2616,-4.3423,-4.1785,-4.1002,-4.174,-3.8318,-3.6502,-3.7202,-3.7235,-3.7506,-3.8041,-3.8565,-3.8721,-3.8513,-3.8114,-3.8148,-3.8651,-3.7484,-3.6998,-3.7066,-3.6282,-3.5346,-3.4421,-3.5353,-3.5231,-3.4455,-3.5387,-3.5752,-3.5752,-3.5752,-3.5684,-3.56,-3.56,-3.56,-3.56,0.0,0.0,0.0,0.0,0.0,0.0,0.0,0.0,0.0,0.0,-0.4744,-0.4349,0.0,0.0,0.0,0.0,0.0,0.0,0.0,0.0,0.0,-0.7348,-0.8328,-0.8695,-0.8287,-0.8273,-0.8152,-0.7898,-0.7907,-0.796,-0.8083,-0.88,-0.9054,-0.893,-0.9837,-0.9721,-0.8875,-0.9477,-0.9462,-0.8963,-0.866,-0.9059,-0.9843,-0.9723,0.0,0.0,-1.1306,-1.2293,-1.4098,-1.8757,-2.3047,-2.7156,-3.1173,-3.3914,-3.6034,-3.8024,-3.9063,-3.974,-4.073,-4.1102,-4.117,-4.1035,-3.8582,-3.5673,-3.366,-2.9153,0.0,-2.0743,-1.8368,-1.6884,-1.662,-1.7703,-2.0716,-2.7151,-2.9024,-3.1087,-3.5157,-3.8369,-4.003,0.0,-4.1001,-4.2616,-4.3423,-4.1745,0.0,0.0,0.0,-3.9385,-3.952,-3.9537,-3.9317,-3.8819,-3.8345,-3.8072,-3.8014,-3.7936,-3.8241,-3.8938,-3.8106,-3.8024,-3.8582,-3.7838,-3.7072,-3.6311,-3.6514,0.0,-3.6333,-3.6514,-3.6586,-3.6586,-3.6586,-3.618,-3.56,-3.56,-3.56,-3.56,0.0,0.0,0.0,0.0,0.0,0.0,-0.469,-0.4813,-0.4948,-0.5068,-0.4959,-0.4769,-0.4535,-0.4513,-0.4558,0.0,0.0,0.0,0.0,0.0,0.0,0.0,0.0,0.0,-0.8203,-0.8165,0.0,0.0,0.0,-0.7583,-0.7663,0.0,0.0,-0.8679,-0.9376,-0.9492,-0.9129,-0.9015,-0.8998,-0.8971,-0.8387,-0.8733,0.0,0.0,0.0,0.0,0.0,-1.178,-1.392,-1.7439,-2.133,-2.5791,-3.2104,-3.5849,-3.8142,-3.9259,-4.0375,-4.1221,-4.1221,-4.1194,-4.1009,-4.0294,-3.7336,-3.3568,-2.9518,0.0,0.0,-1.6698,-1.4838,-1.4126,-1.4637,-1.618,0.0,-2.5195,-2.7212,-2.9811,-3.4932,-3.7359,-3.8839,-3.9397,-4.0868,-4.1887,0.0,-4.0917,-4.0333,0.0,0.0,-3.9706,-4.0079,-4.0096,-3.9943,-3.9588,-3.9225,-3.9039,-3.9039,-3.9039,-3.9208,-3.9571,-3.8819,-3.865,-3.8971,-3.8244,-3.7719,-3.7364,-3.7364,0.0,-3.5988,-3.6972,-3.6791,-3.5971,-3.6582,-3.6575,-3.618,-3.5752,-3.56,-3.56,0.0,0.0,0.0,0.0,0.0,0.0,-0.4575,-0.4728,-0.4787,-0.4728,-0.5003,-0.5001,-0.4532,-0.4122,-0.4069,0.0,0.0,0.0,0.0,0.0,0.0,0.0,0.0,0.0,0.0,0.0,0.0,0.0,0.0,0.0,0.0,0.0,0.0,0.0,0.0,0.0,-0.9429,-0.8742,-0.8752,0.0,0.0,0.0,0.0,0.0,0.0,0.0,0.0,-1.1597,-1.3895,-1.5978,-1.8742,-2.2577,-2.9789,-3.4565,-3.7674,-3.8722,-4.0281,-4.157,-4.1281,-4.1194,-4.0847,-3.9418,-3.6111,-3.1742,-2.6158,-2.2469,-1.8792,-1.3719,-1.237,-1.2442,-1.3555,-1.504,-1.7754,0.0,-2.476,-2.7789,-3.3952,-3.575,-3.7336,0.0,-4.0778,0.0,-4.1298,-4.05,0.0,0.0,0.0,0.0,-4.0079,-4.0096,-4.0096,-4.0096,-4.0096,-4.0096,-4.0096,-4.0096,-4.0096,-4.0096,-3.952,-3.9225,-3.9208,-3.8633,-3.8294,-3.8142,-3.8142,0.0,0.0,-3.7364,-3.6945,-3.5222,-3.6531,-3.6823,-3.6451,-3.5819,-3.56,-3.56,0.0,0.0,0.0,0.0,0.0,0.0,-0.4106,-0.4482,-0.4714,-0.4469,-0.4682,-0.4647,-0.4113,-0.4338,-0.444,0.0,0.0,0.0,0.0,0.0,0.0,0.0,0.0,0.0,0.0,0.0,0.0,0.0,0.0,0.0,0.0,0.0,0.0,0.0,0.0,0.0,0.0,-0.8242,0.0,0.0,0.0,0.0,0.0,0.0,0.0,0.0,0.0,-1.1391,-1.2449,-1.4109,-1.6065,-1.8438,-2.2303,-2.7662,-3.2945,-3.4981,0.0,0.0,-4.09,-4.1196,-4.0832,-3.9295,-3.5289,-3.0893,-2.78,0.0,-1.7854,-1.4816,-1.293,-1.2526,-1.4791,-1.5355,-1.7129,-2.2157,-2.3111,-2.5253,-3.1073,-3.3424,-3.59,-3.9504,0.0,0.0,-4.3085,-4.1611,0.0,0.0,0.0,0.0,-4.0096,-4.0096,-4.0096,-4.0096,-4.0096,-4.0096,-4.0096,-4.0096,-4.0096,-4.0096,-4.0028,-3.9994,-3.9994,-3.9943,-3.9537,-3.8886,-3.8886,0.0,0.0,-3.8129,-3.7405,-3.5273,-3.7109,-3.6941,-3.5701,-3.5616,-3.56,-3.56,0.0,0.0,0.0,0.0,0.0,0.0,-0.4275,-0.4562,-0.4701,-0.4429,-0.4628,-0.4691,-0.4397,-0.4505,-0.4466,-0.4118,-0.4401,0.0,0.0,0.0,0.0,0.0,0.0,0.0,0.0,0.0,-0.7459,-0.7607,-0.7861,0.0,0.0,0.0,0.0,0.0,0.0,0.0,0.0,0.0,0.0,0.0,0.0,0.0,0.0,0.0,0.0,0.0,0.0,0.0,-1.1825,-1.2316,-1.3689,-1.533,-1.6084,-1.9836,-2.4918,0.0,-3.3882,-3.6904,-3.7736,-3.8849,-3.9389,-3.749,-3.3365,-2.8753,-2.4853,0.0,-1.6293,-1.3178,-1.1988,-1.1792,-1.2742,-1.3748,-1.5513,-1.8809,-1.9647,0.0,-2.8879,-3.0461,-3.2948,-3.8402,-3.9611,0.0,0.0,0.0,0.0,0.0,0.0,0.0,-4.0045,-4.0096,-4.0096,-4.0096,-4.0096,-4.0096,-4.0096,-4.0096,-4.0096,-4.0096,-4.0096,-4.0096,-4.0096,-4.0096,-3.9943,-3.9673,-3.9673,0.0,0.0,-3.8333,-3.7337,-3.4037,-3.6814,-3.7263,-3.6265,-3.5769,-3.56,-3.56,0.0,0.0,0.0,0.0,0.0,-0.4382,-0.4295,-0.4412,-0.4414,-0.4166,-0.4458,-0.4629,-0.4499,-0.4682,-0.4634,-0.4215,-0.4441,0.0,0.0,0.0,0.0,0.0,0.0,0.0,0.0,0.0,-0.7321,-0.748,-0.7773,-0.7973,0.0,0.0,0.0,0.0,0.0,0.0,0.0,0.0,0.0,0.0,0.0,0.0,0.0,0.0,0.0,0.0,0.0,0.0,0.0,0.0,0.0,-1.3025,-1.2167,-1.4217,-1.8215,-2.4575,-2.9706,-3.3457,-3.4344,-3.6393,-3.784,-3.5888,-3.1688,-2.6921,-2.2786,0.0,-1.4848,-1.1801,-1.1184,-1.1333,-1.1796,-1.2695,-1.421,-1.6834,-1.7813,-2.0458,-2.6795,-2.8105,-3.0589,0.0,0.0,-3.8614,0.0,0.0,0.0,0.0,0.0,0.0,-4.0045,-4.0096,-4.0096,-4.0096,-4.0096,-4.0096,-4.0096,-4.0096,-4.0096,-4.0096,-4.0096,-3.9876,-3.9469,-3.991,-3.9859,-3.9462,-3.991,0.0,0.0,-3.8452,-3.732,-3.3832,-3.6531,-3.711,-3.6366,-3.5825,-3.56,-3.56,0.0,0.0,0.0,0.0,0.0,-0.3622,-0.3948,-0.3892,-0.3734,-0.3529,-0.4032,-0.4349,-0.4223,-0.4858,-0.5103,-0.4634,-0.4602,0.0,0.0,0.0,0.0,0.0,0.0,0.0,-0.6488,-0.7223,-0.786,-0.8385,-0.8385,-0.86,-0.8975,-0.811,-0.7695,0.0,0.0,0.0,0.0,0.0,0.0,0.0,0.0,0.0,-1.0427,0.0,0.0,0.0,0.0,0.0,0.0,0.0,0.0,0.0,0.0,-1.1808,-1.3922,-1.9388,-2.478,-2.9383,-3.1228,-3.4229,-3.6461,-3.4905,-3.0535,-2.5842,-2.287,-1.8104,-1.3666,-1.138,-1.0897,-1.139,-1.2986,-1.275,-1.3535,-1.7279,-1.8568,0.0,-2.4756,-2.6761,-2.9334,0.0,0.0,-3.5595,0.0,0.0,0.0,0.0,0.0,0.0,-4.0121,-4.0096,-4.0096,-4.0096,-4.0096,-4.0096,-4.0096,-4.0096,-4.0096,-4.0096,-4.0096,-3.9351,-3.7973,-3.9411,-3.9292,-3.8007,0.0,0.0,0.0,-3.8537,-3.7473,-3.5187,-3.6344,-3.6315,-3.5616,-3.56,-3.56,-3.56,0.0,0.0,0.0,0.0,0.0,0.0,-0.367,-0.3543,-0.3432,-0.338,-0.3809,-0.4172,-0.4325,-0.4913,-0.523,-0.5087,-0.5087,0.0,0.0,0.0,0.0,0.0,0.0,0.0,-0.6075,-0.6595,-0.7072,-0.751,-0.7793,-0.7983,-0.811,-0.7822,-0.763,-0.7488,-0.7287,0.0,0.0,0.0,0.0,0.0,0.0,-1.1425,-1.2304,0.0,0.0,0.0,0.0,0.0,0.0,0.0,0.0,0.0,0.0,0.0,0.0,-1.4868,-1.8873,-2.3059,-2.4468,-2.6693,-2.8241,-2.6799,-2.3971,-2.0961,-1.8669,-1.5483,-1.254,-1.09,-1.0556,-1.0713,-1.1228,-1.1851,-1.3496,-1.7164,-1.8092,-2.0198,0.0,0.0,0.0,-3.4418,-3.8401,0.0,0.0,0.0,0.0,0.0,0.0,0.0,-4.007,-4.0096,-4.0096,-4.0096,-4.0096,-4.0096,-4.0096,-4.0096,-4.0096,-4.0096,-4.0096,-3.9326,-3.7956,-3.9436,-3.9317,0.0,0.0,0.0,0.0,-3.8451,-3.7305,-3.484,-3.6248,-3.6034,-3.4918,-3.4918,-3.4616,-3.4227,0.0,0.0,0.0,0.0,0.0,0.0,-0.3365,-0.3154,-0.3041,-0.3141,-0.3599,-0.4043,-0.4362,-0.494,-0.5293,-0.5293,-0.5293,0.0,0.0,0.0,0.0,0.0,0.0,0.0,-0.6123,-0.6474,-0.68,-0.71,-0.7427,-0.7551,-0.7476,-0.7551,-0.7566,-0.7511,-0.7379,-0.7259,0.0,0.0,0.0,0.0,-1.1051,-1.188,-1.2628,0.0,0.0,0.0,0.0,0.0,0.0,0.0,0.0,0.0,0.0,0.0,0.0,0.0,-1.4519,-1.7381,-1.9893,-2.2254,-2.3794,-2.2917,-2.0571,-1.8072,-1.6467,-1.3779,-1.1415,-1.0567,-1.0804,-1.1147,-1.1131,-1.2046,-1.3692,-1.636,-1.7842,-2.0094,0.0,0.0,0.0,-3.3992,0.0,0.0,0.0,0.0,0.0,0.0,0.0,0.0,-4.007,-4.0096,-4.0096,-4.0096,-4.0096,-4.0096,-4.0096,-4.0096,-4.0096,-4.0096,-4.0096,-3.9199,-3.7533,-3.93,-3.9148,0.0,0.0,0.0,0.0,-3.8734,-3.7719,-3.5819,-3.6236,-3.5654,-3.4576,-3.4309,-3.3962,-3.3582,0.0,0.0,0.0,0.0,0.0,0.0,0.0,-0.2793,-0.2644,-0.293,-0.348,-0.398,-0.4355,-0.4937,-0.5293,-0.5293,-0.5293,0.0,0.0,0.0,0.0,0.0,0.0,-0.5967,-0.6488,-0.6778,-0.6978,-0.7126,-0.7353,-0.7353,-0.7126,-0.7383,-0.7575,-0.7695,-0.7725,-0.7744,-0.7803,-0.8704,-0.9351,-0.9861,-1.1214,-1.1754,0.0,0.0,0.0,0.0,0.0,0.0,0.0,0.0,0.0,0.0,0.0,0.0,0.0,0.0,0.0,0.0,0.0,-2.0019,-2.1884,-2.1884,-1.9332,-1.6554,-1.5629,-1.2801,0.0,-1.0528,-1.1536,-1.2389,-1.2399,-1.3195,-1.422,-1.5333,-1.7919,-2.0323,0.0,-2.506,0.0,0.0,0.0,0.0,0.0,0.0,0.0,0.0,0.0,0.0,-4.0121,-4.0096,-4.0096,-4.0096,-4.0096,-4.0096,-4.0096,-4.0096,-4.0045,-3.9943,-4.0045,-3.8911,-3.6795,-3.908,-3.8928,0.0,0.0,0.0,0.0,-3.9249,-3.8481,-3.7665,-3.6198,-3.5185,-3.4455,-3.3786,-3.3495,-3.3453,0.0,0.0,0.0,0.0,0.0,0.0,0.0,0.0,0.0,0.0,-0.3982,-0.4296,-0.4388,-0.4935,-0.5293,0.0,0.0,0.0,0.0,0.0,0.0,0.0,-0.5649,-0.6051,-0.6488,-0.6868,-0.7141,-0.7326,-0.7835,-0.7825,-0.7349,-0.8158,-0.8247,-0.7715,-0.8076,-0.8238,-0.8268,-0.8803,-0.9501,-1.0291,-1.0934,-1.1638,0.0,0.0,0.0,0.0,-1.1908,-1.1787,0.0,0.0,0.0,0.0,0.0,0.0,0.0,0.0,-1.2205,-1.2044,-1.3121,0.0,-1.3972,-1.3972,-1.2992,-1.1966,0.0,-1.0808,-1.0379,-1.1669,-1.2181,-1.262,-1.3319,-1.4506,-1.5857,-1.7297,-1.9224,-2.1437,-2.3966,0.0,0.0,0.0,0.0,0.0,0.0,0.0,0.0,0.0,0.0,-4.0655,-4.0121,-4.0096,-4.0096,-4.0096,-4.0096,-4.0096,-4.0096,-4.0096,-3.9537,-3.843,-3.9571,-3.8616,-3.5994,-3.8802,-3.9216,0.0,0.0,0.0,-3.9191,-3.8464,-3.7719,-3.6912,-3.5418,-3.4431,-3.3761,-3.3093,-3.2477,-3.1992,0.0,0.0,0.0,0.0,0.0,0.0,0.0,0.0,0.0,0.0,-0.4286,-0.4587,-0.483,-0.5121,-0.5318,0.0,0.0,0.0,0.0,0.0,0.0,-0.5316,-0.5688,-0.6083,-0.6495,-0.6886,-0.722,-0.7486,-0.7946,-0.7842,-0.7233,-0.8082,-0.8097,-0.7447,-0.7891,-0.8209,-0.844,-0.9057,-0.9602,-1.0111,-1.1007,0.0,0.0,0.0,0.0,0.0,-1.1728,-1.1696,0.0,-1.2522,-1.2527,-1.2385,0.0,0.0,0.0,0.0,-1.2534,-1.219,-1.188,-1.1889,-1.2132,-1.2761,-1.1987,-1.1247,-1.183,-1.0887,-1.0417,-1.2211,-1.2581,-1.2928,-1.4041,-1.5114,-1.6369,-1.8095,-1.953,0.0,0.0,0.0,0.0,0.0,0.0,0.0,0.0,0.0,0.0,0.0,0.0,-4.0417,-4.0138,-4.0096,-4.0096,-4.0096,-4.0096,-4.0096,-4.0096,-4.0096,-3.9343,-3.7922,-3.9039,-3.8379,-3.6214,-3.8193,-3.8836,0.0,0.0,0.0,-3.8886,-3.7449,-3.6823,-3.6652,-3.5218,-3.4228,-3.3495,-3.2477,-3.1853,-3.1511,0.0,0.0,0.0,0.0,0.0,0.0,0.0,0.0,0.0,0.0,0.0,0.0,0.0,0.0,0.0,0.0,0.0,0.0,0.0,0.0,-0.5776,-0.5491,-0.5874,-0.6244,-0.6594,-0.6984,-0.7343,-0.7654,-0.7975,-0.7817,-0.7236,-0.7916,-0.789,-0.7314,-0.7652,-0.8066,-0.8554,-0.9346,-0.9694,-0.9811,-1.1076,0.0,0.0,0.0,0.0,0.0,0.0,0.0,0.0,-1.229,-1.253,-1.2737,-1.2945,0.0,0.0,0.0,0.0,0.0,-1.1993,-1.2485,-1.3343,-1.4339,-1.324,-1.2268,-1.3515,-1.1953,-1.0834,-1.29,-1.3333,-1.3727,0.0,-1.6122,0.0,0.0,0.0,0.0,-2.8873,0.0,0.0,0.0,0.0,0.0,0.0,0.0,0.0,0.0,0.0,-4.0096,-4.0096,-4.0096,-4.0096,-4.0096,-3.9994,-3.9943,-3.9943,-4.0045,-3.9317,-3.7736,-3.87,-3.8352,-3.6829,-3.7686,-3.8413,-3.8886,0.0,0.0,-3.8497,-3.6586,-3.6113,-3.6494,-3.519,-3.424,-3.3427,-3.2038,-3.1578,-3.1668,0.0,0.0,0.0,0.0,0.0,0.0,0.0,0.0,0.0,0.0,0.0,0.0,0.0,0.0,0.0,0.0,0.0,0.0,0.0,-0.584,-0.6029,-0.6304,-0.6691,-0.6955,-0.7014,-0.7403,-0.7715,-0.7936,-0.8436,-0.8539,-0.8284,-0.8962,-0.8887,-0.8199,-0.8268,-0.8532,-0.8936,-0.9426,-0.9841,-1.0205,-1.0437,0.0,0.0,0.0,0.0,0.0,0.0,0.0,0.0,-1.299,-1.2842,-1.2472,-1.3549,0.0,0.0,0.0,0.0,0.0,-1.2105,-1.3323,-1.434,-1.3689,-1.2849,-1.244,-1.3558,-1.2783,-1.2587,-1.521,0.0,0.0,0.0,-1.9889,-2.1679,0.0,0.0,-2.8425,0.0,0.0,0.0,0.0,0.0,0.0,0.0,0.0,0.0,0.0,0.0,-4.0096,-4.0096,-4.0096,-4.0096,-4.0096,-3.9503,-3.9157,-3.9157,-3.9791,-3.9046,-3.6998,-3.8979,-3.8826,-3.6846,-3.8193,-3.8886,-3.8937,0.0,-3.7398,-3.7117,-3.6761,-3.6282,-3.5701,-3.4918,-3.4209,-3.3441,-3.208,-3.1944,-3.2437,0.0,0.0,0.0,0.0,0.0,0.0,0.0,0.0,0.0,0.0,0.0,0.0,0.0,0.0,0.0,0.0,0.0,0.0,0.0,-0.6208,-0.6638,-0.6817,-0.7201,-0.7329,-0.7103,-0.7486,-0.7846,-0.8158,-0.8582,-0.8477,-0.7852,-0.799,-0.8039,-0.8037,-0.8287,-0.863,-0.9033,-0.9435,-0.9864,-1.0303,0.0,0.0,0.0,0.0,0.0,0.0,0.0,0.0,0.0,0.0,-1.2853,-1.2576,-1.3164,0.0,0.0,0.0,0.0,0.0,-1.2035,-1.2862,-1.3949,-1.49,-1.4634,-1.4729,-1.697,-1.521,-1.4188,-1.7961,0.0,0.0,0.0,0.0,-2.2621,-2.4825,0.0,-3.3321,0.0,0.0,0.0,0.0,0.0,0.0,0.0,0.0,0.0,0.0,0.0,0.0,-4.0096,-4.0096,-4.0096,-4.0096,-3.9377,-3.8988,-3.8988,-3.8937,-3.8193,-3.6829,-3.8227,-3.8379,-3.7415,-3.8091,-3.8616,-3.8886,0.0,-3.6332,-3.6711,-3.547,-3.5216,-3.5538,-3.4854,-3.4406,-3.398,-3.2625,-3.2323,-3.2586,0.0,0.0,0.0,0.0,0.0,0.0,0.0,0.0,0.0,0.0,0.0,0.0,0.0,0.0,0.0,0.0,0.0,0.0,0.0,-0.6615,-0.7145,-0.7237,-0.753,-0.7554,-0.7246,-0.7539,-0.7899,-0.8305,-0.8456,-0.8234,-0.7685,-0.7286,-0.7413,-0.8039,-0.8393,-0.8718,-0.9043,-0.9542,-0.9971,-1.0303,0.0,0.0,0.0,0.0,0.0,0.0,0.0,0.0,0.0,0.0,0.0,0.0,0.0,0.0,0.0,-1.2057,-1.2196,-1.229,-1.2007,-1.2519,-1.3694,-1.6035,-1.6138,-1.666,-2.0457,-1.8216,-1.6637,-2.123,-1.9379,0.0,0.0,-2.239,0.0,-2.9208,-3.3986,0.0,0.0,0.0,0.0,0.0,0.0,0.0,0.0,0.0,0.0,0.0,0.0,0.0,-4.0096,-3.9943,-3.9842,-3.9842,-3.8962,-3.8481,-3.8481,-3.7736,-3.7178,-3.6812,-3.755,-3.7821,-3.7652,-3.7652,-3.7939,-3.8345,-3.5842,-3.5419,-3.6366,-3.4641,-3.4568,-3.5538,-3.5012,-3.4636,-3.4273,-3.338,-3.2972,-3.2846,0.0,0.0,0.0,0.0,0.0,0.0,0.0,0.0,0.0,0.0,0.0,0.0,0.0,0.0,0.0,0.0,0.0,0.0,-0.6928,-0.7056,-0.7259,-0.7647,-0.7681,-0.7681,-0.7666,-0.7681,-0.7899,-0.8305,-0.789,-0.8097,-0.8864,-0.8219,-0.8304,-0.9002,-0.8974,-0.8975,-0.9062,-0.9883,-1.0273,-1.0303,-1.0303,0.0,0.0,0.0,0.0,0.0,0.0,0.0,0.0,0.0,0.0,0.0,0.0,0.0,-1.1281,-1.1351,-1.1209,-1.122,-1.2029,-1.3151,-1.447,-1.6029,-1.5836,-1.669,-2.2229,-2.1446,-2.0846,-2.5348,-2.548,0.0,0.0,-2.67,-2.9003,-3.2499,-3.5757,0.0,0.0,0.0,0.0,0.0,0.0,0.0,0.0,0.0,0.0,0.0,0.0,0.0,-4.0096,-3.9445,-3.9073,-3.9073,-3.7709,-3.6965,-3.6965,-3.618,-3.6113,-3.6812,-3.755,-3.7533,-3.688,-3.688,-3.6914,-3.6914,-3.5943,-3.5583,-3.5667,-3.5498,-3.5498,-3.56,-3.5538,-3.4766,-3.374,-3.4257,-3.4052,-3.3623,0.0,0.0,0.0,0.0,0.0,0.0,0.0,0.0,0.0,0.0,0.0,0.0,0.0,0.0,0.0,0.0,0.0,0.0,-0.7076,-0.733,-0.7544,-0.7695,-0.7695,-0.7827,-0.8062,-0.7583,-0.7265,-0.7115,-0.6972,-0.7632,-0.8981,-0.8185,-0.8273,-0.9106,-0.8978,-0.882,-0.8688,-0.9521,-0.9864,-0.9884,-1.0176,-1.0303,0.0,0.0,0.0,0.0,0.0,0.0,0.0,0.0,-1.2712,-1.2068,-1.1971,-1.1507,-1.1013,-1.1047,-1.1245,-1.1541,-1.1899,-1.2957,-1.4455,-1.6511,-1.7116,-1.8606,-2.4014,-2.3456,-2.3259,-2.8429,-2.7486,0.0,0.0,0.0,-3.2753,-3.4479,0.0,0.0,0.0,0.0,0.0,0.0,0.0,0.0,0.0,0.0,0.0,0.0,0.0,0.0,-3.9453,-3.914,-3.8785,-3.8328,-3.7337,-3.6795,-3.6795,-3.6011,-3.5752,-3.6062,-3.684,-3.7297,-3.7483,-3.7483,-3.7229,-3.6778,-3.6468,-3.6062,-3.56,-3.56,-3.56,-3.56,-3.56,-3.504,-3.4244,-3.4501,-3.4194,-3.3705,0.0,0.0,0.0,0.0,0.0,0.0,0.0,0.0,0.0,0.0,0.0,0.0,0.0,0.0,0.0,0.0,0.0,0.0,-0.7436,-0.7729,-0.7932,-0.8037,-0.8037,-0.8118,-0.8262,-0.7726,-0.7222,-0.6785,-0.6596,-0.7293,-0.8792,-0.7877,-0.8161,-0.9421,-0.8989,-0.878,-0.8787,-0.9361,-0.9681,-0.9794,-0.9999,-1.0175,0.0,0.0,0.0,0.0,0.0,0.0,0.0,0.0,-1.2714,-1.2055,-1.1812,-1.1515,-1.1217,-1.1065,-1.1531,-1.2062,-1.1861,-1.3064,-1.4829,-1.6659,-1.7838,-2.0162,-2.625,-2.606,-2.6113,-3.1503,-3.0422,-2.8697,-2.9211,0.0,0.0,0.0,0.0,0.0,0.0,0.0,0.0,0.0,0.0,0.0,0.0,0.0,0.0,0.0,0.0,0.0,0.0,-3.8768,-3.8311,-3.7584,-3.6806,-3.6417,-3.6417,-3.5893,-3.56,-3.56,-3.6163,-3.6688,-3.7155,-3.7155,-3.6907,-3.6417,-3.6417,-3.5977,-3.5261,-3.5498,-3.5447,-3.5245,-3.5245,-3.4835,-3.4236,-3.4236,-3.3822,-3.3323,0.0,0.0,0.0,0.0,0.0,0.0,0.0,0.0,-0.6203,-0.6203,-0.593,0.0,0.0,0.0,0.0,0.0,0.0,0.0,-0.8192,-0.8305,-0.8449,-0.8775,-0.8803,-0.8619,-0.8223,-0.82,-0.8,-0.759,-0.6869,-0.7158,-0.8386,-0.7388,-0.8098,-1.0145,-0.9086,-0.8943,-0.95,-0.9568,-0.9832,-1.0156,-0.9764,-0.9883,-1.037,0.0,0.0,0.0,0.0,0.0,0.0,0.0,-1.3198,-1.3053,-1.2271,-1.1999,-1.1905,-1.1458,-1.2028,-1.2656,-1.1991,-1.3709,-1.5818,-1.6389,-1.7745,-2.1017,-2.8865,-2.9436,-2.9692,-3.4604,-3.5008,-3.4489,-3.4489,-3.3931,0.0,0.0,0.0,0.0,0.0,0.0,0.0,0.0,0.0,0.0,0.0,0.0,0.0,0.0,0.0,0.0,0.0,-3.8294,-3.755,-3.6795,-3.6011,-3.56,-3.5583,-3.56,-3.56,-3.56,-3.56,-3.56,-3.56,-3.56,-3.56,-3.56,-3.5583,-3.516,-3.4539,-3.5261,-3.5143,-3.4489,-3.4489,-3.4032,-3.3406,-3.3406,-3.2993,-3.2496,0.0,0.0,0.0,0.0,0.0,0.0,0.0,0.0,-0.6767,-0.6767,-0.6667,0.0,0.0,0.0,0.0,0.0,0.0,0.0,-0.788,-0.8148,-0.8336,-0.8449,-0.8665,-0.8872,-0.9039,-0.8725,-0.8214,-0.7538,-0.7116,-0.7708,-0.9233,-0.8704,-0.907,-1.0195,-1.0264,-0.981,-0.9091,-1.0194,-1.03,-0.9727,-0.9889,-1.0272,-1.0741,0.0,0.0,0.0,0.0,0.0,0.0,0.0,0.0,0.0,-1.2364,-1.2048,-1.1953,-1.2747,-1.2561,-1.2302,-1.3229,-1.405,-1.5168,-1.7357,-2.018,-2.3391,-2.7163,-2.8641,-3.0471,-3.4905,-3.5121,-3.4363,-3.3951,-3.5759,0.0,0.0,0.0,0.0,0.0,0.0,0.0,0.0,0.0,0.0,0.0,0.0,0.0,0.0,0.0,0.0,0.0,-3.7252,-3.6541,-3.5216,-3.5453,-3.5346,-3.4827,-3.5329,-3.56,-3.56,-3.56,-3.56,-3.56,-3.56,-3.5339,-3.4861,-3.4409,-3.3813,-3.3183,-3.3346,-3.3835,-3.4438,-3.3931,-3.3592,-3.3406,-3.3406,-3.2735,-3.1866,0.0,0.0,0.0,0.0,0.0,0.0,0.0,0.0,-0.7,-0.7,-0.7,-0.6933,0.0,0.0,0.0,0.0,0.0,0.0,-0.8194,-0.8553,-0.8771,-0.8728,-0.9048,-0.9344,-0.9594,-0.912,-0.873,-0.8454,-0.7758,-0.8043,-0.9227,-0.8932,-0.9243,-1.0081,-1.0203,-0.9872,-0.9282,-1.0086,-1.0129,-0.9712,-0.9808,-1.0293,-1.0926,0.0,0.0,0.0,0.0,0.0,0.0,0.0,0.0,0.0,-1.2463,-1.2435,-1.2558,-1.2829,-1.3171,-1.3666,-1.4512,-1.5918,-1.7853,-2.0841,-2.3243,-2.5595,-2.8467,0.0,0.0,0.0,-3.6646,-3.592,-3.6131,-3.7487,0.0,0.0,0.0,0.0,0.0,0.0,0.0,0.0,0.0,0.0,0.0,0.0,0.0,0.0,0.0,0.0,0.0,-3.6485,-3.5757,-3.4523,-3.4928,-3.481,-3.4066,-3.5076,-3.5447,-3.5165,-3.5165,-3.5054,-3.4812,-3.5073,-3.4681,-3.3746,-3.2798,-3.2448,-3.2561,-3.1943,-3.2314,-3.3225,-3.2768,-3.2576,-3.2527,-3.2527,-3.1725,-3.0724,0.0,0.0,-0.5798,-0.6102,0.0,0.0,0.0,0.0,-0.7,-0.7,-0.7,-0.7,0.0,0.0,0.0,-0.7967,0.0,0.0,0.0,-0.9332,-0.9527,-0.941,-0.9723,-0.9905,-0.9905,-0.9415,-0.9415,-0.9905,-0.863,-0.8283,-0.8803,-0.8549,-0.8964,-0.988,-0.9491,-0.9541,-0.9893,-0.969,-0.9754,-0.9958,-0.9665,-1.0114,-1.1013,-1.1507,0.0,0.0,0.0,0.0,0.0,0.0,0.0,0.0,-1.2547,-1.2935,-1.331,-1.2169,-1.3727,-1.582,-1.5851,-1.8526,-2.2118,-2.5413,-2.6506,-2.7895,-3.221,-3.4067,-3.5891,-3.9294,0.0,-3.8345,-3.9842,-3.8988,-3.8531,0.0,0.0,0.0,0.0,0.0,0.0,0.0,0.0,0.0,0.0,0.0,0.0,0.0,0.0,0.0,0.0,-3.591,-3.5131,-3.432,-3.4353,-3.4049,-3.3322,-3.4687,-3.5042,-3.4387,-3.4387,-3.4046,-3.3423,-3.4169,-3.372,-3.2319,-3.0943,-3.1095,-3.2213,-3.0871,-3.0733,-3.1391,-3.1325,-3.1245,-3.119,-3.119,-3.0477,-2.9473,0.0,0.0,-0.5731,-0.5798,0.0,0.0,0.0,0.0,-0.7,-0.7,-0.7,-0.7,-0.7,-0.785,0.0,-0.8021,-0.8821,0.0,0.0,-0.9691,-0.993,-0.9495,-0.9746,-0.9905,-0.9905,-0.978,-0.978,-0.9905,-0.9191,-0.9117,-0.9641,-0.9579,-0.9679,-0.9931,-1.0709,-1.0635,-0.9956,-1.0776,-1.0659,-0.9911,-0.9844,-1.0467,-1.1461,-1.1582,-1.2221,0.0,0.0,0.0,0.0,0.0,0.0,0.0,-1.2448,-1.2385,-1.2434,-1.278,-1.361,-1.4929,-1.7253,-1.851,-2.0226,-2.4655,-2.8054,-3.1742,-3.722,-3.7436,-3.702,-3.8856,-3.8514,-3.8345,-3.9842,-3.9842,0.0,0.0,0.0,0.0,0.0,0.0,0.0,0.0,0.0,0.0,0.0,0.0,0.0,0.0,0.0,0.0,-3.5013,-3.4827,-3.4117,-3.2818,-3.3322,-3.3271,-3.2547,-3.3423,-3.3795,0.0,-3.3643,-3.3056,-3.1982,-3.3156,-3.2674,-3.0886,-2.9568,-2.9479,-3.0181,-2.9295,-2.9904,-3.1341,-3.0759,-3.0812,-3.119,-3.119,-3.074,-3.0038,0.0,0.0,0.0,0.0,0.0,0.0,0.0,0.0,-0.7112,-0.7384,-0.7426,-0.753,-0.7786,-0.8565,0.0,0.0,-0.9459,-0.9756,-0.9309,-0.9894,-1.0108,-0.9753,-1.009,-1.0156,-0.9905,-0.9905,-0.9905,-0.9905,-1.011,-1.0172,-1.0148,-1.047,-1.0573,-1.0546,-1.1219,-1.1057,-1.032,-1.0634,-1.0445,-0.9931,-1.0181,-1.0809,-1.164,-1.1889,-1.2488,-1.3163,-1.2925,0.0,0.0,0.0,0.0,0.0,0.0,0.0,-1.2592,-1.2624,-1.3277,-1.4421,-1.6347,-1.8725,-2.1969,-2.7514,0.0,-3.5669,-3.8062,-3.8547,-3.869,-3.9378,-3.9208,-3.9174,-3.996,0.0,0.0,0.0,0.0,0.0,0.0,0.0,0.0,0.0,0.0,0.0,0.0,0.0,0.0,0.0,0.0,-3.5278,-3.4539,-3.4167,-3.3457,-3.2344,-3.2662,-3.253,-3.1785,-3.2865,-3.3077,-3.2436,-3.2436,-3.1764,-3.0517,-3.0917,-3.0712,-2.9993,-2.8687,-2.8494,-2.9047,-2.8015,-2.8545,-2.9961,-2.9562,-2.9959,-3.076,-3.076,-3.0393,-2.9734,0.0,0.0,0.0,0.0,0.0,0.0,0.0,0.0,0.0,-0.7974,-0.8036,-0.8201,-0.8655,-0.9179,-0.9498,0.0,0.0,0.0,-0.9747,-1.0021,-1.0169,-1.0058,-1.0334,-1.028,-0.9815,-0.9815,-0.9867,-0.9983,-1.0939,-1.1282,-1.1083,-1.1482,-1.1573,-1.1408,-1.1517,-1.1246,-1.0682,-1.0345,-1.0194,-1.0232,-1.0682,-1.1211,-1.1791,-1.2241,-1.2739,-1.3181,-1.3112,-1.2826,-1.2508,-1.2508,0.0,0.0,0.0,0.0,-1.2631,-1.1887,-1.2685,-1.404,-1.497,-1.931,-2.498,-3.0812,-3.5017,0.0,-3.7394,-3.8422,-3.9488,-3.9834,-4.0011,-4.0096,-4.0096,0.0,0.0,0.0,0.0,0.0,0.0,0.0,0.0,0.0,0.0,0.0,0.0,0.0,0.0,0.0,0.0,-3.4912,-3.415,-3.3541,-3.2865,-3.2141,-3.2107,-3.1819,-3.1207,-3.2191,-3.2144,-3.1028,-3.0817,-3.0091,-2.8891,-2.8564,-2.8767,-2.9323,-2.8102,-2.7826,-2.8132,-2.7018,-2.7189,-2.8179,-2.8335,-2.9113,-3.0149,-3.026,-2.9913,-2.9201,0.0,0.0,0.0,0.0,0.0,0.0,0.0,0.0,0.0,0.0,-0.8594,-0.8614,-0.8695,-0.9179,-0.9498,-0.9498,-1.0,-1.0273,-1.0215,0.0,0.0,-1.0249,-0.9871,-0.9606,-0.9473,-0.9474,-0.9751,-1.0335,-1.1057,-1.2192,-1.368,-1.3082,-1.2592,-1.2241,-1.2269,-1.1683,-1.0733,-1.1173,-1.1377,-1.1389,-1.1452,-1.1814,-1.23,-1.2363,-1.2739,-1.3146,-1.2738,-1.2561,-1.2508,-1.2508,-1.2182,0.0,0.0,0.0,-1.101,-1.0433,-1.1675,-1.3567,-1.5191,-2.0636,-2.6751,0.0,-3.1955,-3.3606,0.0,0.0,-3.7043,0.0,-3.9673,-4.0096,0.0,0.0,0.0,0.0,0.0,0.0,0.0,0.0,0.0,0.0,0.0,0.0,0.0,0.0,0.0,0.0,-3.4049,-3.3372,-3.2632,-3.2496,-3.2124,-3.136,-3.1343,-3.1292,-3.119,-3.0306,-2.9761,-2.9564,-2.8519,-2.7621,-2.6901,-2.7479,-2.8012,-2.8417,-2.7736,-2.7142,-2.6665,-2.6503,-2.6562,-2.6872,-2.7969,-2.882,-2.9497,-3.01,-2.9877,-2.9153,0.0,0.0,0.0,0.0,0.0,0.0,0.0,0.0,0.0,0.0,0.0,-0.9259,-0.9558,-0.9804,-0.9942,-0.9942,-1.0157,-1.0303,-1.0303,-1.0523,-1.0523,-1.0265,-1.0052,-0.9871,-0.9739,-0.9524,-0.9725,-1.0396,-1.1263,-1.2923,-1.5325,-1.561,-1.5466,-1.4963,-1.4699,-1.3831,-1.2537,-1.219,-1.1864,-1.1628,-1.1927,-1.2015,-1.2015,-1.2613,-1.2814,-1.2718,-1.2517,-1.2466,-1.2461,-1.2146,-1.2087,-1.2111,-1.1838,0.0,0.0,0.0,-1.1225,-1.2884,-1.6815,-1.9543,-2.2867,0.0,-3.0019,-3.0439,-3.6403,-3.6249,-3.5502,-3.7877,-3.8633,0.0,0.0,0.0,0.0,0.0,0.0,0.0,0.0,0.0,0.0,0.0,0.0,0.0,0.0,0.0,0.0,0.0,-3.3592,-3.3085,-3.2344,-3.2293,-3.1972,-3.1207,-3.119,-3.0853,-3.0139,-2.9569,-2.8768,-2.7721,-2.6854,-2.6283,-2.6001,-2.6341,-2.6598,-2.6779,-2.6893,-2.6563,-2.5925,-2.5546,-2.5629,-2.6085,-2.6883,-2.7646,-2.8318,-2.8553,-2.8485,-2.8071,0.0,0.0,0.0,0.0,0.0,0.0,0.0,0.0,0.0,0.0,0.0,-0.9863,-1.0264,0.0,0.0,0.0,-1.0486,-1.0486,-1.0486,-1.0924,-1.0864,-1.008,-1.0222,-1.025,-1.0077,-0.965,-0.9803,-1.0608,-1.1471,-1.3285,-1.5981,-1.7409,-1.8007,-1.7887,-1.7148,-1.5911,-1.4367,-1.3535,-1.2909,-1.247,-1.2868,-1.2617,-1.209,-1.2902,-1.2877,-1.24,-1.24,-1.2337,-1.2222,-1.1969,-1.2053,-1.2214,-1.1872,-1.1609,0.0,0.0,0.0,-1.2033,-1.6683,-1.7421,-1.8726,-2.641,-2.6685,-2.6716,0.0,0.0,-3.3366,0.0,-3.6989,0.0,0.0,0.0,0.0,0.0,0.0,0.0,0.0,0.0,0.0,0.0,0.0,0.0,0.0,0.0,0.0,0.0,-3.2949,-3.2594,-3.2056,-3.2022,-3.1769,-3.1207,-3.1021,-3.0401,-2.932,-2.8661,-2.7475,-2.5749,-2.5485,-2.5247,-2.5106,-2.545,-2.542,-2.5136,-2.5944,-2.59,-2.5251,-2.4753,-2.4754,-2.5175,-2.5827,-2.6461,-2.6996,-2.7083,-2.7054,-2.6769,0.0,0.0,0.0,0.0,0.0,0.0,0.0,0.0,0.0,0.0,0.0,-1.0264,-1.0303,-1.0303,-1.0486,-1.0924,-1.0962,-1.0962,-1.0962,-1.1468,-1.1132,-0.9703,-1.0121,0.0,-1.0289,-0.9765,-1.004,-1.1149,-1.1651,-1.3051,-1.5298,-1.7511,-1.9242,-2.0336,-1.8859,-1.7229,-1.561,-1.5433,-1.5099,-1.472,-1.4758,-1.4099,-1.3123,-1.3173,-1.2877,-1.24,-1.24,-1.2087,-1.172,-1.2209,-1.203,-1.1644,-1.1699,-1.1314,-1.0743,0.0,0.0,0.0,-1.2913,-1.4587,0.0,-1.9696,-2.0478,-2.1661,0.0,0.0,0.0,0.0,0.0,0.0,0.0,0.0,0.0,0.0,0.0,0.0,0.0,0.0,0.0,0.0,0.0,0.0,0.0,0.0,0.0,0.0,-3.1718,-3.1292,-3.1258,-3.1258,-3.1241,-3.119,-3.0531,-2.9878,-2.9303,-2.6903,-2.5031,-2.3758,-2.4358,-2.4321,-2.3744,-2.5031,-2.4911,-2.3766,-2.4937,-2.5064,-2.4457,-2.4426,-2.413,-2.3824,-2.5053,-2.5565,-2.5683,-2.6312,-2.6134,-2.5499,0.0,0.0,0.0,0.0,0.0,0.0,0.0,0.0,0.0,0.0,0.0,0.0,0.0,-1.0582,-1.0706,-1.0553,-1.0829,-1.1151,-1.1486,-1.1375,-1.1206,-1.1016,-1.062,-1.0647,-1.1193,-1.0382,-1.0359,-1.1202,-1.1027,-1.2072,-1.4282,-1.6208,-1.7589,-1.8478,-1.9863,-1.9509,-1.7874,-1.7917,-1.675,-1.4909,-1.5741,-1.4699,-1.271,-1.3073,-1.3565,-1.3838,0.0,0.0,0.0,0.0,0.0,0.0,0.0,0.0,0.0,0.0,0.0,-1.1121,0.0,0.0,0.0,-1.7786,-1.7284,-1.7152,-2.2549,-2.4995,-2.6521,-2.7958,0.0,0.0,0.0,0.0,0.0,0.0,0.0,0.0,0.0,0.0,0.0,0.0,0.0,0.0,0.0,0.0,0.0,0.0,0.0,-2.9875,-3.114,-3.0012,-2.9538,-2.9962,-2.9729,-2.8701,-2.6866,-2.5141,-2.4057,-2.3595,-2.3849,-2.3834,-2.361,-2.4103,-2.4059,-2.361,-2.4066,-2.4106,-2.39,-2.39,-2.3773,-2.3674,-2.4481,-2.4866,-2.4945,-2.5105,-2.5044,-2.4827,0.0,0.0,0.0,0.0,0.0,-1.022,-1.0263,-1.0666,-1.0933,-1.0829,0.0,0.0,0.0,0.0,-1.0702,-1.0511,-1.11,-1.1541,-1.176,-1.1588,-1.1493,-1.1542,-1.1119,-1.1045,-1.1426,-1.0607,-1.0454,-1.1026,-1.0611,-1.1361,-1.3221,-1.4961,-1.6258,-1.7273,-1.9718,-2.0267,-1.9347,-1.9644,-1.855,-1.6631,-1.7265,-1.641,-1.4796,-1.5156,-1.568,0.0,0.0,0.0,0.0,0.0,0.0,0.0,0.0,0.0,0.0,0.0,0.0,0.0,-1.1872,0.0,0.0,0.0,-1.4276,-1.3861,-1.8377,0.0,-2.3449,-2.4489,0.0,0.0,0.0,0.0,0.0,0.0,0.0,0.0,0.0,0.0,0.0,0.0,0.0,0.0,0.0,0.0,0.0,0.0,0.0,0.0,-3.0185,-2.9224,-2.8483,-2.8229,-2.8267,-2.705,-2.4486,-2.3688,-2.3295,-2.3295,-2.3295,-2.34,-2.3595,-2.3595,-2.3595,-2.3595,-2.3595,-2.3595,-2.3595,-2.3595,-2.3595,-2.3638,-2.3991,-2.4195,-2.4245,-2.4158,-2.4188,-2.4201,0.0,0.0,-0.9825,-1.0809,-1.0558,-1.0573,-1.1578,-1.1291,-1.111,-1.1673,0.0,0.0,0.0,0.0,0.0,-1.0878,-1.1819,-1.2201,-1.1764,-1.2156,-1.1995,-1.1092,-1.1512,-1.1498,-1.092,-1.0388,-1.029,-1.0694,-1.047,-1.0978,-1.2171,-1.3836,-1.5457,-1.7043,-1.8412,-1.9293,-1.9787,-2.0457,-2.0464,-1.999,-1.944,-1.9293,-1.9365,-1.9379,0.0,0.0,-1.9308,-1.8375,0.0,-1.7436,0.0,0.0,0.0,0.0,0.0,0.0,0.0,0.0,0.0,0.0,0.0,0.0,0.0,0.0,-1.3586,0.0,-2.0617,0.0,0.0,0.0,0.0,0.0,0.0,0.0,0.0,0.0,0.0,0.0,0.0,0.0,0.0,0.0,0.0,0.0,0.0,0.0,-2.8303,-2.8319,-2.8361,-2.8816,-2.8151,-2.6114,-2.6131,-2.4953,-2.2394,-2.2576,-2.2673,-2.2673,-2.2688,-2.3017,-2.3565,-2.3595,-2.3595,-2.3595,-2.358,-2.3565,-2.3565,-2.3595,-2.3595,-2.3595,-2.3595,-2.3595,-2.3595,-2.3595,-2.3595,-2.3595,0.0,-0.9498,-0.9692,-1.0305,-1.0588,-1.0688,-1.0587,-1.1092,-1.1177,0.0,0.0,0.0,-0.9513,-0.9633,-1.0262,-1.1449,-1.1806,-1.2195,-1.2756,-1.2589,-1.2354,-1.209,-1.1586,-1.1221,-1.1041,-1.0478,-1.0238,-1.0341,-1.013,-1.0199,-1.0557,-1.1762,-1.2958,-1.4219,-1.6288,-1.7677,-1.8555,-2.0567,-2.0348,-1.8827,-2.0989,-2.057,-1.8734,0.0,0.0,0.0,0.0,-1.7989,-1.8441,0.0,-1.6094,-1.3904,0.0,0.0,0.0,0.0,0.0,0.0,-0.973,0.0,0.0,0.0,0.0,0.0,-1.1316,-1.4488,-1.7344,0.0,0.0,0.0,0.0,0.0,0.0,0.0,0.0,0.0,0.0,0.0,0.0,0.0,0.0,0.0,0.0,0.0,0.0,0.0,-2.6376,-2.6187,-2.7602,-2.6484,-2.5532,-2.4962,-2.3661,-2.2624,-2.1901,-2.1954,-2.1984,-2.1979,-2.2463,-2.2793,-2.2957,-2.3385,-2.3595,-2.358,-2.3152,-2.2957,-2.2987,-2.3415,-2.3595,-2.3595,-2.3595,-2.3595,-2.3595,-2.3595,-2.3595,-2.3595,-0.9728,-0.9843,-1.0051,-1.0753,-1.0896,-1.1007,-1.1332,-1.173,-1.1633,0.0,0.0,0.0,-0.9687,-0.993,-1.045,-1.1072,-1.1317,-1.1656,-1.2198,-1.199,-1.1836,-1.1861,-1.1538,-1.1162,-1.074,-1.0764,-1.0564,-1.0113,-1.0205,-1.0231,-1.0244,-1.1087,-1.2039,-1.3072,-1.4694,-1.5915,-1.6874,-1.9207,-1.9967,-1.9729,-2.1342,-2.176,0.0,-2.1837,-2.233,0.0,0.0,0.0,-2.1718,-2.0834,-1.8498,-1.561,-1.3627,-1.243,0.0,0.0,0.0,0.0,0.0,0.0,0.0,0.0,0.0,0.0,-1.0939,-1.343,-1.5698,0.0,-1.9395,0.0,0.0,0.0,0.0,0.0,0.0,0.0,0.0,0.0,0.0,0.0,0.0,0.0,0.0,-2.5994,-2.5931,-2.6223,-2.4925,-2.4828,-2.6472,-2.5143,-2.4104,-2.3631,-2.2751,-2.1839,-2.0876,-2.1141,-2.1291,-2.1291,-2.1949,-2.2433,-2.2718,-2.331,-2.3595,-2.358,-2.3242,-2.3077,-2.3107,-2.3445,-2.3445,-2.3236,-2.349,-2.3595,-2.3595,-2.3595,-2.3595,-2.3595,0.0,-1.0303,-1.0592,-1.1458,-1.1173,-1.1314,-1.2817,-1.2618,-1.2222,0.0,-1.1849,-1.1508,-1.0662,-1.0852,-1.0872,-1.0497,-1.0794,-1.1012,-1.1058,-1.1102,-1.1122,-1.1082,-1.1419,-1.115,-1.015,-1.0942,-1.0912,-0.9932,-1.0446,-1.0694,-1.0706,-1.1324,-1.2119,-1.3043,-1.3648,-1.4406,-1.5348,-1.7202,-1.9294,-2.1362,-2.1117,-2.2766,0.0,0.0,-2.5839,-2.6267,-2.7001,-2.6393,-2.5158,-2.444,-2.171,-1.8317,-1.6664,-1.4932,-1.3391,0.0,-1.2376,0.0,0.0,0.0,0.0,0.0,-1.0432,0.0,-1.1519,-1.3189,-1.4897,-1.6326,-1.8361,0.0,0.0,0.0,0.0,0.0,0.0,0.0,0.0,0.0,0.0,0.0,0.0,0.0,-2.4402,-2.3744,-2.364,-2.4231,-2.3744,-2.3855,-2.4939,-2.4175,-2.3264,-2.2229,-2.2537,-2.1748,-1.9708,-2.0288,-2.0583,-2.0598,-2.1276,-2.1889,-2.2508,-2.3101,-2.343,-2.349,-2.3415,-2.3385,-2.3385,-2.3475,-2.3206,-2.2853,-2.3385,-2.3595,-2.3595,-2.3595,-2.3595,-2.3595,-1.0215,-1.0303,-1.0338,-1.05,-1.0407,-1.071,-1.182,-1.1895,-1.1996,-1.2456,-1.2242,-1.2119,-1.2289,-1.1621,-1.1419,-1.2074,-1.177,-1.1711,-1.2085,-1.2412,-1.2271,-1.1585,-1.1283,-1.0688,-0.9745,-0.9847,-0.9777,-0.9524,-1.0303,-1.0694,-1.0706,-1.1324,-1.2162,-1.3183,-1.3793,-1.4824,-1.6118,-1.6963,-1.8087,-1.958,-2.2049,-2.3415,-2.4103,-2.5196,-2.4702,-2.3616,-2.4777,-2.4358,-2.3103,-2.2054,-2.0878,-1.9378,-1.6729,-1.5609,0.0,-1.3026,0.0,0.0,0.0,0.0,0.0,0.0,0.0,0.0,-1.0552,-1.1459,-1.2746,0.0,-1.4227,0.0,0.0,0.0,0.0,0.0,0.0,0.0,0.0,0.0,0.0,0.0,0.0,0.0,-2.2298,-2.2143,-2.2113,-2.2263,-2.2143,-2.2174,-2.241,-2.1754,-2.1254,-2.1039,-2.0606,-2.0146,-1.9708,-1.9842,-1.9884,-1.9884,-2.0572,-2.0957,-2.1111,-2.1769,-2.2353,-2.2853,-2.2293,-2.2069,-2.2113,-2.2658,-2.3092,-2.343,-2.355,-2.3595,-2.3595,-2.3595,-2.3595,-2.3595,-0.9854,-0.9795,-0.9853,-1.0495,-1.043,-1.0709,-1.1866,-1.23,-1.2632,-1.299,-1.3104,-1.3136,-1.31,-1.2558,-1.2208,-1.2259,-1.2189,-1.2149,-1.2149,-1.2523,-1.2561,-1.213,-1.1593,-1.1102,-1.0667,-1.1107,-1.1212,-1.0954,-1.1622,-1.1808,-1.1548,-1.1864,-1.2291,-1.2852,-1.3991,-1.502,-1.6,-1.7466,-1.8733,-1.9888,-2.1501,0.0,-2.3281,-2.459,-2.4694,-2.4223,-2.4881,-2.4455,-2.3513,-2.26,-2.1748,0.0,-1.9233,-1.7782,-1.6295,0.0,-1.3835,-1.3352,0.0,0.0,0.0,-1.1623,0.0,0.0,0.0,-1.1699,-1.243,-1.323,-1.3738,0.0,0.0,0.0,0.0,0.0,0.0,0.0,0.0,0.0,0.0,0.0,0.0,0.0,-2.1695,-2.1395,-2.1201,-2.1201,-2.1515,-2.1695,-2.1695,-2.125,-2.0906,-2.0722,-2.0237,-1.9909,-1.9708,-1.9708,-1.9708,-1.9708,-2.0722,-2.1017,-2.0733,-2.2054,-2.2673,-2.2703,-2.2652,-2.2652,-2.2667,-2.2996,-2.3325,-2.3595,-2.3595,-2.3595,-2.3595,-2.3595,-2.3595,-2.3595,-0.9524,-0.9474,-0.9706,-1.0791,-1.0702,-1.0957,-1.2335,-1.2808,-1.3216,-1.377,-1.4415,-1.4781,-1.4697,-1.4009,-1.3416,-1.3123,-1.2966,-1.2796,-1.2552,-1.2838,-1.2998,-1.2947,-1.2258,-1.1897,-1.2002,-1.2694,-1.2927,-1.2632,-1.3012,-1.2989,-1.2551,-1.2551,-1.263,-1.278,-1.4142,-1.5306,-1.6357,-1.8309,-1.9826,-2.0906,0.0,-2.1904,-2.3017,-2.4291,-2.4963,-2.5211,-2.5211,-2.4881,-2.4306,-2.3655,-2.2816,-2.1958,-2.1495,-1.9784,0.0,0.0,0.0,0.0,0.0,0.0,0.0,0.0,0.0,-1.1789,0.0,0.0,0.0,0.0,0.0,0.0,0.0,0.0,0.0,0.0,0.0,0.0,0.0,0.0,0.0,0.0,0.0,0.0,-2.0737,-2.0359,-2.0225,-2.0498,-2.1006,-2.1306,-2.1306,-2.1112,-2.0825,-2.0513,-2.0289,-2.0035,-1.9708,-1.9708,-1.9708,-1.9708,-2.0917,-2.1156,-2.0554,-2.2398,-2.2966,-2.2538,-2.3167,-2.343,-2.343,-2.355,-2.3535,-2.343,-2.355,-2.3595,-2.3595,-2.3595,-2.3595,-2.3595,-0.9583,-1.0186,-1.0723,-1.0882,-1.0872,-1.1369,-1.2879,-1.247,-1.2803,-1.513,-1.6371,-1.7614,-1.9169,-1.6614,-1.5499,-1.7242,-1.5278,-1.4182,-1.4786,-1.4873,-1.4806,-1.4631,-1.3471,-1.2925,-1.3103,-1.2748,-1.277,-1.3129,-1.3163,-1.3173,-1.311,-1.311,-1.3396,-1.3927,-1.4116,-1.5931,-1.8895,-1.9155,-2.0174,0.0,-2.2829,-2.3355,0.0,-2.4986,-2.4807,-2.3834,-2.3834,-2.3774,-2.3625,0.0,-2.2706,-2.2325,0.0,-1.9801,-1.9009,-1.6861,0.0,0.0,0.0,0.0,0.0,0.0,-1.4435,0.0,0.0,0.0,-1.2224,-1.1646,0.0,0.0,0.0,0.0,0.0,0.0,0.0,0.0,0.0,0.0,0.0,0.0,0.0,0.0,0.0,-1.7727,-1.8536,-1.9705,-1.9887,-1.9932,-1.9932,-1.9912,-1.9867,-1.9828,-1.9774,-1.9747,-1.9708,-1.9708,-1.9708,-1.9708,-2.0468,-2.0468,-1.9872,-2.1261,-2.1874,-2.1844,-2.2523,-2.2808,-2.2838,-2.337,-2.3266,-2.2868,-2.3385,-2.3595,-2.3595,-2.3595,-2.3595,-2.3595,-1.0059,-1.0079,-1.0381,-1.1173,-1.1105,-1.1355,-1.2508,-1.4355,-1.6006,-1.707,-1.8542,-2.0078,-2.1616,-1.9914,-1.9158,-2.0372,-1.9407,-1.8375,0.0,-1.6811,-1.6382,-1.6314,-1.4586,-1.3812,-1.4156,-1.403,-1.4177,-1.4644,-1.4337,-1.4186,-1.4174,-1.3516,-1.3521,-1.4147,-1.508,-1.6698,-1.883,-2.0549,-2.1859,0.0,0.0,-2.3622,0.0,-2.386,-2.3559,-2.3076,-2.3084,-2.3295,-2.3445,0.0,-2.2862,0.0,0.0,0.0,0.0,0.0,0.0,0.0,0.0,0.0,0.0,0.0,0.0,0.0,-1.4424,0.0,-1.1935,0.0,0.0,0.0,0.0,0.0,0.0,0.0,-1.3044,0.0,0.0,0.0,0.0,0.0,0.0,0.0,0.0,0.0,0.0,0.0,-1.8553,-1.8553,-1.8553,-1.9271,-1.9708,-1.9708,-1.9708,-1.9708,-1.9708,-1.9708,-1.9708,-1.9708,-2.0378,-2.0348,-1.9768,-2.149,-2.2074,-2.1734,-2.2399,-2.2906,-2.3178,-2.2707,-2.2589,-2.2681,-2.2565,-2.2733,-2.3031,-2.2628,-2.25,-2.2546,-1.085,-1.0546,-1.0675,-1.1802,-1.1768,-1.1894,-1.2871,-1.6375,-1.8966,-1.9037,-2.0502,-2.215,-2.3801,-2.2512,-2.2074,-2.3444,-2.3149,-2.2206,0.0,0.0,-1.8607,-1.825,-1.5963,-1.5043,-1.5724,-1.5529,-1.5573,-1.5919,-1.5387,-1.511,-1.5085,-1.3804,-1.3684,-1.4569,-1.5585,-1.7064,-1.8952,0.0,-2.2749,-2.3555,-2.3598,-2.3317,-2.2866,-2.2553,-2.2543,-2.2696,-2.2498,-2.2826,-2.3156,-2.188,-2.2505,0.0,-2.126,0.0,0.0,0.0,0.0,0.0,-1.7188,0.0,0.0,0.0,0.0,0.0,0.0,0.0,0.0,0.0,0.0,0.0,0.0,0.0,0.0,0.0,0.0,-1.2515,0.0,0.0,0.0,0.0,0.0,0.0,0.0,0.0,0.0,0.0,0.0,-1.7788,-1.7968,-1.9076,-1.9765,-1.9959,-1.9813,-1.9708,-1.9708,-1.9708,-1.9798,-1.9974,-2.0483,-2.0453,-2.0019,-2.153,-2.1841,-2.1232,-2.1924,-2.2457,-2.279,-2.2016,-2.1993,-2.2346,-2.1724,-2.1748,-2.2151,-2.1805,-2.1697,-2.1805,-1.2057,-1.2135,-1.2299,-1.2932,-1.3045,-1.3455,-1.4626,-1.7891,-2.0423,-2.0943,-2.2076,-2.3776,-2.6217,-2.3847,0.0,0.0,0.0,-2.4641,-2.3978,0.0,-2.189,0.0,0.0,-1.6798,-1.8056,-1.7005,-1.6475,-1.6475,-1.5944,-1.5668,-1.563,-1.398,-1.408,-1.5633,-1.5084,-1.6791,-2.008,-2.0695,-2.1954,-2.3517,-2.3562,-2.2503,-2.0932,0.0,-2.2123,-2.2626,-2.1955,0.0,0.0,-2.1262,-2.1231,0.0,0.0,0.0,0.0,0.0,0.0,0.0,0.0,0.0,0.0,-1.8153,0.0,0.0,0.0,0.0,-1.3858,0.0,0.0,0.0,0.0,0.0,0.0,0.0,0.0,0.0,0.0,0.0,0.0,0.0,0.0,0.0,0.0,0.0,0.0,0.0,-1.7012,-1.7983,-1.8625,-1.9316,-1.9989,-2.0643,-2.0034,-1.9708,-1.9708,-1.9708,-2.0019,-2.0658,-2.0688,-2.0688,-2.0669,-2.0869,-2.0587,-2.0007,-2.0665,-2.0973,-2.1014,-2.1499,-2.1697,-2.1687,-2.1077,-2.0845,-2.0944,-2.1496,-2.1697,-2.1805,-1.3717,-1.3317,-1.3278,-1.3965,-1.4134,-1.4832,-1.6839,-1.9582,-2.2252,-2.457,-2.6325,0.0,0.0,-3.117,-3.0528,0.0,0.0,-2.9406,-2.6647,-2.5214,0.0,0.0,0.0,-1.9268,0.0,-1.8168,-1.7603,-1.65,-1.5969,-1.5693,-1.568,-1.4771,-1.4833,-1.5721,-1.5853,-1.6998,0.0,0.0,0.0,0.0,0.0,-2.1587,-2.0635,0.0,-2.1248,-2.1465,-2.1639,-2.1852,0.0,-2.1093,-2.1494,-2.2199,-2.1414,-2.1494,-2.183,-2.1712,-2.0809,0.0,0.0,0.0,-2.0569,-2.0847,0.0,0.0,0.0,0.0,0.0,0.0,0.0,0.0,0.0,0.0,0.0,0.0,0.0,0.0,0.0,0.0,0.0,0.0,0.0,0.0,0.0,0.0,0.0,0.0,-1.4537,0.0,-1.5441,-1.773,-1.8942,-1.873,-1.9794,-2.0154,-1.9708,-2.0139,-2.0483,-2.0703,-2.1156,-2.1139,-2.0729,-2.1217,-2.087,-1.9936,-2.0564,-2.0646,-2.0346,-2.0049,-1.993,-1.995,-1.9697,-1.9608,-1.9671,-2.0241,-2.0446,-2.0595,-1.4626,-1.4053,-1.4031,-1.5014,-1.5934,-1.7272,-1.9257,-2.2092,-2.5082,0.0,-2.9954,0.0,-3.5502,0.0,-3.4453,0.0,-3.402,-3.2537,-2.9572,-2.7366,0.0,-2.4235,-2.2268,0.0,0.0,0.0,0.0,-1.7666,-1.6547,-1.6195,-1.6559,-1.5437,-1.5286,-1.6003,-1.6362,-1.6953,-1.7895,-2.0275,-2.1492,0.0,0.0,-2.1281,0.0,0.0,-2.0825,-2.1324,0.0,-2.1183,-2.1287,-2.0646,-2.1267,-2.2164,-2.1433,-2.193,-2.2709,-2.2404,-2.1847,-2.1459,-2.1935,-2.1863,0.0,-2.2023,-2.0836,0.0,-1.8727,0.0,0.0,0.0,0.0,0.0,0.0,0.0,0.0,0.0,0.0,0.0,0.0,-1.0323,0.0,0.0,0.0,0.0,0.0,0.0,0.0,-1.2526,-1.3023,-1.3559,0.0,-1.6817,-1.8356,-1.8401,-1.9675,-2.0363,-2.0412,-2.0602,-2.0946,-2.141,-2.1605,-2.1604,-2.1412,-2.1405,-2.0756,-1.9639,-2.002,-1.9917,-1.94,-1.9121,-1.9037,-1.9061,-1.9016,-1.9008,-1.9058,-1.961,-1.9952,-2.0244,-1.4821,-1.4419,-1.4682,-1.6066,-1.8424,-2.0533,-2.1827,0.0,-2.8684,0.0,-3.2916,-3.4517,-3.6477,-3.5597,-3.5297,-3.6387,-3.531,-3.3932,-3.2544,-2.9456,0.0,0.0,-2.2945,-2.1501,-2.2334,0.0,0.0,0.0,-1.7677,-1.7152,-1.8154,-1.599,-1.553,-1.6534,-1.6497,-1.6728,-1.7252,-1.9582,-2.0527,-2.0506,-2.1164,-2.1481,-2.1415,-2.0279,-2.0883,-2.2177,-2.0409,-2.0194,-2.0646,-2.0003,-2.0539,-2.1395,-2.0893,-2.1782,-2.2932,-2.2456,-2.2681,-2.307,-2.3095,-2.2719,-2.2234,-2.1707,0.0,0.0,0.0,0.0,-1.8882,0.0,0.0,0.0,0.0,0.0,0.0,0.0,0.0,0.0,0.0,0.0,0.0,0.0,0.0,0.0,0.0,0.0,-1.171,-1.129,-1.2454,-1.362,0.0,-1.6547,-1.8205,-1.9513,-1.9612,-2.0288,-2.164,-2.0987,-2.1335,-2.2688,-2.2059,-2.2084,-2.2655,-2.1482,-2.0285,-1.9149,-1.915,-1.877,-1.8228,-1.8794,-1.8983,-1.8958,-1.8995,-1.902,-1.9096,-1.9623,-2.0207,-2.0667,-1.5174,-1.5667,-1.6642,-1.7859,-1.9922,-2.2004,0.0,0.0,0.0,0.0,-3.6163,-3.8272,-3.929,-3.9529,-3.8766,-3.6671,-3.5583,0.0,0.0,0.0,0.0,-2.9395,-2.7604,-2.5469,-2.2962,-2.2786,-2.1769,-1.9798,0.0,-1.8293,-1.8179,-1.676,-1.6484,-1.7159,-1.6697,-1.6744,-1.7306,-1.9206,-2.0475,-2.1177,-2.0839,-2.1243,-2.1975,0.0,-2.1158,-2.2109,-2.0404,-1.9901,-2.0029,-1.985,-2.0275,-2.0943,-2.1219,-2.1568,-2.2046,-2.2694,-2.2706,-2.2581,-2.2995,-2.2995,-2.2857,-2.2719,-2.1995,-2.1119,0.0,0.0,0.0,0.0,0.0,0.0,0.0,0.0,0.0,0.0,0.0,0.0,0.0,0.0,0.0,-1.058,0.0,0.0,0.0,-1.047,-1.0483,-1.0631,-1.1183,-1.1987,-1.3025,0.0,-1.6723,-1.766,-1.8504,-1.9609,-2.0944,-2.029,-2.0891,-2.2703,-2.2523,-2.2532,-2.2673,-2.1859,-2.0855,-1.9686,-1.9644,-1.9088,-1.8237,-1.8787,-1.877,-1.8431,-1.8845,-1.9233,-1.9623,-1.9748,-1.9901,-2.0105,-1.5927,-1.6657,-1.7757,-1.8567,0.0,0.0,-2.6232,-2.9229,0.0,-3.5759,-3.7808,0.0,-4.0292,-4.0726,-4.0217,-3.8362,-3.6089,0.0,-3.4585,0.0,0.0,-3.1199,-2.9396,-2.7111,-2.4498,-2.3892,0.0,-2.0903,0.0,-1.8958,-1.8882,-1.7526,-1.7074,-1.7373,-1.6773,-1.6757,-1.7308,-1.9001,-2.0888,-2.2628,-2.1636,-2.1786,0.0,-2.1355,-2.1361,-2.1794,-2.0614,-2.0012,-1.9798,-1.9798,-2.0351,-2.1018,-2.0815,-2.1418,-2.2234,-2.2343,-2.2506,-2.2706,-2.302,-2.3108,-2.3108,-2.3108,-2.2644,-2.2071,-2.1506,-2.1129,-2.0727,0.0,0.0,0.0,0.0,0.0,0.0,0.0,0.0,0.0,0.0,0.0,0.0,0.0,-1.0205,0.0,0.0,-0.979,-0.988,-1.0359,-1.0569,-1.1184,0.0,0.0,-1.5977,-1.6845,-1.8343,-1.9489,-2.0255,-1.9886,-2.0561,-2.2269,-2.2269,-2.2545,-2.3084,-2.271,-2.1888,-2.076,-2.0416,-1.98,-1.9005,-1.8999,-1.882,-1.8569,-1.8882,-1.9183,-1.9497,-1.971,-1.9798,-1.985,-1.6965,-1.7582,-1.8476,-1.9063,0.0,0.0,0.0,-3.1652,0.0,-3.7958,0.0,-3.9155,-4.0157,-4.0352,-4.0337,-4.0157,0.0,-3.4971,-3.6518,-3.2252,-3.0545,-3.2605,-3.0071,-2.7954,-2.6543,-2.4705,-2.3371,0.0,-2.0412,-1.9559,-1.9987,-1.8279,-1.7549,-1.7564,-1.6999,-1.7079,0.0,-1.9159,-2.1405,-2.3947,-2.2782,-2.2572,-2.2909,-2.2023,-2.1682,-2.1531,-2.1081,-2.044,-1.9811,-1.9886,-2.0614,-2.133,-2.0413,-2.1468,-2.2832,-2.197,-2.2334,-2.3007,-2.3083,-2.3108,-2.3108,-2.3108,-2.3108,-2.2982,-2.2493,-2.2393,-2.2393,-2.2393,-2.1594,-2.0729,0.0,0.0,0.0,0.0,0.0,0.0,0.0,0.0,0.0,0.0,0.0,0.0,0.0,0.0,-0.9634,-1.0235,-1.0347,-1.0965,0.0,0.0,-1.548,-1.6605,-1.8323,-1.9455,-1.9953,-1.9611,-2.0352,-2.2084,-2.1724,-2.2278,-2.3595,-2.352,-2.2947,-2.1967,-2.1215,-2.0602,-2.0056,-1.9379,-1.9108,-1.9108,-1.9108,-1.9108,-1.9158,-1.9635,-1.9798,-1.9798,-1.8416,-1.8908,-1.9891,0.0,0.0,-2.8665,-3.2555,-3.6012,-3.8257,-3.8377,-3.9828,-4.0531,-3.9679,-4.0083,-3.9948,-3.8841,-3.6456,0.0,0.0,0.0,0.0,-3.5235,-3.3369,-3.0992,-2.8326,-2.7472,-2.6181,-2.4349,-2.2146,-2.1104,-2.1154,-1.9045,-1.8304,-1.8694,-1.8154,-1.8717,-2.0092,-2.0441,0.0,-2.2637,-2.24,-2.2358,-2.248,-2.2738,-2.256,-2.2159,-2.2058,-2.1066,-1.9874,-2.0377,-2.0981,-2.1531,-2.1794,-2.2146,-2.2481,-2.2744,-2.2631,-2.2531,-2.2982,-2.3108,-2.3108,-2.3108,-2.3108,-2.3083,-2.2982,-2.2957,-2.2957,-2.2957,-2.2443,-2.1845,-2.1292,0.0,0.0,0.0,0.0,0.0,0.0,0.0,0.0,0.0,0.0,-1.0567,0.0,0.0,0.0,-0.9568,-1.0084,-1.0978,0.0,0.0,-1.4135,0.0,-1.6605,0.0,0.0,0.0,-2.0133,-2.4066,-2.1899,-2.1829,-2.358,-2.3092,-2.2751,-2.2485,-2.1326,-2.0763,-2.062,-1.9936,-1.966,-1.966,-1.966,-1.966,-1.9673,-1.9773,-1.9798,-1.9798,-2.0893,-2.1014,-2.1416,-2.2527,0.0,0.0,0.0,-3.7726,-4.0202,-3.9529,-3.9664,-3.9589,-3.896,-3.9484,-3.9634,-3.8975,-3.694,-3.6351,-3.7834,-3.5277,-3.4496,-3.6207,-3.4564,-3.2364,-2.9728,-2.8511,-2.6946,-2.5019,-2.2655,-2.1631,-2.187,-1.9936,-1.9334,-1.9861,-1.9597,-2.0515,0.0,0.0,0.0,-2.3308,-2.2884,-2.2713,-2.2748,-2.2984,-2.2757,-2.2309,-2.2309,-2.1606,-2.0727,-2.1031,-2.1295,-2.1543,-2.1794,-2.2083,-2.2359,-2.2606,-2.2493,-2.2406,-2.2957,-2.3108,-2.3108,-2.3108,-2.3108,-2.3108,-2.3108,-2.3108,-2.3108,-2.3108,-2.2443,-2.1331,-1.9554,-1.8214,0.0,0.0,0.0,0.0,0.0,0.0,0.0,0.0,0.0,0.0,0.0,0.0,0.0,0.0,0.0,-1.0779,-1.2226,0.0,-1.3947,0.0,0.0,0.0,-1.967,0.0,-1.9748,-2.2556,-2.129,-2.1724,-2.3595,-2.3295,-2.2997,-2.2651,-2.1687,-2.1086,-2.0761,-2.0079,-1.9798,-1.9798,-1.9798,-1.9798,-1.9798,-1.9798,-1.9798,-1.9798,-2.3635,-2.3678,0.0,0.0,-2.9202,-3.3289,-3.4757,-3.8,-4.0379,-4.0599,-3.9439,-3.8601,-3.8601,-3.9095,-3.9233,-3.8754,-3.7319,-3.6679,-3.7216,-3.5512,-3.4945,-3.5956,-3.4921,-3.3325,-3.1208,-2.932,-2.7576,-2.5928,-2.3334,-2.2246,-2.2636,-2.1066,-2.0514,-2.088,0.0,0.0,0.0,0.0,-2.2811,-2.4002,-2.3365,-2.3108,-2.3108,-2.3108,-2.2832,-2.2456,-2.2456,-2.2133,-2.1681,-2.1794,-2.1757,-2.1656,-2.1656,-2.2046,-2.246,-2.2347,-2.2397,-2.2556,-2.2995,-2.3108,-2.3108,-2.3108,-2.3108,-2.3108,-2.3108,-2.3108,-2.307,-2.2957,-2.2027,-2.0453,-1.7861,-1.7639,0.0,0.0,0.0,0.0,0.0,0.0,0.0,0.0,0.0,0.0,-1.0575,0.0,0.0,0.0,0.0,-1.0691,-1.2103,-1.2728,-1.3864,0.0,0.0,-1.7686,-1.8065,0.0,-1.9362,-2.1133,-2.084,-2.1655,-2.3421,-2.3551,-2.3334,-2.2852,-2.2053,-2.1293,-2.056,-2.0029,-1.9798,-1.9798,-1.9798,-1.9798,-1.9798,-1.9798,-1.9798,-1.9798,0.0,0.0,0.0,0.0,0.0,-3.2968,-3.7167,-3.7157,-3.7792,-4.0888,-4.0142,-3.9334,-3.9334,-3.9343,-3.8629,-3.6691,-3.698,-3.6197,-3.3565,-3.466,-3.5082,-3.4433,-3.5016,-3.4602,-3.2977,-3.0942,-2.9408,0.0,-2.5262,-2.3791,0.0,-2.2636,-2.1845,0.0,0.0,0.0,0.0,-2.3453,-2.3621,-2.3215,-2.3138,-2.3108,-2.3108,-2.3108,-2.307,-2.3032,-2.3032,-2.2681,-2.2309,-2.2782,-2.2619,-2.2234,-2.2234,-2.2581,-2.2932,-2.2431,-2.2631,-2.3045,-2.3095,-2.3108,-2.3108,-2.3108,-2.3108,-2.3108,-2.3108,-2.3108,-2.2957,-2.2498,-2.1267,-1.991,-1.8606,-1.7486,-1.6443,0.0,0.0,0.0,0.0,0.0,-1.3395,-1.2432,0.0,0.0,0.0,-1.0562,0.0,0.0,-1.0632,-1.1069,-1.206,-1.2335,-1.3126,-1.4534,-1.4977,-1.6421,-1.8948,-1.7906,-1.9096,-2.2495,-2.1281,-2.142,-2.2785,-2.3355,-2.3573,-2.3465,-2.2225,-2.1013,-1.9901,-1.9824,-1.9798,-1.9798,-1.9798,-1.9798,-1.9798,-1.9798,-1.9798,-1.9798,0.0,0.0,0.0,0.0,0.0,0.0,0.0,-3.8144,-3.9185,-4.0188,-3.9795,-3.9388,-3.9388,-3.9388,-3.9056,-3.8218,-3.8424,-3.7634,-3.5385,-3.4748,-3.4815,-3.5547,-3.5535,-3.4999,-3.3997,-3.1948,-3.0672,0.0,0.0,0.0,0.0,0.0,0.0,0.0,0.0,-2.4325,-2.3977,-2.4013,-2.3682,-2.3108,-2.3108,-2.3108,-2.3108,-2.3108,-2.3108,-2.3108,-2.3108,-2.2957,-2.2807,-2.3032,-2.2732,-2.2309,-2.2309,-2.2234,-2.2171,-2.2284,-2.2234,-2.2297,-2.2932,-2.3108,-2.3108,-2.3108,-2.3108,-2.3108,-2.3108,-2.3108,-2.2825,-2.1839,-2.0328,-1.8788,-1.7527,-1.7252,-1.6937,0.0,0.0,0.0,0.0,0.0,0.0,-1.3573,0.0,-1.3224,0.0,0.0,0.0,0.0,0.0,-1.052,-1.1224,-1.1871,-1.3125,-1.5119,0.0,-1.6598,-1.9501,-1.8392,-1.9076,-2.1549,-2.1013,-2.1231,-2.21,-2.234,-2.2248,-2.1889,-2.1379,-2.0645,-1.9798,-1.9798,-1.9798,-1.9798,-1.9798,-1.9798,-1.9798,-1.9798,-1.9798,-1.9798,-3.1273,0.0,-3.1336,0.0,-3.4088,-3.5499,-3.6132,-3.8003,-3.9139,-3.8484,-3.8708,-3.9068,-3.9373,-3.9388,-3.9152,-3.8519,-3.8803,-3.7972,-3.5521,-3.469,-3.4655,-3.5485,-3.5493,0.0,-3.4786,-3.2918,-3.1792,-3.1512,-2.7845,0.0,0.0,0.0,0.0,0.0,-2.5394,-2.5116,-2.4754,-2.4374,-2.3916,-2.3346,-2.317,-2.3208,-2.3346,-2.317,-2.3108,-2.3108,-2.3108,-2.3208,-2.3333,-2.3158,-2.2957,-2.2749,-2.2422,-2.2159,-2.202,-2.2246,-2.2146,-2.2146,-2.2895,-2.3108,-2.3108,-2.3108,-2.3108,-2.3108,-2.3108,-2.3108,-2.2613,-2.0968,-1.9386,-1.7912,-1.663,-1.6824,-1.6928,-1.6251,0.0,0.0,0.0,-1.529,0.0,0.0,-1.3948,-1.3815,-1.3498,-1.2643,0.0,0.0,0.0,0.0,-1.1357,-1.1886,-1.3101,0.0,0.0,0.0,-1.8782,-1.8091,-1.8643,-2.0497,-2.0696,-2.1028,-2.1424,-2.1615,-2.1366,-2.0795,-2.0795,-2.0421,-1.9798,-1.9798,-1.9798,-1.9798,-1.9798,-1.9798,-1.9798,-1.9798,-1.9798,-1.9798,-3.2872,-3.3483,-3.4198,-3.5257,-3.5956,-3.6205,-3.567,-3.6023,-3.6196,-3.5695,-3.6912,-3.8234,-3.9265,-3.9388,-3.8549,-3.6424,-3.7384,-3.6358,-3.2221,-3.4174,-3.4818,0.0,0.0,-3.5504,-3.5489,-3.3966,-3.2858,-3.2205,0.0,0.0,-2.6865,0.0,-2.5297,-2.487,-2.5984,-2.5569,-2.4029,-2.4582,-2.4494,-2.3941,-2.3333,-2.3446,-2.3929,-2.3321,-2.3108,-2.3108,-2.3108,-2.3471,-2.3904,-2.3296,-2.3471,-2.3778,-2.2673,-2.2656,-2.2982,-2.2443,-2.2656,-2.3083,-2.3108,-2.3108,-2.3108,-2.3108,-2.3108,-2.3108,-2.3108,-2.3108,-2.2381,-1.9856,-1.8523,-1.7461,-1.6315,-1.6115,-1.598,-1.5573,0.0,0.0,0.0,0.0,0.0,-1.3772,-1.3253,-1.3168,-1.3546,-1.2683,0.0,0.0,0.0,0.0,0.0,0.0,0.0,-1.3786,-1.3441,0.0,-1.6513,-1.6525,-1.7639,-1.9824,-2.0472,-2.0795,-2.082,-2.1424,-2.1366,-2.0795,-2.0795,-2.0421,-1.9798,-1.9798,-1.9798,-1.9798,-1.9798,-1.9798,-1.9798,-1.9798,-1.9798,-1.9798,-3.1474,-3.3056,-3.4336,-3.3935,-3.4625,-3.5188,-3.499,-3.5809,-3.6207,-3.5625,-3.7268,-3.8433,-3.8315,-3.8943,-3.9137,0.0,-3.8773,-3.7907,0.0,-3.5388,-3.527,-3.4789,-3.3883,-3.3545,-3.3919,-3.2661,-3.2052,-3.2205,0.0,0.0,0.0,-2.6621,-2.6295,-2.5984,-2.6336,-2.5984,-2.5096,-2.5272,-2.5046,-2.4544,-2.4324,-2.4136,-2.3979,-2.3791,-2.3446,-2.3158,-2.359,-2.3559,-2.3409,-2.3653,-2.359,-2.3308,-2.2957,-2.2706,-2.2506,-2.2359,-2.2406,-2.2631,-2.3007,-2.3108,-2.3108,-2.3108,-2.3108,-2.3108,-2.3108,-2.2436,-2.1398,-1.9988,-1.875,-1.7636,-1.6699,-1.6523,-1.6414,-1.6146,-1.6385,0.0,0.0,0.0,-1.4831,-1.4023,-1.3624,-1.3558,-1.3905,-1.3396,0.0,0.0,0.0,0.0,0.0,0.0,0.0,0.0,-1.5727,0.0,-1.8719,-1.8005,-1.8392,-1.9798,-2.0029,-2.0131,-2.0144,-2.0782,-2.0733,-2.0144,-2.0597,-2.0421,-1.9798,-1.9798,-1.9798,-1.9798,-1.9798,-2.0037,-2.0365,-1.9949,-2.0049,-2.0365,-3.1675,-3.3093,-3.4198,-3.3508,-3.4123,-3.4467,-3.3884,-3.4758,-3.5176,-3.4079,-3.6235,-3.7653,-3.7256,-3.8509,0.0,-3.9388,-3.9388,-3.8811,-3.7389,-3.6178,-3.5504,-3.5504,-3.425,-3.3712,-3.4043,-3.3331,0.0,-3.3077,-3.1482,-2.9687,-2.7695,-2.7343,-2.6946,-2.6499,-2.6499,-2.6172,-2.5598,-2.5598,-2.541,-2.5096,-2.4863,-2.4732,-2.4582,-2.4381,-2.4061,-2.3785,-2.418,-2.4048,-2.376,-2.3941,-2.3753,-2.3396,-2.317,-2.2869,-2.2594,-2.2594,-2.2594,-2.2669,-2.3007,-2.3108,-2.3108,-2.3108,-2.3108,-2.3108,-2.3108,-2.1995,-2.0757,-2.0039,-1.8782,-1.7621,-1.7069,-1.6709,-1.6481,-1.6507,-1.6506,-1.6255,-1.5677,0.0,0.0,0.0,0.0,0.0,0.0,-1.4041,-1.4156,0.0,0.0,0.0,0.0,0.0,0.0,-1.6337,-1.6699,-1.7627,-1.9196,-1.8543,-1.8744,-1.9798,-1.9798,-1.9798,-1.9798,-2.022,-2.0207,-1.9824,-2.0245,-2.0207,-1.9798,-1.9798,-1.9798,-1.9798,-1.9798,-2.0024,-2.0327,-1.9936,-2.0024,-2.0314,-3.291,-3.3382,-3.3822,0.0,-3.4211,0.0,-3.2516,-3.3169,-3.3282,-3.1712,-3.4193,-3.6119,-3.6198,-3.8055,-3.9301,-3.9388,0.0,0.0,0.0,-3.6537,-3.5594,-3.5504,-3.5504,-3.5442,-3.5332,-3.532,-3.5038,-3.4503,-3.2403,-3.056,-2.9058,-2.8195,-2.7317,-2.6499,-2.6499,-2.6197,-2.5649,-2.5649,-2.5649,-2.5611,-2.5134,-2.5197,-2.5548,-2.5059,-2.4825,-2.48,-2.4825,-2.4825,-2.4713,-2.4268,-2.4054,-2.3916,-2.3384,-2.3158,-2.3108,-2.3108,-2.3108,-2.3108,-2.3108,-2.3108,-2.3108,-2.3108,-2.3108,-2.3108,-2.3108,-2.1865,-2.0552,-2.0059,-1.8669,-1.7511,-1.7425,-1.6741,-1.63,-1.6599,-1.6338,-1.5919,-1.5391,0.0,0.0,0.0,0.0,0.0,-1.4128,-1.4626,-1.4944,0.0,0.0,0.0,0.0,0.0,-1.5039,-1.6598,-1.6704,-1.7227,-1.8304,-1.8317,-1.8819,-1.9798,-1.9798,-1.9798,-1.9798,-1.9798,-1.9798,-1.9798,-1.9798,-1.9798,-1.9798,-1.985,-1.985,-1.9798,-1.985,-1.9875,-1.9861,-1.9823,-1.9823,-1.9861,0.0,0.0,-3.3006,-3.2139,-3.2805,-3.3332,-3.293,-3.3106,-3.3131,-3.2729,-3.4051,-3.5359,-3.6132,-3.7381,-3.8509,-3.9337,-3.9388,-3.8901,-3.7659,-3.7195,-3.6522,-3.5549,-3.5504,-3.4943,-3.378,-3.3331,-3.3579,-3.4503,-3.3449,-3.1859,-2.9744,-2.9018,-2.792,-2.6499,-2.6499,-2.6411,-2.6285,-2.6285,-2.6285,-2.6285,-2.616,-2.5921,-2.5586,-2.546,-2.5172,-2.4838,-2.5272,-2.5159,-2.4825,-2.5134,-2.4669,-2.4054,-2.4299,-2.3797,-2.3108,-2.3108,-2.3108,-2.3108,-2.3108,-2.3108,-2.3108,-2.3108,-2.3108,-2.3108,-2.3108,-2.2322,-2.1361,-2.0592,-1.9587,-1.8565,-1.7573,-1.7239,-1.6917,-1.6339,-1.6163,-1.5713,-1.4562,-1.4328,0.0,0.0,-1.3667,-1.4149,-1.458,-1.5034,-1.5299,0.0,0.0,0.0,-1.6777,-1.6551,-1.6943,-1.8145,-1.8734,-1.9158,-1.9422,-1.9422,-1.9547,-1.9798,-1.9798,-1.9798,-1.9798,-1.9798,-1.9798,-1.9798,-1.9798,-1.9798,-1.985,-2.0346,-2.0245,-1.985,-2.0346,-2.0528,-2.0427,-1.9962,-2.0075,-2.0427,-3.1738,-3.2428,-3.288,-3.2265,-3.2667,-3.3124,-3.3124,-3.3294,-3.3458,-3.3458,-3.4425,-3.5254,-3.5832,-3.6589,-3.7496,-3.8583,-3.8733,-3.8512,-3.7778,-3.6985,-3.5974,-3.4683,-3.4739,-3.4416,-3.359,-3.3277,-3.344,-3.4054,-3.3664,-3.2134,-2.955,-2.9154,-2.8117,-2.6499,-2.6499,-2.6499,-2.6499,-2.6499,-2.6499,-2.6499,-2.6499,-2.6298,-2.6021,-2.6021,-2.5812,-2.5611,-2.5921,-2.5636,-2.5222,-2.5498,-2.5059,-2.4431,-2.47,-2.4374,-2.3873,-2.3873,-2.3509,-2.3108,-2.3108,-2.3108,-2.3108,-2.3108,-2.3108,-2.3005,-2.2641,-2.1908,-2.1069,-2.0171,-1.9299,-1.8482,-1.7805,-1.7353,-1.6924,-1.6445,-1.5703,-1.501,-1.4502,-1.3926,-1.3613,-1.3756,-1.3948,-1.4426,-1.5322,-1.5576,-1.5812,-1.6037,-1.5525,0.0,-1.7329,-1.7459,-1.8129,-1.9582,-2.0003,-2.02,-2.02,-1.9936,-1.9798,-1.9798,-1.9798,-1.9798,-1.9798,-1.9798,-1.9798,-1.9798,-1.9798,-1.9798,-1.9824,-2.0207,-2.0131,-1.9824,-2.0207,-2.0322,-2.0264,-1.9911,-1.9999,-2.0251,-3.3684,-3.3395,-3.3124,-3.3124,-3.3124,-3.3124,-3.3124,-3.347,-3.3771,-3.3771,-3.459,-3.5191,-3.536,-3.5737,-3.6408,-3.7472,-3.7784,-3.7918,-3.7983,-3.6567,-3.5101,-3.3713,-3.3837,-3.3891,-3.3774,-3.391,-3.3922,-3.3799,-3.357,-3.2024,-2.9297,-2.9041,-2.8066,-2.6499,-2.6499,-2.6499,-2.6499,-2.6499,-2.6499,-2.6499,-2.6499,-2.6499,-2.6499,-2.6499,-2.6499,-2.6499,-2.6499,-2.6172,-2.5724,-2.5724,-2.5372,-2.4958,-2.5046,-2.4958,-2.4813,-2.4888,-2.4173,-2.3346,-2.3258,-2.317,-2.3108,-2.3108,-2.3017,-2.2732,-2.2063,-2.1101,-2.0204,-1.9464,-1.863,-1.7988,-1.793,-1.7233,-1.6658,-1.6521,-1.5206,-1.4289,-1.4561,0.0,-1.3668,-1.4696,-1.4629,-1.498,-1.6183,-1.6232,-1.6348,-1.6765,-1.6107,-1.6302,-1.7728,-1.7846,-1.8765,-2.0675,-2.0801,-2.0779,-2.0691,-2.0087,-1.9798,-1.9798,-1.9798,-1.9798,-1.9798,-1.9798,-1.9798,-1.9798,-1.9798,-1.9798,-1.9798,-1.9901,-1.9901,-1.9798,-1.9901,-1.9901,-1.9798,-1.9798,-1.9798,-1.9798,-3.3224,-3.3174,-3.3124,-3.3124,-3.3124,-3.3124,-3.3124,-3.3156,-3.3206,-3.3206,-3.3366,-3.3798,-3.4726,-3.4868,-3.5319,-3.6369,-3.6792,-3.7148,-3.7485,-3.6941,-3.5788,-3.4022,-3.3768,-3.3408,-3.282,-3.3602,-3.4407,-3.519,-3.3838,-3.2325,-3.0674,-2.9255,-2.7814,-2.6499,-2.6499,-2.6499,-2.6499,-2.6499,-2.6499,-2.6499,-2.6499,-2.6499,-2.6499,-2.6499,-2.6499,-2.6499,-2.6499,-2.6436,-2.6361,-2.6361,-2.5984,-2.5561,-2.6084,-2.5573,-2.4876,-2.5347,-2.5046,-2.4424,-2.3991,-2.3471,-2.3108,-2.3108,-2.2598,-2.2063,-2.1939,-2.0655,-1.9464,-1.9332,-1.863,-1.79,-1.7549,-1.707,-1.6453,-1.5712,-1.5088,-1.4453,-1.3799,0.0,-1.4961,-1.4833,-1.5703,-1.6521,-1.7119,-1.6846,-1.6807,-1.7246,-1.6811,-1.6898,-1.7749,-1.7794,-1.8784,-2.0896,-2.1243,-2.1169,-2.0691,-2.0087,-1.9798,-1.9798,-1.9798,-1.9798,-1.9798,-1.9798,-1.9798,-1.9798,-1.9798,-1.9798,-1.985,-2.0396,-2.0295,-1.985,-2.0421,-2.0295,-1.9798,-1.9798,-1.9798,-1.9798,-3.352,-3.3596,-3.3589,-3.3187,-3.3124,-3.3124,-3.3124,-3.3583,-3.3859,-3.3558,-3.3771,-3.4054,-3.4242,-3.4019,-3.4262,-3.5278,-3.5242,-3.5332,-3.5762,-3.6335,-3.5619,-3.3353,-3.3115,-3.2692,-3.1852,-3.2784,-3.3293,-3.3403,-3.2665,-3.1542,-3.0119,-2.9334,-2.8403,-2.7331,-2.7065,-2.7102,-2.7306,-2.6751,-2.6663,-2.6914,-2.6612,-2.6499,-2.6524,-2.6826,-2.6939,-2.6939,-2.6939,-2.6939,-2.6889,-2.66,-2.6311,-2.6135,-2.6411,-2.6147,-2.5749,-2.6021,-2.5473,-2.4738,-2.4506,-2.4029,-2.3572,-2.3572,-2.2739,-2.1824,-2.1574,-2.0556,-1.957,-1.9357,-1.8775,-1.8256,-1.8096,-1.7529,-1.6953,-1.6543,-1.5713,0.0,-1.4902,-1.5186,-1.543,-1.5498,-1.6221,-1.6872,-1.7344,-1.7197,-1.7266,-1.7686,-1.7324,-1.7396,-1.8204,-1.8245,-1.8881,-2.0376,-2.141,-2.1596,-2.0856,-2.0474,-2.0289,-2.0289,-1.9949,-1.9798,-1.9811,-2.0151,-2.0289,-2.0314,-2.0577,-2.0539,-2.0315,-2.0629,-2.036,-1.9824,-2.0144,-2.0067,-1.9798,-1.9798,-1.9798,-1.9798,-3.3734,-3.4022,-3.4085,-3.3395,-3.337,-3.3458,-3.3458,-3.4173,-3.4575,-3.4148,-3.4462,-3.4512,-3.396,-3.352,-3.3581,-3.4288,-3.4104,-3.3967,-3.4042,-3.5289,-3.4897,-3.2384,-3.2083,-3.1719,-3.1217,-3.1924,-3.2124,-3.1847,-3.1623,-3.088,-2.9627,-2.9379,-2.8875,-2.8084,-2.7657,-2.7708,-2.8047,-2.7241,-2.7115,-2.7444,-2.7052,-2.6876,-2.6927,-2.7318,-2.7469,-2.7469,-2.7469,-2.7394,-2.7253,-2.6826,-2.66,-2.6499,-2.6499,-2.6499,-2.6499,-2.6499,-2.5862,-2.5172,-2.5034,-2.4421,-2.3839,-2.3839,-2.2703,-2.1483,-2.113,-2.0403,-1.9661,-1.9354,-1.9023,-1.8724,-1.8617,-1.8027,-1.7461,-1.7266,0.0,-1.5684,0.0,-1.5859,-1.5918,-1.6476,-1.6816,-1.7165,-1.7627,-1.7588,-1.7705,-1.8125,-1.7852,-1.7998,-1.8715,-1.8647,-1.8874,-1.9428,-2.1113,-2.1776,-2.132,-2.0887,-2.0691,-2.0679,-2.0075,-1.9874,-2.0012,-2.0352,-2.0641,-2.0893,-2.1194,-2.1157,-2.088,-2.088,-2.0553,-1.9999,-1.9999,-1.9924,-1.9798,-1.9798,-1.9798,-1.9823,-3.3244,-3.3972,-3.45,-3.3935,-3.4261,-3.46,-3.46,-3.4675,-3.4713,-3.4663,-3.47,-3.4512,-3.396,-3.3859,-3.3677,-3.3235,-3.4069,-3.4163,-3.3014,-3.3946,-3.36,-3.1405,-3.0457,-3.0381,-3.118,-3.1278,-3.1692,-3.2538,-3.1652,-3.0897,-3.0296,-2.9359,-2.8624,-2.8109,-2.8059,-2.8059,-2.8097,-2.8021,-2.8009,-2.8047,-2.7996,-2.7984,-2.7996,-2.8034,-2.8047,-2.8047,-2.8047,-2.772,-2.7268,-2.7231,-2.6914,-2.6499,-2.6499,-2.6499,-2.6499,-2.6499,-2.6436,-2.6248,-2.5686,-2.4483,-2.3364,-2.3364,-2.2003,-2.0685,-2.0646,-1.9966,-1.9357,-1.9314,-1.9268,-1.9121,-1.8676,-1.8237,-1.7705,-1.6872,0.0,0.0,-1.6085,-1.6387,-1.6911,-1.7764,-1.79,-1.8052,-1.8471,-1.8159,-1.8135,-1.852,-1.8529,-1.875,-1.9219,-1.8834,-1.8458,-1.8159,-2.0046,-2.1438,-2.2193,-2.1217,-2.0691,-2.0679,-2.0075,-2.0087,-2.0616,-2.0087,-2.0439,-2.1433,-2.0955,-2.1018,-2.143,-2.143,-2.1131,-2.0629,-2.0629,-2.0302,-1.9798,-1.9798,-1.9798,-1.9874,-3.4135,-3.4613,-3.4926,-3.4487,-3.4776,-3.4989,-3.4763,-3.4969,-3.5069,-3.4718,-3.4969,-3.4856,-3.3997,-3.3897,-3.3671,-3.3174,-3.3471,-3.3184,-3.1992,-3.2626,-3.2503,-3.1233,-3.0317,-2.9972,-3.0317,-3.0317,-3.0495,-3.0846,-3.0495,-3.0253,-3.001,-2.9644,-2.9352,-2.9139,-2.8775,-2.8812,-2.9114,-2.8398,-2.8298,-2.8586,-2.8247,-2.8109,-2.8147,-2.8486,-2.8612,-2.8612,-2.8612,-2.8486,-2.8247,-2.7908,-2.7657,-2.7482,-2.7482,-2.7482,-2.7419,-2.7102,-2.7002,-2.6737,-2.5563,-2.4568,-2.3854,-2.3854,-2.2213,-2.0676,-2.0922,-2.0313,-1.9678,-1.9678,-1.9678,-1.9551,-1.9121,-1.8906,-1.8691,-1.8369,0.0,-1.8091,-1.8091,-1.8213,-1.8437,-1.8769,-1.8799,-1.8867,-1.9023,-1.8896,-1.8867,-1.9023,-1.9043,-1.9228,-1.9648,-2.0005,-2.0302,-2.0458,-2.1428,-2.169,-2.126,-2.1211,-2.1343,-2.1681,-2.0805,-2.0654,-2.1207,-2.1305,-2.1594,-2.2008,-2.2133,-2.1933,-2.1493,-2.1493,-2.1182,-2.0654,-2.0302,-2.0239,-2.0314,-1.9936,-1.9798,-1.9886,-3.468,-3.5203,-3.5525,-3.5006,-3.5328,-3.5529,-3.5278,-3.5567,-3.5667,-3.529,-3.5567,-3.5378,-3.4274,-3.4161,-3.3872,-3.3144,-3.3124,-3.2667,-3.1712,-3.1838,-3.1673,-3.1058,-3.0406,-2.9967,-2.9792,-2.9792,-2.9792,-2.9792,-2.9792,-2.9792,-2.9792,-2.9792,-2.9792,-2.9779,-2.9377,-2.9415,-2.9741,-2.8963,-2.885,-2.9164,-2.8787,-2.8637,-2.8674,-2.9051,-2.9202,-2.9202,-2.9202,-2.9051,-2.8838,-2.8499,-2.8247,-2.8109,-2.8109,-2.8109,-2.8034,-2.7657,-2.7419,-2.7016,-2.5624,-2.4637,-2.3886,-2.3603,-2.2049,-2.0651,-2.0958,-2.0552,-2.0117,-2.0117,-2.0117,-1.999,-1.9561,-1.9482,-1.9443,-1.9307,-1.9287,-1.9287,-1.9287,-1.9287,-1.9336,-1.9473,-1.9365,-1.9336,-1.9473,-1.9365,-1.9346,-1.9473,-1.9482,-1.9609,-1.9902,-2.0454,-2.1063,-2.162,-2.2093,-2.1999,-2.1289,-2.1599,-2.1933,-2.2297,-2.1395,-2.1245,-2.1757,-2.1958,-2.2246,-2.2556,-2.2757,-2.2518,-2.2008,-2.2008,-2.1681,-2.1169,-2.074,-2.0727,-2.0905,-2.0476,-2.0326,-2.0413,-3.4726,-3.5604,-3.6194,-3.5596,-3.5994,-3.6405,-3.6405,-3.6405,-3.6405,-3.6405,-3.6405,-3.599,-3.4839,-3.468,-3.4274,-3.3169,-3.3124,-3.283,-3.2252,-3.17,-3.1173,-3.0645,-3.062,-3.0357,-2.9804,-2.9792,-2.9792,-2.9792,-2.9792,-2.9792,-2.9792,-2.9792,-2.9792,-2.9792,-2.9792,-2.9792,-2.9792,-2.9792,-2.9792,-2.9792,-2.9792,-2.9792,-2.9792,-2.9792,-2.9792,-2.9792,-2.9792,-2.9428,-2.89,-2.89,-2.8537,-2.8122,-2.8122,-2.8122,-2.8109,-2.8109,-2.772,-2.7055,-2.6094,-2.4671,-2.3257,-2.2253,-2.1298,-2.0605,-2.0605,-2.0605,-2.0605,-2.0595,-2.0605,-2.0468,-2.0,-1.9912,-1.9785,-1.9365,-1.9297,-1.9297,-1.9297,-1.9297,-1.9453,-1.9873,-1.9551,-1.9463,-1.9883,-1.9541,-1.9473,-1.9883,-1.9922,-1.9922,-1.9922,-1.9912,-2.0189,-2.0811,-2.1609,-2.2229,-2.2706,-2.2431,-2.2322,-2.2309,-2.1757,-2.1782,-2.2297,-2.1757,-2.2096,-2.307,-2.2531,-2.2594,-2.3095,-2.3095,-2.2782,-2.2309,-2.2309,-2.197,-2.1493,-2.1493,-2.1493,-2.1568,-3.5793,-3.6179,-3.6355,-3.6144,-3.6304,-3.6405,-3.6405,-3.6405,-3.6405,-3.6405,-3.6405,-3.599,-3.4839,-3.468,-3.4274,-3.3169,-3.3124,-3.3006,-3.283,-3.229,-3.1725,-3.1185,-3.0809,-3.0357,-2.9804,-2.9792,-2.9792,-2.9792,-2.9792,-2.9792,-2.9792,-2.9792,-2.9792,-2.9792,-2.9792,-2.9792,-2.9792,-2.9792,-2.9792,-2.9792,-2.9792,-2.9792,-2.9792,-2.9792,-2.9792,-2.9792,-2.9792,-2.9679,-2.9528,-2.9528,-2.9428,-2.9289,-2.9289,-2.9289,-2.9214,-2.88,-2.7767,-2.6561,-2.5535,-2.3889,-2.2366,-2.2065,-2.1298,-2.0605,-2.0605,-2.0605,-2.0517,-2.0166,-2.0352,-2.0468,-2.0,-2.0166,-2.037,-2.0243,-2.0224,-2.0224,-2.0224,-2.0224,-2.0273,-2.04,-2.0302,-2.0273,-2.04,-2.0292,-2.0273,-2.0361,-2.041,-2.041,-2.041,-2.103,-2.1765,-2.2655,-2.3246,-2.3744,-2.4171,-2.3286,-2.2857,-2.2844,-2.2334,-2.2347,-2.2857,-2.2694,-2.2794,-2.3095,-2.2932,-2.2732,-2.2531,-2.2531,-2.2431,-2.2272,-2.1882,-2.187,-2.202,-2.1631,-2.1493,-2.1568,-3.6304,-3.6405,-3.6405,-3.6405,-3.6405,-3.6405,-3.6405,-3.6405,-3.6405,-3.6405,-3.6405,-3.6031,-3.5107,-3.5006,-3.4555,-3.3495,-3.3206,-3.3124,-3.3124,-3.2754,-3.2303,-3.1738,-3.1424,-3.0783,-2.9817,-2.9792,-2.9792,-2.9792,-2.9792,-2.9792,-2.9792,-2.9792,-2.9792,-2.9792,-2.9792,-2.9792,-2.9792,-2.9792,-2.9792,-2.9792,-2.9792,-2.9792,-2.9792,-2.9792,-2.9792,-2.9792,-2.9792,-2.9792,-2.9792,-2.9792,-2.9792,-2.9792,-2.9792,-2.9792,-2.9729,-2.9365,-2.8133,-2.6632,-2.5599,-2.3926,-2.2428,-2.206,-2.141,-2.0781,-2.0644,-2.0879,-2.0967,-2.0527,-2.0781,-2.1045,-2.0742,-2.0771,-2.083,-2.083,-2.0684,-2.0605,-2.0605,-2.0605,-2.0605,-2.0605,-2.0605,-2.0605,-2.0605,-2.0605,-2.0605,-2.0605,-2.1291,-2.1566,-2.1175,-2.2282,-2.3271,-2.4084,-2.4378,-2.4703,-2.5101,-2.4412,-2.3747,-2.3108,-2.2769,-2.2782,-2.3108,-2.3108,-2.3108,-2.3108,-2.3108,-2.292,-2.2606,-2.2606,-2.2606,-2.2581,-2.2272,-2.2347,-2.2569,-2.2259,-2.2133,-2.2184,-3.6304,-3.6405,-3.6405,-3.6405,-3.6405,-3.6405,-3.6405,-3.6405,-3.6405,-3.6405,-3.6405,-3.6157,-3.5558,-3.5458,-3.5006,-3.3985,-3.3395,-3.3124,-3.3124,-3.3124,-3.2817,-3.224,-3.2215,-3.1499,-2.9967,-2.9892,-2.9842,-2.9792,-2.9792,-2.9792,-2.9792,-2.9792,-2.9792,-2.9792,-2.9792,-2.9792,-2.9792,-2.9792,-2.9792,-2.9792,-2.9792,-2.9792,-2.9792,-2.9792,-2.9792,-2.9792,-2.9792,-2.9792,-2.9792,-2.9792,-2.9792,-2.9792,-2.9792,-2.9792,-2.9792,-2.9663,-2.848,-2.696,-2.5978,-2.4479,-2.3001,-2.2162,-2.1641,-2.119,-2.083,-2.1349,-2.1777,-2.1337,-2.1611,-2.1885,-2.1885,-2.1562,-2.1249,-2.1249,-2.0918,-2.0664,-2.0664,-2.0635,-2.0615,-2.0664,-2.0664,-2.0674,-2.0723,-2.0723,-2.0723,-2.0723,-2.2338,-2.2964,-2.2157,-2.3459,-2.4491,-2.5052,-2.5099,-2.5279,-2.5598,-2.5598,-2.4795,-2.3183,-2.3183,-2.3158,-2.3108,-2.3017,-2.3035,-2.3108,-2.3005,-2.3035,-2.3108,-2.3108,-2.3108,-2.3108,-2.3108,-2.3108,-2.3108,-2.3108,-2.3133,-2.3183,-3.638,-3.6405,-3.6405,-3.6405,-3.6405,-3.6405,-3.6405,-3.6405,-3.6405,-3.6405,-3.6405,-3.6157,-3.5558,-3.5119,-3.4625,-3.396,-3.3395,-3.3124,-3.3124,-3.3124,-3.2817,-3.224,-3.2215,-3.1851,-3.106,-3.0645,-3.0231,-2.9792,-2.9792,-2.9792,-2.9792,-2.9792,-2.9792,-2.9792,-2.9792,-2.9792,-2.9792,-2.9792,-2.9792,-2.9792,-2.9792,-2.9792,-2.9792,-2.9792,-2.9792,-2.9792,-2.9792,-2.9792,-2.9792,-2.9792,-2.9792,-2.9792,-2.9792,-2.9792,-2.9624,-2.8727,-2.7371,-2.5971,-2.5204,-2.366,-2.2233,-2.2337,-2.2305,-2.2129,-2.1699,-2.1748,-2.1855,-2.1768,-2.1816,-2.1885,-2.1885,-2.1807,-2.1748,-2.1748,-2.1377,-2.1094,-2.1094,-2.0791,-2.0732,-2.1045,-2.1094,-2.1221,-2.1572,-2.1602,-2.1602,-2.1602,-2.1688,-2.212,-2.3108,-2.3503,-2.4285,-2.5575,-2.5977,-2.6005,-2.5598,-2.5598,-2.4996,-2.3803,-2.3803,-2.3547,-2.3078,-2.2445,-2.2506,-2.3078,-2.2445,-2.2506,-2.3108,-2.3108,-2.3108,-2.3108,-2.3108,-2.3108,-2.3108,-2.3108,-2.3396,-2.3803,-3.6355,-3.6157,-3.5968,-3.5968,-3.5968,-3.5968,-3.5968,-3.6194,-3.6405,-3.6405,-3.6405,-3.6304,-3.5968,-3.5395,-3.4743,-3.3972,-3.3395,-3.3124,-3.3124,-3.3124,-3.2943,-3.2641,-3.2629,-3.2353,-3.1788,-3.1524,-3.0984,-3.0181,-3.0181,-3.0043,-2.9792,-2.9792,-2.9792,-2.9792,-2.9792,-2.9792,-2.9792,-2.9792,-2.9792,-2.9792,-2.9792,-2.9792,-2.9817,-3.008,-3.0018,-2.9829,-3.0093,-3.0018,-2.9792,-2.9792,-2.9792,-2.9792,-2.9792,-2.9792,-2.9663,-2.9106,-2.7957,-2.6691,-2.5856,-2.4451,-2.3219,-2.2873,-2.2812,-2.2646,-2.2031,-2.2197,-2.2432,-2.2227,-2.2344,-2.248,-2.248,-2.2324,-2.2187,-2.2187,-2.1826,-2.1543,-2.1543,-2.1338,-2.1279,-2.1514,-2.1543,-2.1641,-2.1865,-2.207,-2.21,-2.1904,-2.2519,-2.3278,-2.418,-2.4905,-2.5683,-2.648,-2.6768,-2.6625,-2.6047,-2.6047,-2.5586,-2.4757,-2.4506,-2.4061,-2.3521,-2.3367,-2.3226,-2.309,-2.2954,-2.2979,-2.3108,-2.3108,-2.3108,-2.3108,-2.3108,-2.3108,-2.3108,-2.3108,-2.3471,-2.4042,-3.6304,-3.5918,-3.5495,-3.5495,-3.542,-3.5357,-3.5357,-3.5868,-3.6267,-3.6267,-3.6355,-3.6367,-3.6279,-3.5655,-3.4856,-3.3985,-3.3483,-3.3262,-3.3262,-3.3307,-3.3269,-3.3124,-3.3212,-3.2955,-3.2378,-3.2353,-3.1825,-3.0746,-3.0658,-3.0382,-2.993,-2.9829,-2.9792,-2.9792,-2.9792,-2.9792,-2.9792,-2.9792,-2.9792,-2.9792,-2.9792,-2.9792,-2.9854,-3.0407,-3.0331,-3.0005,-3.0557,-3.0394,-2.9917,-2.9829,-2.9792,-2.9792,-2.9792,-2.9792,-2.9753,-2.9573,-2.8858,-2.7804,-2.6554,-2.5504,-2.4542,-2.3387,-2.3091,-2.2916,-2.2256,-2.2637,-2.3003,-2.2685,-2.2847,-2.3091,-2.3091,-2.2808,-2.2617,-2.2617,-2.2266,-2.1992,-2.1992,-2.1934,-2.1914,-2.1982,-2.206,-2.21,-2.21,-2.2412,-2.2471,-2.2129,-2.3529,-2.4669,-2.5217,-2.6301,-2.7102,-2.7546,-2.7381,-2.7102,-2.6637,-2.6549,-2.6248,-2.5737,-2.531,-2.477,-2.4155,-2.4434,-2.4135,-2.3391,-2.3591,-2.3573,-2.3396,-2.32,-2.3169,-2.3246,-2.3246,-2.3195,-2.3133,-2.3321,-2.3697,-2.4217,-3.6304,-3.5918,-3.5495,-3.5495,-3.5107,-3.4793,-3.4793,-3.5257,-3.5608,-3.5608,-3.6069,-3.6182,-3.5658,-3.4738,-3.406,-3.3909,-3.3834,-3.3784,-3.3784,-3.4236,-3.4073,-3.3162,-3.3533,-3.3533,-3.2968,-3.2998,-3.2403,-3.1286,-3.0834,-3.057,-3.0495,-3.0018,-2.9792,-2.9792,-2.9792,-2.9792,-2.9792,-2.9792,-2.9792,-2.9792,-2.9792,-2.9792,-2.9854,-3.0407,-3.057,-3.057,-3.1097,-3.0947,-3.0432,-2.9955,-2.9792,-2.9792,-2.9792,-2.9792,-2.9624,-2.8636,-2.8215,-2.7631,-2.5577,-2.4914,-2.4542,-2.3387,-2.3091,-2.3062,-2.2955,-2.3013,-2.3081,-2.3023,-2.3052,-2.3091,-2.3091,-2.3052,-2.3013,-2.3013,-2.2705,-2.2432,-2.2432,-2.2119,-2.2021,-2.2383,-2.2744,-2.2925,-2.2925,-2.2974,-2.2984,-2.2925,-2.2863,-2.3812,-2.6177,-2.5678,-2.6367,-2.8612,-2.777,-2.7291,-2.7168,-2.6738,-2.6449,-2.6373,-2.6298,-2.5699,-2.4687,-2.3997,-2.4014,-2.4498,-2.2948,-2.3148,-2.4486,-2.3627,-2.3522,-2.3879,-2.3879,-2.3547,-2.3221,-2.4199,-2.4612,-2.4782,-3.6179,-3.5429,-3.468,-3.4994,-3.4625,-3.4261,-3.4261,-3.4944,-3.5395,-3.5082,-3.5567,-3.5692,-3.5094,-3.4374,-3.3897,-3.3897,-3.3897,-3.3897,-3.3897,-3.4412,-3.4223,-3.3174,-3.3608,-3.3646,-3.3124,-3.3124,-3.283,-3.2328,-3.1775,-3.121,-3.0608,-3.0369,-3.0093,-2.9792,-2.9792,-2.9792,-2.9817,-3.0118,-3.0068,-2.9842,-3.0444,-3.0507,-3.0344,-3.1185,-3.1323,-3.1085,-3.1311,-3.1248,-3.0972,-3.0432,-3.0256,-3.0193,-2.9892,-2.9792,-2.9702,-2.9197,-2.9067,-2.8688,-2.7064,-2.6202,-2.5473,-2.4339,-2.3551,-2.3091,-2.3091,-2.3091,-2.3091,-2.3091,-2.3091,-2.3091,-2.3091,-2.3091,-2.3091,-2.3091,-2.2945,-2.2818,-2.2818,-2.2705,-2.2656,-2.2799,-2.2984,-2.3091,-2.3091,-2.3091,-2.3091,-2.3091,-2.2925,-2.3898,-2.6378,-2.6069,-2.6795,-2.885,-2.8461,-2.8059,-2.7745,-2.7228,-2.6952,-2.6952,-2.6637,-2.6072,-2.5259,-2.5193,-2.5054,-2.4768,-2.4247,-2.431,-2.4755,-2.4329,-2.4258,-2.4456,-2.4456,-2.4274,-2.4148,-2.4958,-2.5259,-2.5335]},{"header":{"parameterUnit":"m.s-1","parameterCategory":1,"la1":30.6,"la2":28.766,"lo1":-90.7593,"lo2":-88.6598,"dy":0.0162,"dx":0.0183,"nx":116,"ny":114,"refTime":"2024-05-03T12:00:00:Z","depth":0,"parameterNumber":3,"parameterNumberName":"V-component_of_WINDS"},"data":[0.0,0.0,0.0,0.0,0.0,0.0,0.0,0.0,0.0,0.0,0.0,0.0,0.0,0.0,0.0,0.0,0.0,0.0,0.0,0.0,0.0,0.0,0.0,0.0,0.0,0.0,0.0,0.0,0.0,0.0,0.0,0.0,0.0,0.0,0.0,0.0,0.0,0.0,0.0,0.0,0.0,0.0,0.0,0.0,0.0,0.0,0.0,0.0,0.0,0.0,0.0,0.0,0.0,0.0,0.0,0.0,0.0,0.0,0.0,0.0,0.0,0.0,0.0,0.0,0.0,0.0,0.0,0.0,0.0,0.0,0.0,0.0,0.0,0.0,0.0,0.0,0.0,0.0,0.0,0.0,0.0,0.0,0.0,0.0,0.0,0.0,0.0,0.0,0.0,0.0,0.0,0.0,0.0,0.0,0.0,0.0,0.0,0.0,0.0,0.0,0.0,0.0,0.0,0.0,0.0,0.0,0.0,0.0,0.0,0.0,0.0,0.0,0.0,0.0,0.0,0.0,0.0,0.0,0.0,0.0,0.0,0.0,0.0,0.0,0.0,0.0,0.0,0.0,0.0,0.0,0.0,0.0,0.0,0.0,0.0,0.0,0.0,0.0,0.0,0.0,0.0,0.0,0.0,0.0,0.0,0.0,0.0,0.0,0.0,0.0,0.0,0.0,0.0,0.0,0.0,0.0,0.0,0.0,0.0,0.0,0.0,0.0,0.0,0.0,0.0,0.0,0.0,0.0,0.0,0.0,0.0,0.0,0.0,0.0,0.0,0.0,0.0,0.0,0.0,0.0,0.0,0.0,0.0,0.0,0.0,0.0,0.0,0.0,0.0,0.0,0.0,0.0,0.0,0.0,0.0,0.0,0.0,0.0,0.0,0.0,0.0,0.0,0.0,0.0,0.0,0.0,0.0,0.0,0.0,0.0,0.0,0.0,0.0,0.0,0.0,0.0,0.0,0.0,0.0,0.0,0.0,0.0,0.0,0.0,0.0,0.0,0.0,0.0,0.0,0.0,0.0,0.0,0.0,0.0,0.0,0.0,0.0,0.0,0.0,0.0,0.0,0.0,0.0,0.0,0.0,0.0,0.0,0.0,0.0,0.0,0.0,0.0,0.0,0.0,0.0,0.0,0.0,0.0,0.0,0.0,0.0,0.0,0.0,0.0,0.0,0.0,0.0,0.0,0.0,0.0,0.0,0.0,0.0,0.0,0.0,0.0,0.0,0.0,0.0,0.0,0.0,0.0,0.0,0.0,0.0,0.0,0.0,0.0,0.0,0.0,0.0,0.0,0.0,0.0,0.0,0.0,0.0,0.0,0.0,0.0,0.0,0.0,0.0,0.0,0.0,0.0,0.0,0.0,0.0,0.0,0.0,0.0,0.0,0.0,0.0,0.0,0.0,0.0,0.0,0.0,0.0,0.0,0.0,0.0,0.0,0.0,0.0,0.0,0.0,0.0,0.0,0.0,0.0,0.0,0.0,0.0,0.0,0.0,0.0,0.0,0.0,0.0,0.0,0.0,0.0,0.0,0.0,0.0,0.0,0.0,0.0,0.0,0.0,0.0,0.0,0.0,0.0,0.0,0.0,0.0,0.0,0.0,0.0,0.0,0.0,0.0,0.0,0.0,0.0,0.0,0.0,0.0,0.0,0.0,0.0,0.0,0.0,0.0,0.0,0.0,0.0,0.0,0.0,0.0,0.0,0.0,0.0,0.0,0.0,0.0,0.0,0.0,0.0,0.0,0.0,0.0,0.0,0.0,0.0,0.0,0.0,0.0,0.0,0.0,0.0,0.0,0.0,0.0,0.0,0.0,0.0,0.0,0.0,0.0,0.0,0.0,0.0,0.0,0.0,0.0,0.0,0.0,0.0,0.0,0.0,0.0,0.0,0.0,0.0,0.0,0.0,0.0,0.0,0.0,0.0,0.0,0.0,0.0,0.0,0.0,0.0,0.0,0.0,0.0,0.0,0.0,0.0,0.0,0.0,0.0,0.0,0.0,0.0,0.0,0.0,0.0,0.0,0.0,0.0,0.0,0.0,0.0,0.0,0.0,0.0,0.0,0.0,0.0,0.0,0.0,0.0,0.0,0.0,0.0,0.0,0.0,0.0,0.0,0.0,0.0,0.0,0.0,0.0,0.0,0.0,0.0,0.0,0.0,0.0,0.0,0.0,0.0,0.0,0.0,0.0,0.0,0.0,0.0,0.0,0.0,0.0,0.0,0.0,0.0,0.0,0.0,0.0,0.0,0.0,0.0,0.0,0.0,0.0,0.0,0.0,0.0,0.0,0.0,0.0,0.0,0.0,0.0,0.0,0.0,0.0,0.0,0.0,0.0,0.0,0.0,0.0,0.0,0.0,0.0,0.0,0.0,0.0,0.0,0.0,0.0,0.0,0.0,0.0,0.0,0.0,0.0,0.0,0.0,0.0,0.0,0.0,0.0,0.0,0.0,0.0,0.0,0.0,0.0,0.0,0.0,0.0,0.0,0.0,0.0,0.0,0.0,0.0,0.0,0.0,0.0,0.0,0.0,0.0,0.0,0.0,0.0,0.0,0.0,0.0,0.0,0.0,0.0,0.0,0.0,0.0,0.0,0.0,0.0,0.0,0.0,0.0,0.0,0.0,0.0,0.0,0.0,0.0,0.0,0.0,0.0,0.0,0.0,0.0,0.0,0.0,0.0,0.0,0.0,0.0,0.0,0.0,0.0,0.0,0.0,0.0,0.0,0.0,0.0,0.0,0.0,0.0,0.0,0.0,0.0,0.0,0.0,0.0,0.0,0.0,0.0,0.0,0.0,0.0,0.0,0.0,0.0,0.0,0.0,0.0,0.0,0.0,0.0,0.0,0.0,0.0,0.0,0.0,0.0,0.0,0.0,0.0,0.0,0.0,0.0,0.0,0.0,0.0,0.0,0.0,0.0,0.0,0.0,0.0,0.0,0.0,0.0,0.0,0.0,0.0,0.0,0.0,0.0,0.0,0.0,0.0,0.0,0.0,0.0,0.0,0.0,0.0,0.0,0.0,0.0,0.0,0.0,0.0,0.0,0.0,0.0,0.0,0.0,0.0,0.0,0.0,0.0,0.0,0.0,0.0,0.0,0.0,0.0,0.0,0.0,0.0,0.0,0.0,0.0,0.0,0.0,0.0,0.0,0.0,0.0,0.0,0.0,0.0,0.0,0.0,0.0,0.0,0.0,0.0,0.0,0.0,0.0,0.0,0.0,0.0,0.0,0.0,0.0,0.0,0.0,0.0,0.0,0.0,0.0,0.0,0.0,0.0,0.0,0.0,0.0,0.0,0.0,0.0,0.0,0.0,0.0,0.0,0.0,0.0,0.0,0.0,0.0,0.0,0.0,0.0,0.0,0.0,0.0,0.0,0.0,0.0,0.0,0.0,0.0,0.0,0.0,0.0,0.0,0.0,0.0,0.0,0.0,0.0,0.0,0.0,0.0,0.0,0.0,0.0,0.0,0.0,0.0,0.0,0.0,0.0,0.0,0.0,0.0,0.0,0.0,0.0,0.0,0.0,0.0,0.0,0.0,0.0,0.0,0.0,0.0,0.0,0.0,0.0,0.0,0.0,0.0,0.0,0.0,0.0,0.0,0.0,0.0,0.0,0.0,0.0,0.0,0.0,0.0,0.0,0.0,0.0,0.0,0.0,0.0,0.0,0.0,0.0,0.0,0.0,0.0,0.0,0.0,0.0,0.0,0.0,0.0,0.0,0.0,0.0,0.0,0.0,0.0,0.0,0.0,0.0,0.0,0.0,0.0,0.0,0.0,0.0,0.0,0.0,0.0,0.0,0.0,0.0,0.0,0.0,0.0,0.0,0.0,0.0,0.0,0.0,0.0,0.0,0.0,0.0,0.0,0.0,0.0,0.0,0.0,0.0,0.0,0.0,0.0,0.0,0.0,0.0,0.0,0.0,0.0,0.0,0.0,0.0,0.0,0.0,0.0,0.0,0.0,0.0,0.0,0.0,0.0,0.0,0.0,0.0,0.0,0.0,0.0,0.0,0.0,0.0,0.0,0.0,0.0,0.0,0.0,0.0,0.0,0.0,0.0,0.0,0.0,0.0,0.0,0.0,0.0,0.0,0.0,0.0,0.0,0.0,0.0,0.0,0.0,0.0,0.0,0.0,0.0,0.0,0.0,0.0,0.0,0.0,0.0,0.0,0.0,0.0,0.0,0.0,0.0,0.0,0.0,0.0,0.0,0.0,0.0,0.0,0.0,0.0,0.0,0.0,0.0,0.0,0.0,0.0,0.0,0.0,0.0,0.0,0.0,0.0,0.0,0.0,0.0,0.0,0.0,0.0,0.0,0.0,0.0,0.0,0.0,0.0,0.0,0.0,0.0,0.0,0.0,0.0,0.0,0.0,0.0,0.0,0.0,0.0,0.0,0.0,0.0,0.0,0.0,0.0,0.0,0.0,0.0,0.0,0.0,0.0,0.0,0.0,0.0,0.0,0.0,0.0,0.0,0.0,0.0,0.0,0.0,0.0,0.0,0.0,0.0,0.0,0.0,0.0,0.0,0.0,0.0,0.0,0.0,0.0,0.0,0.0,0.0,0.0,0.0,0.0,0.0,0.0,0.0,0.0,0.0,0.0,0.0,0.0,0.0,0.0,0.0,0.0,0.0,0.0,0.0,0.0,0.0,0.0,0.0,0.0,0.0,0.0,0.0,0.0,0.0,0.0,0.0,0.0,0.0,0.0,0.0,0.0,0.0,0.0,0.0,0.0,0.0,0.0,0.0,0.0,0.0,0.0,0.0,0.0,0.0,0.0,0.0,0.0,0.0,0.0,0.0,0.0,0.0,0.0,0.0,0.0,0.0,0.0,0.0,0.0,0.0,0.0,0.0,0.0,0.0,0.0,0.0,0.0,0.0,0.0,0.0,0.0,0.0,0.0,0.0,0.0,0.0,0.0,0.0,0.0,0.0,0.0,0.0,0.0,0.0,0.0,0.0,0.0,0.0,0.0,0.0,0.0,0.0,0.0,0.0,0.0,0.0,0.0,0.0,0.0,0.0,0.0,0.0,0.0,0.0,0.0,0.0,0.0,0.0,0.0,0.0,0.0,0.0,0.0,0.0,0.0,0.0,0.0,0.0,0.0,0.0,0.0,0.0,0.0,0.0,0.0,0.0,0.0,0.0,0.0,0.0,0.0,0.0,0.0,0.0,0.0,0.0,0.0,0.0,0.0,0.0,0.0,0.0,0.0,0.0,0.0,0.0,0.0,0.0,0.0,0.0,0.0,0.0,0.0,0.0,0.0,0.0,0.0,0.0,0.0,0.0,0.0,0.0,0.0,0.0,0.0,0.0,0.0,0.0,0.0,0.0,0.0,0.0,0.0,0.0,0.0,0.0,0.0,0.0,0.0,0.0,0.0,0.0,0.0,0.0,0.0,0.0,0.0,0.0,0.0,0.0,0.0,0.0,0.0,0.0,0.0,0.0,0.0,0.0,0.0,0.0,0.0,0.0,0.0,0.0,0.0,0.0,0.0,0.0,0.0,0.0,0.0,0.0,0.0,0.0,0.0,0.0,0.0,0.0,0.0,0.0,0.0,0.0,0.0,0.0,0.0,0.0,0.0,0.0,0.0,0.0,0.0,0.0,0.0,0.0,0.0,0.0,0.0,0.0,0.0,0.0,0.0,0.0,0.0,0.0,0.0,0.0,0.0,0.0,0.0,0.0,0.0,0.0,0.0,0.0,0.0,0.0,0.0,0.0,0.0,0.0,0.0,0.0,0.0,0.0,0.0,0.0,0.0,0.0,0.0,0.0,0.0,0.0,0.0,0.0,0.0,0.0,0.0,0.0,0.0,0.0,0.0,0.0,0.0,0.0,0.0,0.0,0.0,0.0,0.0,0.0,0.0,0.0,0.0,0.0,0.0,0.0,0.0,0.0,0.0,0.0,0.0,0.0,0.0,0.0,0.0,0.0,0.0,0.0,0.0,0.0,0.0,0.0,0.0,0.0,0.0,0.0,0.0,0.0,0.0,0.0,0.0,0.0,0.0,0.0,0.0,0.0,0.0,0.0,0.0,0.0,0.0,0.0,0.0,0.0,0.0,0.0,0.0,0.0,0.0,0.0,0.0,0.0,0.0,0.0,1.1851,0.0,0.0,0.0,0.0,0.0,0.0,0.0,0.0,0.0,0.0,0.0,0.0,0.0,0.0,0.0,0.0,0.0,0.0,0.0,0.0,0.0,0.0,0.0,0.0,1.1241,1.0774,1.236,1.1841,1.1834,1.2825,0.0,0.0,0.0,0.0,0.0,1.4548,1.4408,1.4065,1.3535,1.3923,1.4011,1.3766,1.439,1.5013,1.5576,0.0,0.0,0.0,0.0,0.0,0.0,0.0,0.0,0.0,0.0,0.0,0.0,0.0,0.0,0.0,0.0,0.0,0.0,0.0,0.0,0.0,0.0,0.0,0.0,0.0,0.0,0.0,0.0,0.0,0.0,0.0,0.0,0.0,0.0,0.0,0.0,0.0,0.0,0.0,0.0,0.0,0.0,0.0,0.0,0.0,0.0,0.0,0.0,0.0,0.0,0.0,0.0,0.0,0.0,0.0,0.0,0.0,0.0,0.0,0.0,0.0,0.0,0.0,0.0,0.0,0.0,0.0,0.0,0.0,0.0,0.0,1.1515,0.0,0.0,0.0,0.0,0.0,0.0,0.0,0.0,0.0,0.0,0.0,0.0,0.0,0.0,0.0,0.0,0.0,0.0,0.0,0.0,0.0,1.2499,1.2774,1.0738,0.9979,1.1561,1.128,1.1574,1.2916,1.3358,1.3763,1.4241,1.4022,1.404,1.4313,1.4036,1.3581,1.2949,1.3482,1.4227,1.5133,1.5252,1.5445,1.5695,1.6215,0.0,0.0,0.0,0.0,0.0,0.0,0.0,0.0,0.0,0.0,0.0,0.0,0.0,0.0,0.0,0.0,0.0,0.0,0.0,0.0,0.0,0.0,0.0,0.0,0.0,0.0,0.0,0.0,0.0,0.0,0.0,0.0,0.0,0.0,0.0,0.0,0.0,0.0,0.0,0.0,0.0,0.0,0.0,0.0,0.0,0.0,0.0,0.0,0.0,0.0,0.0,0.0,0.0,0.0,0.0,0.0,0.0,0.0,0.0,0.0,0.0,0.0,0.0,1.2403,1.1646,1.1305,1.0633,0.9877,0.9217,1.1581,1.1669,1.0266,1.1395,0.0,0.0,0.0,0.0,0.0,0.0,0.0,0.0,0.0,0.0,0.0,0.0,0.0,0.0,0.0,0.0,0.0,0.0,0.0,1.1709,1.0948,1.0294,0.9836,0.969,1.0229,1.093,1.178,1.2774,1.3451,1.3689,1.3824,1.391,1.3965,1.3917,1.3774,1.3491,1.4093,1.5101,1.6452,1.7093,1.7765,1.8331,1.6883,1.7383,1.9174,0.0,0.0,0.0,0.0,0.0,0.0,0.0,0.0,0.0,0.0,0.0,0.0,0.0,0.0,0.0,0.0,0.0,0.0,0.0,0.0,0.0,0.0,0.0,0.0,0.0,0.0,0.0,0.0,0.0,0.0,0.0,0.0,0.0,0.0,0.0,0.0,0.0,0.0,0.0,0.0,0.0,1.3331,1.4007,0.0,0.0,0.0,0.0,0.0,0.0,0.0,0.0,0.0,0.0,0.0,0.0,0.0,1.1795,1.2631,1.3443,1.3369,1.2455,1.3371,1.3107,1.1808,1.1693,1.1417,1.1005,1.0717,0.0,1.0428,1.0228,0.0,0.0,0.0,0.0,0.0,0.0,0.0,0.0,0.0,0.0,0.0,0.0,0.0,0.0,0.0,0.0,0.0,0.0,0.0,0.0,0.0,1.074,1.0613,1.0592,1.2199,1.3083,1.2803,1.3911,1.4253,1.3478,1.3548,1.365,1.3721,1.3241,1.3359,1.411,1.5203,1.6502,1.7941,1.8268,1.9046,2.0137,1.8887,1.8529,1.8825,1.8366,0.0,0.0,0.0,0.0,0.0,0.0,0.0,0.0,0.0,0.0,0.0,0.0,0.0,0.0,0.0,0.0,0.0,0.0,0.0,0.0,0.0,0.0,0.0,0.0,0.0,0.0,0.0,0.0,0.0,0.0,0.0,0.0,0.0,0.0,0.0,0.0,0.0,0.0,0.0,1.4042,1.409,1.3656,1.5647,1.6179,0.0,0.0,0.0,0.0,0.0,0.0,0.0,0.0,0.0,1.2478,1.2456,1.2717,1.3238,1.3618,1.3884,1.3999,1.4018,1.3647,1.2967,1.2967,1.2712,1.2204,1.1585,1.1358,1.1346,1.072,1.0595,1.0661,0.0,0.0,0.0,0.0,0.7036,0.751,0.0,0.0,0.0,0.0,0.0,0.0,0.0,0.0,0.0,0.0,0.0,0.0,1.1534,1.1771,1.2045,1.2211,1.4061,1.4811,1.3789,1.4598,1.4548,1.3277,1.3278,1.3388,1.3548,1.3276,1.387,1.5349,1.6813,1.8211,1.9486,1.9672,2.0382,2.1461,2.0859,1.9986,1.8988,1.9362,1.8329,1.653,0.0,0.0,0.0,0.0,0.0,0.0,0.0,0.0,0.0,0.0,0.0,0.0,0.0,0.0,0.0,0.0,0.0,0.0,0.0,0.0,0.0,0.0,0.0,0.0,0.0,0.0,0.0,0.0,0.0,0.0,0.0,0.0,0.0,0.0,0.0,0.0,0.0,1.3857,1.3823,1.2813,1.5068,1.5955,0.0,0.0,0.0,0.0,0.0,0.0,1.4294,1.3357,1.2832,1.2821,1.3373,1.3832,1.4156,1.4089,1.4407,1.5136,1.4271,1.3764,1.3576,1.3576,1.3324,1.2886,1.2539,1.2345,1.2238,1.1455,1.0783,1.0234,1.0005,0.9392,0.8548,0.7688,0.7608,0.7926,0.0,0.0,0.0,0.0,0.0,0.0,0.0,0.0,0.0,0.0,0.0,1.3408,1.2361,1.3496,1.4206,1.391,1.457,1.4674,1.3844,1.3793,1.3573,1.3046,1.3022,1.3138,1.3405,1.4742,1.6153,1.7631,1.9118,2.0251,2.1089,2.1803,2.2161,2.2229,2.2195,2.1752,2.0963,1.9534,1.8025,1.6686,1.7887,0.0,0.0,0.0,0.0,0.0,0.0,0.0,0.0,0.0,0.0,0.0,0.0,0.0,0.0,0.0,0.0,0.0,0.0,0.0,0.0,0.0,0.0,0.0,0.0,0.0,0.0,0.0,0.0,0.0,0.0,0.0,0.0,0.0,0.0,0.0,0.0,0.0,0.0,1.1254,1.4064,0.0,0.0,0.0,0.0,1.3632,1.3059,1.3079,1.3702,1.337,1.375,1.5012,1.5027,1.5326,1.596,1.5484,1.4956,1.4465,1.4008,1.3508,1.2954,1.2954,1.2929,1.2905,1.2886,1.2856,1.2787,1.1867,1.1698,1.1938,1.0661,1.0479,1.0714,0.8835,0.8943,0.9973,0.0,0.0,0.0,1.5018,1.4883,1.4776,1.4703,1.4343,1.3793,1.3009,1.3299,1.3383,1.2874,1.4673,1.6028,1.6293,1.7476,1.7419,1.5539,1.5791,1.5038,1.2831,1.3158,1.3528,1.3839,1.6564,1.8152,1.8504,2.0504,2.162,2.1904,2.2192,2.2372,2.2506,2.2855,2.2675,2.2024,2.0871,1.9349,1.7759,1.8399,1.8095,0.0,0.0,0.0,0.0,0.0,0.0,0.0,0.0,0.0,0.0,0.0,0.0,0.0,0.0,0.0,0.0,0.0,0.0,0.0,0.0,0.0,0.0,0.0,0.0,0.0,0.0,0.0,0.0,0.0,0.0,0.0,0.0,0.0,0.0,0.0,0.0,0.0,1.4,1.5319,0.0,1.4797,1.5168,1.4852,1.341,1.4619,1.5167,1.4639,1.4851,1.5232,1.5694,1.5706,1.578,1.6024,1.5448,1.505,1.4846,1.4272,1.3878,1.3656,1.3408,1.3281,1.3271,1.2998,1.2905,1.2866,1.2526,1.2318,1.2108,1.1071,1.0969,1.1304,1.0301,1.0439,1.1052,0.0,1.4421,0.0,1.4483,1.4389,1.4375,1.4603,1.4221,1.3658,1.299,1.3688,1.4186,1.4063,1.6357,1.8161,1.8761,1.9323,1.8749,1.6675,1.6261,1.4994,1.257,1.3648,1.4682,1.5466,1.8508,1.9934,1.9684,2.1684,2.2533,2.2296,2.255,2.2653,2.2636,2.3417,2.3472,2.2947,2.2509,2.0951,1.8792,1.8947,1.8776,1.8282,0.0,0.0,0.0,0.0,0.0,0.0,0.0,0.0,0.0,0.0,0.0,0.0,0.0,0.0,0.0,0.0,0.0,0.0,0.0,0.0,0.0,0.0,0.0,0.0,0.0,0.0,0.0,0.0,0.0,0.0,0.0,0.0,0.0,0.0,0.0,1.4001,1.4752,1.5473,1.5744,1.536,1.5491,1.5233,1.4358,1.5722,1.6315,1.5644,1.5981,1.6104,1.5908,1.6033,1.6041,1.5791,1.5266,1.5001,1.4991,1.4387,1.4104,1.4068,1.3549,1.3245,1.3154,1.2969,1.2751,1.2569,1.2953,1.2842,1.2369,1.1807,1.1748,1.1995,1.168,1.1605,1.1601,1.3896,1.3176,1.2785,1.3488,1.3564,1.3736,1.44,1.4149,1.3699,1.3154,1.4742,1.5909,1.5909,1.8553,2.0558,2.1149,1.9786,1.8349,1.706,1.4927,1.3309,1.2355,1.4551,1.657,1.8256,2.0524,2.1553,2.1292,2.2716,2.3071,2.2381,2.3105,2.3155,2.2719,2.3971,2.4242,2.3786,2.4305,2.2716,1.9837,1.9586,1.8895,1.7934,0.0,0.0,0.0,0.0,0.0,0.0,0.0,0.0,0.0,0.0,0.0,0.0,0.0,0.0,0.0,0.0,0.0,0.0,0.0,0.0,0.0,0.0,0.0,0.0,0.0,0.0,0.0,0.0,0.0,0.0,0.0,0.0,0.0,0.9065,1.1279,1.3,1.3143,1.4306,1.5303,1.5775,1.5844,1.6003,1.6375,1.6163,1.6203,1.6561,1.6545,1.6251,1.5687,1.6084,1.5997,1.5362,1.5,1.4833,1.4805,1.4348,1.4143,1.4116,1.3332,1.2815,1.2596,1.2815,1.2528,1.1961,1.3042,1.3246,1.2925,1.2905,1.2905,1.2905,1.2905,1.2427,1.169,1.3965,1.4045,1.4082,1.3614,1.3787,1.4059,1.4252,1.3941,1.3444,1.2745,1.49,1.6475,1.6475,1.9158,2.1019,2.1187,1.9786,1.8219,1.6599,1.5188,1.456,1.4868,1.6492,1.831,2.0326,2.2464,2.3562,2.3594,2.4,2.4085,2.3898,2.4101,2.4281,2.4448,2.503,2.5079,2.4742,2.513,2.4478,2.3057,2.1853,2.0861,1.9983,0.0,0.0,0.0,0.0,0.0,0.0,0.0,0.0,0.0,0.0,0.0,0.0,0.0,0.0,0.0,0.0,0.0,0.0,0.0,0.0,0.0,0.0,0.0,0.0,0.0,0.0,0.0,0.0,0.0,0.0,0.0,1.0251,1.0795,1.1428,1.165,1.2407,1.4136,1.4917,1.559,1.6317,1.6767,1.6859,1.6432,1.669,1.6688,1.6262,1.5448,1.4936,1.4772,1.4601,1.4421,1.4249,1.4907,1.5244,1.5234,1.5089,1.503,1.502,1.4513,1.4228,1.4141,1.3886,1.3666,1.3437,1.2971,1.2994,1.3301,1.2998,1.2905,1.2905,1.2905,1.2427,1.1641,1.3408,1.3442,1.3374,1.2511,1.3048,1.3575,1.3613,1.3609,1.337,1.2714,1.5274,1.7076,1.6857,1.944,2.1055,2.072,1.9316,1.7658,1.5791,1.5109,1.561,1.7482,1.8845,2.0634,2.2951,2.4662,2.549,2.5422,2.5422,2.5269,2.4965,2.4965,2.4862,2.4713,2.5662,2.5584,2.4891,2.6024,2.6152,2.5531,2.49,2.3719,2.2107,2.023,1.961,1.9532,1.7899,1.8038,1.8732,1.6952,0.0,0.0,0.0,0.0,0.0,0.0,0.0,0.0,0.0,0.0,0.0,0.0,0.0,0.0,0.0,0.0,0.0,0.0,0.0,0.0,0.0,0.0,0.0,0.0,1.0695,1.1427,1.2372,1.2447,1.3168,1.5119,1.5542,1.5944,1.6571,1.6958,1.7063,1.683,1.6941,1.6879,1.6664,1.6026,1.5427,1.4894,1.5153,1.5042,1.4526,1.5309,1.5684,1.5684,1.5498,1.5508,1.5674,1.4917,1.4582,1.462,1.4289,1.3959,1.3656,1.3518,1.3387,0.0,0.0,0.0,0.0,0.0,1.178,1.1043,1.27,1.2279,1.1817,1.1054,1.1839,1.2609,1.275,1.3158,1.3325,1.2935,1.569,1.7475,1.6925,1.9319,2.0619,1.9816,1.8408,1.6792,1.5016,1.4933,1.6509,2.0015,2.1233,2.3061,2.5712,2.6785,2.7207,2.6962,2.6962,2.6573,2.5846,2.5846,2.5327,2.4489,2.6096,2.6074,2.4959,2.705,2.7693,2.7358,2.8042,2.6708,2.4162,2.2572,2.2309,2.2568,2.0711,2.0187,2.0145,1.8741,0.0,0.0,0.0,0.0,0.0,0.0,0.0,0.0,0.0,0.0,0.0,0.0,0.0,0.0,0.0,0.0,0.0,0.0,0.0,0.0,0.0,0.0,0.0,0.0,1.1361,1.1646,1.2562,1.3445,1.4466,1.5727,1.6019,1.6265,1.6736,1.6775,1.7002,1.749,1.708,1.7012,1.75,0.0,0.0,0.0,0.0,1.6583,1.5387,1.5873,1.6065,1.6016,1.5596,1.5615,1.5977,1.4766,1.4293,1.451,1.4293,1.3874,1.3442,1.4333,1.3905,1.2603,1.1366,1.1666,1.265,1.1607,1.0895,1.0377,1.3443,1.3151,1.2747,1.1845,1.1665,1.186,1.2467,1.2555,1.2776,1.337,1.5478,1.6703,1.6176,1.8057,1.9046,1.829,1.6881,1.5886,1.5562,1.5338,1.7205,2.1632,2.2381,2.4141,2.73,2.7894,2.8304,2.8553,2.8553,2.8146,2.7367,2.7367,2.7,2.6398,2.7222,2.7514,2.745,2.836,2.8718,2.8645,2.8797,2.7656,2.5787,2.5033,2.4193,2.331,2.2433,2.3116,2.3925,2.0482,1.998,2.0353,1.777,1.636,0.0,0.0,0.0,0.0,0.0,0.0,0.0,0.0,0.0,0.0,0.0,0.0,0.0,0.0,0.0,0.0,0.0,0.0,0.0,1.1443,1.1845,1.2511,1.3719,1.4024,1.4226,1.4467,1.545,1.6417,1.7181,1.7256,1.7578,1.8295,1.7686,1.7588,1.8315,1.6888,1.5928,1.5684,1.5581,1.5226,1.462,1.5586,1.5919,1.5537,0.0,0.0,1.5508,1.4606,1.4569,1.5177,1.4481,1.4486,1.4907,1.4251,1.305,1.1604,1.1555,1.1688,1.1841,1.1086,1.1081,1.1249,1.3405,1.3514,1.2968,1.0944,1.1595,1.2258,1.1864,1.24,1.2757,1.2475,1.4289,1.556,1.547,1.6524,1.7301,1.7449,1.5977,1.5662,1.7104,1.7838,1.981,2.3386,2.4353,2.5998,2.8582,2.8679,2.9157,3.011,2.9719,2.9347,2.8939,2.8569,2.8094,2.7575,2.8149,2.8148,2.7838,2.9047,2.9216,2.8774,2.9715,2.9028,2.7359,2.7034,2.6361,2.5533,2.4889,2.527,2.5687,2.3003,2.2323,2.2214,2.0117,1.8783,1.7576,0.0,0.0,0.0,0.0,0.0,0.0,0.0,0.0,0.0,0.0,0.0,0.0,0.0,0.0,1.0808,1.0686,0.0,1.1814,1.2482,1.3233,1.38,1.4118,1.4551,1.4996,1.5326,1.6118,1.7001,1.7906,1.7588,1.7777,1.888,1.7741,1.7472,1.8533,1.7509,1.6572,1.5913,1.6323,1.6135,1.5255,1.6246,1.6611,1.6396,1.6151,1.6182,1.6396,1.5733,1.5813,1.6356,1.5723,1.5668,1.5933,1.4531,1.3459,1.2625,1.1863,1.1284,1.0894,1.0894,1.0894,1.0828,1.2564,1.3329,1.3134,1.0499,1.1723,1.2692,1.1557,1.2434,1.288,1.1937,1.3272,1.4401,1.4591,1.4977,1.5475,1.611,1.5321,1.5844,1.8342,2.012,2.2352,2.5249,2.6295,2.7764,2.9813,2.9433,2.9873,3.119,3.0598,3.0243,3.0091,2.9482,2.8908,2.8384,2.8962,2.8715,2.803,2.963,2.9716,2.8898,3.0409,3.0016,2.8497,2.8381,2.8023,2.7495,2.6579,2.6182,2.589,2.4517,2.3582,2.2837,2.1755,2.0978,1.9794,1.6426,1.6372,0.0,0.0,0.0,0.0,0.0,0.0,0.0,0.0,0.0,1.1816,1.1506,1.1252,1.1233,1.1812,1.2361,1.2971,1.3649,1.4503,1.4869,1.4195,1.4734,1.5536,1.642,1.6983,1.7668,1.8653,1.8037,1.8097,1.9338,1.7979,1.7628,1.8786,1.8373,1.7643,1.6622,1.758,1.7557,1.6357,1.7144,1.7422,1.7256,1.6863,1.6882,1.7246,1.6725,1.6648,1.6956,1.6417,1.6265,1.6316,1.4901,1.4255,1.4031,1.2487,1.1289,1.051,1.0986,1.0818,1.0363,1.0511,1.2305,1.3839,1.2852,1.2239,1.1994,1.2307,1.2497,1.2839,1.3514,1.3655,1.3576,1.3249,1.3579,1.3562,1.2902,1.4676,1.6396,1.7724,1.9767,2.2873,2.7262,2.7264,2.838,3.1042,3.0365,3.0378,3.119,3.1106,3.0734,3.0108,3.0023,2.9599,2.8937,2.9666,2.9916,2.9854,3.0712,3.0684,3.0114,3.0318,2.9629,2.8511,2.8489,2.8112,2.737,2.5639,2.4712,2.4083,2.2605,2.1738,2.1227,2.0901,2.0372,1.942,1.7042,1.6165,1.5326,1.2533,1.1263,1.0917,1.1619,1.2068,1.2525,0.0,0.0,1.381,1.2904,1.3067,1.332,1.3079,1.3507,1.4013,1.4349,1.473,1.4818,1.4197,1.4208,1.4755,1.6089,1.7064,1.8055,1.91,1.9136,1.9275,1.9777,1.9294,1.9207,1.9709,1.8968,1.8475,1.8311,1.8465,1.8115,1.7251,1.772,1.7525,1.6775,1.6726,1.6726,1.6733,1.5978,1.5606,1.549,1.46,1.4681,1.544,1.5189,1.4815,1.4388,1.3833,1.2828,1.1678,1.1444,1.131,1.1216,1.0498,1.141,1.2474,1.3101,1.3082,1.2911,1.2719,1.305,1.3162,1.2727,1.254,1.2615,1.3113,1.4069,1.406,1.256,1.4292,1.6116,1.7596,2.036,2.3386,2.6611,2.7933,2.9115,3.0223,3.0369,3.0697,3.119,3.119,3.1038,3.0734,3.0734,3.0581,3.0277,3.0598,3.0734,3.0768,3.1072,3.0658,2.9805,3.0166,2.9128,2.7394,2.7342,2.6525,2.5252,2.4218,2.3012,0.0,2.119,2.0541,2.0093,2.0637,1.9559,1.7856,1.682,1.5948,1.516,1.4264,1.3528,1.3032,1.3109,1.352,1.3927,1.3879,1.395,1.4027,1.3959,1.4078,1.4255,1.4439,1.4855,1.5173,0.0,1.558,1.5578,1.4945,1.4703,1.4956,1.5796,1.6376,1.7101,1.8079,1.8348,1.8601,1.8807,1.8629,1.8795,1.9504,1.9209,1.8896,1.8607,1.8851,1.8437,1.7304,1.7462,1.6971,1.5819,1.5972,1.6043,1.6086,1.6561,1.7099,1.7596,1.7204,1.6788,1.6408,1.6678,1.6129,1.51,1.4626,1.3933,1.3098,1.1831,1.1389,1.1375,1.0883,1.1492,1.2244,1.3211,1.362,1.367,1.3246,1.3438,1.3375,1.2567,1.1793,1.1714,1.2769,1.3805,1.3828,1.2368,1.3807,1.5459,1.6987,2.012,2.3084,2.5715,2.7923,2.9286,2.9671,3.0317,3.0847,3.119,3.119,3.119,3.119,3.119,3.119,3.119,3.119,3.119,3.119,3.1015,3.024,2.9147,2.941,2.8115,2.6021,2.5779,2.4289,2.2262,2.1968,2.0826,1.9329,1.8831,1.8503,1.8433,1.9097,1.8156,1.6704,1.6245,1.5288,1.4496,1.5022,1.4835,0.0,1.4459,1.4724,1.4892,1.4397,1.4219,1.4238,1.469,1.4809,1.4963,1.5231,1.5621,1.5838,1.5712,1.5996,1.6035,1.5463,1.5077,1.5127,1.5842,1.5786,1.5941,1.6483,1.7606,1.8351,1.8583,1.862,1.8948,1.9639,1.9521,1.917,1.8552,1.8848,1.835,1.6896,1.7002,1.6523,1.5424,1.5606,1.5877,1.6235,1.727,1.8193,1.8912,1.8636,1.8091,1.7415,1.7887,1.7164,1.5724,1.5481,1.4773,1.3777,1.2406,1.1775,1.1663,1.1233,1.2972,1.4373,1.3719,1.3601,1.3724,1.4107,1.3503,1.3287,1.4032,1.2094,1.0941,1.1769,1.1871,1.1839,1.1636,1.3098,1.4461,1.5506,1.8288,2.1538,2.5252,2.6979,2.8553,3.0039,3.0419,3.0793,3.119,3.119,3.119,3.119,3.119,3.119,3.119,3.119,3.119,3.1151,3.0597,2.9592,2.8394,2.7814,2.6405,2.459,2.3946,2.1553,1.8559,1.8551,1.7855,1.6638,1.4887,1.4973,1.5748,1.5475,1.6044,1.659,1.5461,1.3938,1.2775,1.3617,1.3426,1.3276,1.4568,1.4858,1.489,1.5183,1.5097,1.4993,1.5013,1.5384,1.5625,1.5077,1.547,1.5705,1.5451,1.5631,1.5705,1.5431,1.4897,1.5014,1.6325,1.5625,1.4846,0.0,1.7322,1.9416,1.9826,2.0245,2.0527,2.0566,2.0127,1.9383,1.8326,1.8335,1.7602,1.6059,1.6481,1.6481,1.5967,1.5975,1.6569,1.7646,1.7813,1.7896,1.7896,1.6917,1.7021,1.7905,1.8334,1.7558,1.6244,1.6646,1.534,1.3233,1.3166,1.2779,1.2278,1.0288,1.0886,1.1546,1.1832,1.2271,1.2669,1.2854,1.2647,1.2554,1.2774,1.2107,0.0,0.0,0.0,0.0,0.0,1.2884,1.3509,1.4188,1.6864,1.9453,2.1788,2.5168,2.7248,2.7768,2.8943,2.9606,2.9738,2.9738,2.9738,2.9738,2.9738,2.9738,2.9738,2.9738,2.9738,2.97,2.9134,2.8176,2.6963,2.6397,2.5041,2.3161,2.1625,1.9799,1.7825,0.0,1.4447,1.3277,1.2745,1.2575,1.2657,1.3025,1.2939,1.2645,1.2393,1.2999,1.3861,1.4346,1.5347,1.6369,1.6683,1.6791,1.6734,1.6603,1.5887,1.5197,1.5048,1.4949,1.4606,1.3716,1.4238,1.4619,1.4019,1.4641,1.5257,1.5389,1.4556,1.4136,1.4821,1.4371,0.0,0.0,0.0,0.0,1.7144,1.925,2.0478,2.0146,2.0273,2.0052,1.9383,1.9678,1.915,1.7687,1.7819,1.7372,1.6258,1.6506,1.7269,1.856,1.8608,1.9034,1.9659,1.9333,1.9212,1.9268,1.9697,1.8979,1.7646,1.8118,1.6771,1.4612,1.4782,1.4027,1.295,0.0,1.0504,1.0852,1.1412,1.1654,0.0,0.0,0.0,0.0,0.0,0.0,0.0,0.0,0.0,0.0,0.0,0.0,1.2545,1.3129,1.4958,1.6746,1.8386,2.158,2.3327,2.335,2.5485,2.6701,2.6894,2.7756,2.818,2.818,2.818,2.818,2.818,2.818,2.818,2.8128,2.7174,2.6146,2.509,2.39,2.2554,2.1055,1.9064,1.7602,0.0,1.434,1.2689,1.1467,1.1439,1.1363,1.1279,1.1217,1.0989,1.0853,1.1603,1.3112,1.4783,1.5871,1.7295,1.8521,1.8727,1.8786,1.864,1.7906,1.6904,1.585,1.5067,1.449,1.3791,1.2666,1.2892,1.3215,1.3061,1.354,1.4244,1.4986,1.4342,1.3991,1.4613,1.427,1.4224,0.0,0.0,0.0,1.6758,1.8814,2.0049,1.9922,2.0185,2.012,1.9602,2.0001,1.9529,1.8101,1.7691,1.7052,1.6148,1.717,1.8136,1.8997,1.9402,1.9606,1.9736,2.0352,2.0072,1.9315,2.0245,1.9801,1.8557,1.8897,1.7795,1.6059,1.6195,1.5604,1.4649,0.0,0.0,1.2188,0.0,0.0,0.0,0.0,0.0,0.0,0.0,0.0,0.0,0.0,0.0,0.0,0.0,0.0,0.0,1.2283,1.2766,1.3735,1.531,1.6662,1.7409,1.7485,2.0509,2.2343,2.2871,2.5173,2.6302,2.6269,2.6319,2.6319,2.6269,2.6353,2.6319,2.6117,2.4646,2.3576,2.2737,2.049,1.9204,1.8422,1.6503,1.518,1.4255,1.368,1.2534,1.1225,1.0913,1.1222,1.1511,1.0184,1.0351,1.1406,1.3135,1.4277,1.5527,1.7993,1.9072,1.9667,2.0622,2.0777,2.0402,1.9148,1.799,1.668,1.5074,1.4091,1.3169,0.0,0.0,1.1723,1.2536,1.2511,1.2876,1.4309,1.4269,1.4472,0.0,0.0,0.0,0.0,0.0,0.0,1.8576,0.0,1.957,1.999,2.001,1.9717,1.9134,1.9466,1.8979,1.7464,1.6478,1.5951,1.6008,1.8109,1.9094,1.9152,2.0137,1.9726,1.8304,1.9899,1.9707,1.835,1.9947,2.0001,1.9076,1.9076,1.839,1.7383,1.7383,1.7342,1.7131,0.0,0.0,0.0,0.0,0.0,0.0,0.0,0.0,0.0,0.0,0.0,0.0,0.0,0.0,0.0,0.0,0.0,0.0,1.1318,1.2558,1.3413,1.37,1.5786,1.7092,1.7416,1.838,1.9137,1.9674,2.0378,2.0689,2.0605,2.12,2.1097,2.0505,2.1745,2.1325,1.9777,2.0886,2.0578,1.9249,1.8403,1.7899,1.7486,1.5938,1.5064,1.4545,1.3611,1.2858,1.2179,1.1323,1.1064,1.1235,1.1864,1.261,1.3568,1.5,1.6475,1.7906,1.9238,2.0615,2.1812,2.2356,2.1606,2.0505,1.9858,1.8037,1.6031,1.4202,1.3207,1.2075,0.0,0.0,0.0,1.2039,1.2929,0.0,1.4404,1.4269,0.0,1.4472,0.0,1.4545,1.5145,1.6935,0.0,0.0,1.9954,2.0928,2.1357,2.1387,2.1159,2.0665,2.0751,2.0478,1.9756,1.9511,1.95,1.9813,2.0074,2.0339,2.0636,2.0595,2.0362,1.9976,2.043,2.0362,2.0014,2.043,2.044,2.0196,2.0196,1.952,1.855,1.855,1.8029,1.7366,0.0,0.0,0.0,0.0,0.0,0.0,0.0,0.0,0.0,0.0,0.0,0.0,0.0,0.0,0.0,0.0,0.0,0.0,0.0,1.2123,1.2412,1.2141,1.3332,1.398,1.3924,1.5201,1.6056,1.645,1.7688,1.8267,1.8191,1.8535,1.8402,1.7938,1.8779,1.8394,1.722,1.8046,1.7857,0.0,0.0,1.6116,1.6443,1.5076,1.4638,1.4676,1.4068,1.3614,1.3184,1.2605,1.2383,1.2573,1.3887,1.4873,1.5928,1.7793,0.0,1.9972,2.1005,2.2187,2.3086,2.3091,2.2274,2.1132,1.9727,1.7926,1.5827,1.3279,1.2001,1.0956,0.975,0.9896,0.0,0.0,0.0,0.0,1.3817,1.4135,1.4329,0.0,1.4583,0.0,1.5562,1.7289,1.8547,0.0,2.0223,2.1133,2.1582,2.1602,2.1582,2.1523,2.1658,2.1327,2.0413,2.0923,2.1009,2.0772,2.0816,2.0986,2.1181,2.0771,2.0198,1.9554,0.0,2.0188,1.9564,2.0294,2.0605,2.0605,2.0605,2.0235,1.9678,1.9678,1.9313,1.8829,0.0,0.0,0.0,0.0,0.0,0.0,0.0,0.0,0.0,0.0,1.1422,1.1315,0.0,0.0,0.0,0.0,0.0,0.0,0.0,0.0,1.1528,1.1259,1.0892,1.0461,0.9952,1.2124,1.3358,1.355,1.5896,1.7024,1.7013,1.6842,1.6711,1.6578,1.654,1.6338,1.6028,1.5666,1.5461,1.528,1.4015,1.4373,1.5511,0.0,1.4293,1.4815,1.4638,1.4257,1.3874,1.4202,1.4435,1.4809,1.6098,1.7171,1.8359,2.0674,2.1405,2.1707,2.2867,2.3496,2.3701,2.3276,2.2734,2.1631,1.9231,1.7592,1.571,1.2506,1.0947,1.0121,0.989,0.8904,0.8896,1.1304,0.0,1.1693,1.3199,1.4162,1.4774,1.4874,1.517,1.5511,1.5751,1.7629,1.9011,1.9464,2.0374,2.1074,2.1424,2.1444,2.16,2.1963,2.2266,2.1796,2.0424,2.14,2.1419,2.0497,2.1046,2.1307,2.1346,2.0947,1.9947,1.8592,2.0053,1.9832,1.861,2.0072,2.0693,2.0693,2.0693,2.0654,2.0605,2.0605,2.0605,2.0605,0.0,0.0,0.0,0.0,0.0,0.0,0.0,0.0,0.0,0.0,1.2279,1.1948,0.0,0.0,0.0,0.0,0.0,0.0,0.0,0.0,0.0,1.3054,1.2523,1.2247,1.2315,1.2065,1.2029,1.2221,1.2747,1.2989,1.2936,1.3264,1.3021,1.2319,1.3446,1.29,1.1258,1.3225,1.3736,1.3226,1.3146,1.3982,1.5266,1.4972,0.0,0.0,1.4341,1.3504,1.3176,1.4853,1.5914,1.6764,1.8271,1.958,2.0752,2.1953,2.2496,2.2886,2.3516,2.373,2.3769,2.3691,2.2275,2.0596,1.9434,1.7044,0.0,1.2463,1.1256,1.0499,1.0185,1.0506,1.1454,1.339,1.3961,1.4208,1.4338,1.5356,1.5617,0.0,1.4923,1.5511,1.5751,1.7773,0.0,0.0,0.0,2.2682,2.276,2.2769,2.2643,2.2412,2.2139,2.187,2.1617,2.1792,2.1967,2.2086,2.189,2.1953,2.2275,2.1846,2.1296,2.0701,2.0975,0.0,2.0661,2.0975,2.1123,2.1123,2.1123,2.0889,2.0605,2.0605,2.0605,2.0605,0.0,0.0,0.0,0.0,0.0,0.0,1.1944,1.2337,1.2724,1.3117,1.3263,1.3374,1.3456,1.2968,1.2827,0.0,0.0,0.0,0.0,0.0,0.0,0.0,0.0,0.0,1.2907,1.2513,0.0,0.0,0.0,1.2715,1.269,0.0,0.0,1.1946,1.2499,1.204,1.0952,1.1964,1.2414,1.2433,1.2318,1.3448,0.0,0.0,0.0,0.0,0.0,1.3672,1.395,1.4248,1.5533,1.7437,1.9867,2.1222,2.2021,2.2666,2.331,2.3799,2.3799,2.4386,2.4885,2.4331,2.3104,2.1282,1.8624,0.0,0.0,1.1289,1.0341,1.0029,1.0083,1.0407,0.0,1.2976,1.3531,1.3941,1.4425,1.5094,1.5495,1.5519,1.5995,1.6605,0.0,1.8917,2.0,0.0,0.0,2.2867,2.3081,2.3091,2.3003,2.2799,2.2646,2.2539,2.2539,2.2539,2.2637,2.2789,2.2412,2.2314,2.25,2.208,2.1777,2.1572,2.1572,0.0,2.0,2.1078,2.0922,1.999,2.0855,2.1064,2.0889,2.0693,2.0605,2.0605,0.0,0.0,0.0,0.0,0.0,0.0,1.2614,1.3078,1.3243,1.3078,1.3747,1.437,1.4708,1.3588,1.3257,0.0,0.0,0.0,0.0,0.0,0.0,0.0,0.0,0.0,0.0,0.0,0.0,0.0,0.0,0.0,0.0,0.0,0.0,0.0,0.0,0.0,1.1413,1.1065,1.1329,0.0,0.0,0.0,0.0,0.0,0.0,0.0,0.0,1.4132,1.4547,1.395,1.4841,1.6706,1.9857,2.1494,2.2358,2.2695,2.355,2.4364,2.4316,2.5182,2.596,2.5294,2.4071,2.2021,1.8146,1.599,1.3842,1.0385,0.9578,0.9677,1.0214,1.0289,1.08,0.0,1.2923,1.3329,1.4237,1.49,1.5561,0.0,1.71,0.0,1.8118,1.948,0.0,0.0,0.0,0.0,2.3081,2.3091,2.3091,2.3091,2.3091,2.3091,2.3091,2.3091,2.3091,2.3091,2.276,2.2646,2.2637,2.2305,2.2109,2.2021,2.2021,0.0,0.0,2.114,2.069,1.8876,2.0668,2.126,2.1045,2.0732,2.0605,2.0605,0.0,0.0,0.0,0.0,0.0,0.0,1.1205,1.2357,1.3041,1.232,1.2908,1.3789,1.477,1.4644,1.4246,0.0,0.0,0.0,0.0,0.0,0.0,0.0,0.0,0.0,0.0,0.0,0.0,0.0,0.0,0.0,0.0,0.0,0.0,0.0,0.0,0.0,0.0,1.0088,0.0,0.0,0.0,0.0,0.0,0.0,0.0,0.0,0.0,1.4646,1.3706,1.5364,1.4818,1.3925,1.6617,1.9369,2.16,2.1489,0.0,0.0,2.5619,2.5993,2.6201,2.6755,2.4481,2.1531,1.924,0.0,1.3271,1.1039,1.0193,1.0166,1.1171,1.1362,1.1938,1.3745,1.4058,1.4106,1.4284,1.5987,1.6597,1.4917,0.0,0.0,1.627,1.7985,0.0,0.0,0.0,0.0,2.3091,2.3091,2.3091,2.3091,2.3091,2.3091,2.3091,2.3091,2.3091,2.3091,2.3052,2.3033,2.3033,2.3003,2.2769,2.2451,2.2451,0.0,0.0,2.1572,2.0948,1.8904,2.0995,2.1328,2.0664,2.0615,2.0605,2.0605,0.0,0.0,0.0,0.0,0.0,0.0,1.1746,1.2577,1.3004,1.221,1.2802,1.3671,1.4668,1.4737,1.4606,1.4363,1.4564,0.0,0.0,0.0,0.0,0.0,0.0,0.0,0.0,0.0,1.3774,1.3176,1.3616,0.0,0.0,0.0,0.0,0.0,0.0,0.0,0.0,0.0,0.0,0.0,0.0,0.0,0.0,0.0,0.0,0.0,0.0,0.0,1.3633,1.3799,1.36,1.3297,1.3466,1.5567,1.8271,0.0,2.1223,2.2948,2.48,2.602,2.6756,2.7051,2.5142,2.2363,1.92,0.0,1.352,1.1034,1.0353,1.0341,1.0763,1.1233,1.177,1.242,1.2851,0.0,1.4124,1.498,1.5715,1.6301,1.7636,0.0,0.0,0.0,0.0,0.0,0.0,0.0,2.3062,2.3091,2.3091,2.3091,2.3091,2.3091,2.3091,2.3091,2.3091,2.3091,2.3091,2.3091,2.3091,2.3091,2.3003,2.2847,2.2847,0.0,0.0,2.1688,2.091,1.8193,2.0882,2.1514,2.0937,2.0703,2.0605,2.0605,0.0,0.0,0.0,0.0,0.0,1.3095,1.2257,1.2858,1.3002,1.193,1.2676,1.3589,1.4268,1.4518,1.4697,1.4822,1.4756,0.0,0.0,0.0,0.0,0.0,0.0,0.0,0.0,0.0,1.3914,1.2957,1.3464,1.3845,0.0,0.0,0.0,0.0,0.0,0.0,0.0,0.0,0.0,0.0,0.0,0.0,0.0,0.0,0.0,0.0,0.0,0.0,0.0,0.0,0.0,1.2744,1.1495,1.2551,1.4718,1.7207,1.9522,2.1779,2.3992,2.5899,2.7367,2.76,2.5546,2.264,1.9333,0.0,1.337,1.1029,1.0544,1.0614,1.0833,1.1207,1.1533,1.1678,1.2185,1.2815,1.3579,1.432,1.5293,0.0,0.0,1.8263,0.0,0.0,0.0,0.0,0.0,0.0,2.3062,2.3091,2.3091,2.3091,2.3091,2.3091,2.3091,2.3091,2.3091,2.3091,2.3091,2.2964,2.273,2.2984,2.2955,2.2783,2.2984,0.0,0.0,2.1755,2.09,1.8036,2.0668,2.1426,2.0996,2.0684,2.0605,2.0605,0.0,0.0,0.0,0.0,0.0,1.3285,1.2333,1.2984,1.2969,1.1236,1.2408,1.3435,1.3495,1.4109,1.4561,1.4697,1.4707,0.0,0.0,0.0,0.0,0.0,0.0,0.0,1.3913,1.5445,1.5679,1.4487,1.4487,1.4858,1.5544,1.4082,1.3396,0.0,0.0,0.0,0.0,0.0,0.0,0.0,0.0,0.0,1.4754,0.0,0.0,0.0,0.0,0.0,0.0,0.0,0.0,0.0,0.0,1.082,1.1299,1.4119,1.7962,2.1693,2.3532,2.591,2.804,2.871,2.5565,2.1829,1.9925,1.6087,1.2522,1.1158,1.0897,1.112,1.1847,1.1556,1.1459,1.2268,1.2672,0.0,1.2546,1.4568,1.5886,0.0,0.0,1.799,0.0,0.0,0.0,0.0,0.0,0.0,2.3047,2.3091,2.3091,2.3091,2.3091,2.3091,2.3091,2.3091,2.3091,2.3091,2.3091,2.2662,2.1924,2.2754,2.2685,2.1943,0.0,0.0,0.0,2.1803,2.0986,1.8857,2.0562,2.0967,2.0615,2.0605,2.0605,2.0605,0.0,0.0,0.0,0.0,0.0,0.0,1.3292,1.2942,1.2587,1.2034,1.2315,1.2794,1.336,1.4069,1.4516,1.4567,1.4567,0.0,0.0,0.0,0.0,0.0,0.0,0.0,1.3179,1.4143,1.4108,1.3007,1.3498,1.3862,1.4082,1.3616,1.305,1.2431,1.2278,0.0,0.0,0.0,0.0,0.0,0.0,1.5405,1.5469,0.0,0.0,0.0,0.0,0.0,0.0,0.0,0.0,0.0,0.0,0.0,0.0,1.1773,1.4093,1.6908,1.9376,2.0621,2.1426,2.1993,2.0382,1.8221,1.648,1.4469,1.2623,1.1412,1.1173,1.124,1.1476,1.1345,1.1475,1.2328,1.2434,1.2898,0.0,0.0,0.0,1.7113,1.7703,0.0,0.0,0.0,0.0,0.0,0.0,0.0,2.3018,2.3091,2.3091,2.3091,2.3091,2.3091,2.3091,2.3091,2.3091,2.3091,2.3091,2.2705,2.1914,2.2711,2.2643,0.0,0.0,0.0,0.0,2.2032,2.1322,1.9611,2.077,2.1332,2.1555,2.1555,2.2,2.2601,0.0,0.0,0.0,0.0,0.0,0.0,1.3815,1.3263,1.2728,1.2038,1.2398,1.2774,1.2896,1.3853,1.4493,1.4493,1.4493,0.0,0.0,0.0,0.0,0.0,0.0,0.0,1.3243,1.3963,1.3676,1.2297,1.2671,1.2916,1.2982,1.2916,1.2748,1.2531,1.2654,1.2385,0.0,0.0,0.0,0.0,1.5316,1.5552,1.5559,0.0,0.0,0.0,0.0,0.0,0.0,0.0,0.0,0.0,0.0,0.0,0.0,0.0,1.1395,1.3217,1.6399,1.7861,1.859,1.8933,1.7686,1.6094,1.4957,1.3482,1.2161,1.1457,1.1637,1.1797,1.1352,1.1282,1.1515,1.2106,1.2177,1.277,0.0,0.0,0.0,1.7648,0.0,0.0,0.0,0.0,0.0,0.0,0.0,0.0,2.3018,2.3091,2.3091,2.3091,2.3091,2.3091,2.3091,2.3091,2.3091,2.3091,2.3091,2.2574,2.167,2.2633,2.2545,0.0,0.0,0.0,0.0,2.2363,2.1777,2.0732,2.1451,2.1849,2.2027,2.244,2.2962,2.3514,0.0,0.0,0.0,0.0,0.0,0.0,0.0,1.3882,1.3294,1.1589,1.2655,1.3223,1.2298,1.3563,1.4493,1.4493,1.4493,0.0,0.0,0.0,0.0,0.0,0.0,1.5052,1.3913,1.4618,1.4111,1.2281,1.2147,1.2147,1.2281,1.2197,1.2606,1.3396,1.3447,1.3481,1.3515,1.393,1.4537,1.5184,1.5294,1.5353,0.0,0.0,0.0,0.0,0.0,0.0,0.0,0.0,0.0,0.0,0.0,0.0,0.0,0.0,0.0,0.0,0.0,1.6798,1.8404,1.8404,1.6731,1.5036,1.4799,1.2969,0.0,1.1414,1.2263,1.2662,1.1562,1.1495,1.1644,1.1845,1.2029,1.2515,0.0,1.4872,0.0,0.0,0.0,0.0,0.0,0.0,0.0,0.0,0.0,0.0,2.3047,2.3091,2.3091,2.3091,2.3091,2.3091,2.3091,2.3091,2.3062,2.3003,2.3062,2.2409,2.119,2.2506,2.2418,0.0,0.0,0.0,0.0,2.2604,2.2217,2.191,2.2455,2.2415,2.2215,2.322,2.3672,2.3697,0.0,0.0,0.0,0.0,0.0,0.0,0.0,0.0,0.0,0.0,1.3283,1.337,1.3114,1.3937,1.4493,0.0,0.0,0.0,0.0,0.0,0.0,0.0,1.4526,1.4342,1.3913,1.3926,1.3324,1.2072,1.2538,1.2522,1.2081,1.3119,1.3524,1.343,1.3988,1.4233,1.4284,1.4944,1.5504,1.5999,1.6559,1.6505,0.0,0.0,0.0,0.0,1.343,1.2696,0.0,0.0,0.0,0.0,0.0,0.0,0.0,0.0,1.0219,1.0106,1.101,0.0,1.2416,1.2416,1.2329,1.2256,0.0,1.1925,1.1862,1.2459,1.2808,1.2983,1.289,1.2666,1.2726,1.3423,1.3028,1.3201,1.4831,0.0,0.0,0.0,0.0,0.0,0.0,0.0,0.0,0.0,0.0,2.1845,2.3047,2.3091,2.3091,2.3091,2.3091,2.3091,2.3091,2.3091,2.2769,2.2187,2.2789,2.2295,2.0781,2.2402,2.2584,0.0,0.0,0.0,2.2627,2.2207,2.1777,2.1418,2.1971,2.2574,2.3257,2.4264,2.5146,2.5791,0.0,0.0,0.0,0.0,0.0,0.0,0.0,0.0,0.0,0.0,1.3803,1.3809,1.3269,1.3974,1.4318,0.0,0.0,0.0,0.0,0.0,0.0,1.4506,1.4301,1.4116,1.3888,1.3699,1.3059,1.1951,1.2236,1.2047,1.1464,1.2474,1.2927,1.2931,1.3667,1.4182,1.4545,1.5111,1.5785,1.6459,1.6909,0.0,0.0,0.0,0.0,0.0,1.3198,1.2407,0.0,1.1831,1.1131,1.0369,0.0,0.0,0.0,0.0,1.0494,1.0206,0.9968,1.0199,1.0663,1.1191,1.14,1.1621,1.2144,1.2011,1.1984,1.2645,1.2775,1.2815,1.2922,1.2432,1.2419,1.3666,1.2957,0.0,0.0,0.0,0.0,0.0,0.0,0.0,0.0,0.0,0.0,0.0,0.0,2.2403,2.3057,2.3091,2.3091,2.3091,2.3091,2.3091,2.3091,2.3091,2.2715,2.1894,2.2539,2.2158,2.0908,2.2051,2.2422,0.0,0.0,0.0,2.2451,2.1621,2.126,2.1321,2.2545,2.3196,2.3672,2.5146,2.6025,2.6499,0.0,0.0,0.0,0.0,0.0,0.0,0.0,0.0,0.0,0.0,0.0,0.0,0.0,0.0,0.0,0.0,0.0,0.0,0.0,0.0,1.4118,1.4399,1.4225,1.4024,1.3863,1.3671,1.3012,1.1843,1.1795,1.1454,1.088,1.1599,1.2179,1.2669,1.3286,1.3971,1.4705,1.514,1.5936,1.6866,1.6934,0.0,0.0,0.0,0.0,0.0,0.0,0.0,0.0,1.1791,1.1332,1.083,1.1007,0.0,0.0,0.0,0.0,0.0,1.0198,1.0523,1.1171,1.2112,1.1974,1.1925,1.3137,1.2513,1.1901,1.2649,1.2819,1.2801,0.0,1.226,0.0,0.0,0.0,0.0,1.667,0.0,0.0,0.0,0.0,0.0,0.0,0.0,0.0,0.0,0.0,2.3091,2.3091,2.3091,2.3091,2.3091,2.3033,2.3003,2.3003,2.3062,2.2643,2.1787,2.2344,2.2087,2.121,2.1758,2.2178,2.2451,0.0,0.0,2.2227,2.1123,2.085,2.1282,2.3127,2.3698,2.3734,2.5484,2.6205,2.628,0.0,0.0,0.0,0.0,0.0,0.0,0.0,0.0,0.0,0.0,0.0,0.0,0.0,0.0,0.0,0.0,0.0,0.0,0.0,1.2964,1.3307,1.3954,1.3795,1.3686,1.3655,1.3493,1.2841,1.1656,1.2189,1.1998,1.117,1.268,1.3651,1.4165,1.4284,1.474,1.5477,1.6163,1.6916,1.7631,1.7631,0.0,0.0,0.0,0.0,0.0,0.0,0.0,0.0,1.3276,1.2428,1.1454,1.2361,0.0,0.0,0.0,0.0,0.0,1.0899,1.1556,1.214,1.2058,1.162,1.1575,1.3064,1.2264,1.1789,1.3785,0.0,0.0,0.0,1.492,1.5145,0.0,0.0,1.7122,0.0,0.0,0.0,0.0,0.0,0.0,0.0,0.0,0.0,0.0,0.0,2.3091,2.3091,2.3091,2.3091,2.3091,2.275,2.2607,2.2607,2.2916,2.2487,2.1307,2.2448,2.236,2.122,2.2051,2.2451,2.248,0.0,2.1592,2.1375,2.1171,2.0947,2.082,2.1925,2.2804,2.3579,2.4284,2.4845,2.5229,0.0,0.0,0.0,0.0,0.0,0.0,0.0,0.0,0.0,0.0,0.0,0.0,0.0,0.0,0.0,0.0,0.0,0.0,0.0,1.2835,1.3386,1.3711,1.358,1.3534,1.3609,1.347,1.3058,1.2354,1.2516,1.1994,1.0832,1.1762,1.2803,1.3921,1.4318,1.4909,1.5646,1.6384,1.7128,1.78,0.0,0.0,0.0,0.0,0.0,0.0,0.0,0.0,0.0,0.0,1.3165,1.2198,1.2685,0.0,0.0,0.0,0.0,0.0,1.0508,1.0985,1.1756,1.2867,1.2638,1.2497,1.3927,1.2622,1.1774,1.4159,0.0,0.0,0.0,0.0,1.4655,1.5777,0.0,1.9627,0.0,0.0,0.0,0.0,0.0,0.0,0.0,0.0,0.0,0.0,0.0,0.0,2.3091,2.3091,2.3091,2.3091,2.2734,2.251,2.251,2.248,2.2051,2.121,2.207,2.2158,2.1602,2.1992,2.2295,2.2451,0.0,2.0977,2.1142,2.0478,2.0332,2.0673,2.1621,2.2291,2.2866,2.4141,2.4802,2.5004,0.0,0.0,0.0,0.0,0.0,0.0,0.0,0.0,0.0,0.0,0.0,0.0,0.0,0.0,0.0,0.0,0.0,0.0,0.0,1.2741,1.3367,1.3539,1.3445,1.3454,1.3556,1.3462,1.3277,1.3004,1.2625,1.1925,1.0975,1.1034,1.195,1.358,1.4392,1.5061,1.5663,1.657,1.727,1.78,0.0,0.0,0.0,0.0,0.0,0.0,0.0,0.0,0.0,0.0,0.0,0.0,0.0,0.0,0.0,1.1097,1.0886,1.066,1.0301,1.0482,1.1238,1.3189,1.3185,1.3222,1.5138,1.3603,1.2452,1.4969,1.3696,0.0,0.0,1.4436,0.0,1.6948,1.9572,0.0,0.0,0.0,0.0,0.0,0.0,0.0,0.0,0.0,0.0,0.0,0.0,0.0,2.3091,2.3003,2.2945,2.2945,2.2438,2.2217,2.2217,2.1787,2.1465,2.12,2.168,2.1836,2.1738,2.1738,2.1904,2.2139,2.0693,2.0449,2.0996,2.0,2.0008,2.0673,2.1403,2.1748,2.1992,2.37,2.4231,2.4139,0.0,0.0,0.0,0.0,0.0,0.0,0.0,0.0,0.0,0.0,0.0,0.0,0.0,0.0,0.0,0.0,0.0,0.0,1.2215,1.2345,1.2701,1.3379,1.3405,1.3405,1.3413,1.3405,1.3277,1.3004,1.2296,1.209,1.2342,1.1793,1.2398,1.3995,1.5047,1.5544,1.5697,1.7117,1.7749,1.78,1.78,0.0,0.0,0.0,0.0,0.0,0.0,0.0,0.0,0.0,0.0,0.0,0.0,0.0,1.1992,1.0795,1.066,1.093,1.1071,1.1035,1.1204,1.2189,1.2151,1.2835,1.6486,1.5439,1.4428,1.6977,1.7025,0.0,0.0,1.7051,1.76,1.8905,2.0644,0.0,0.0,0.0,0.0,0.0,0.0,0.0,0.0,0.0,0.0,0.0,0.0,0.0,2.3091,2.2773,2.2559,2.2559,2.1717,2.1288,2.1288,2.0889,2.085,2.12,2.168,2.167,2.1239,2.1239,2.1259,2.1259,2.0752,2.0595,2.0644,2.0546,2.0546,2.0605,2.0673,2.0941,2.134,2.1982,2.1903,2.1523,0.0,0.0,0.0,0.0,0.0,0.0,0.0,0.0,0.0,0.0,0.0,0.0,0.0,0.0,0.0,0.0,0.0,0.0,1.2288,1.2728,1.31,1.3396,1.3396,1.332,1.3156,1.2874,1.2427,1.1812,1.0866,1.1131,1.2475,1.1291,1.1898,1.4021,1.4473,1.4752,1.5011,1.6492,1.7128,1.7162,1.7625,1.78,0.0,0.0,0.0,0.0,0.0,0.0,0.0,0.0,1.4982,1.3913,1.3531,1.2503,1.133,1.0856,1.0509,1.03,1.0366,1.0872,1.1602,1.2555,1.2986,1.3799,1.616,1.5342,1.4818,1.7379,1.7342,0.0,0.0,0.0,1.9245,2.0007,0.0,0.0,0.0,0.0,0.0,0.0,0.0,0.0,0.0,0.0,0.0,0.0,0.0,0.0,2.2721,2.2598,2.2393,2.2129,2.1502,2.119,2.119,2.0791,2.0693,2.082,2.1269,2.1533,2.1641,2.1641,2.1494,2.1181,2.1055,2.082,2.0605,2.0605,2.0605,2.0605,2.0605,2.1054,2.1711,2.1927,2.2259,2.2574,0.0,0.0,0.0,0.0,0.0,0.0,0.0,0.0,0.0,0.0,0.0,0.0,0.0,0.0,0.0,0.0,0.0,0.0,1.253,1.2992,1.3234,1.3148,1.3148,1.296,1.2543,1.2215,1.1815,1.1349,1.0109,1.0415,1.2129,1.0621,1.1284,1.374,1.3678,1.3882,1.4338,1.5657,1.6353,1.6627,1.7231,1.758,0.0,0.0,0.0,0.0,0.0,0.0,0.0,0.0,1.5185,1.4335,1.3799,1.2733,1.154,1.0921,1.0428,1.0054,0.993,1.065,1.1664,1.2553,1.326,1.4315,1.6483,1.6087,1.5963,1.8326,1.8235,1.7801,1.812,0.0,0.0,0.0,0.0,0.0,0.0,0.0,0.0,0.0,0.0,0.0,0.0,0.0,0.0,0.0,0.0,0.0,0.0,2.2383,2.2119,2.1699,2.125,2.1025,2.1025,2.0723,2.0605,2.0605,2.0879,2.1182,2.1505,2.1505,2.1309,2.1025,2.1025,2.0771,2.041,2.0546,2.0517,2.04,2.04,2.0673,2.1135,2.1135,2.1755,2.2477,0.0,0.0,0.0,0.0,0.0,0.0,0.0,0.0,1.6927,1.6927,1.6236,0.0,0.0,0.0,0.0,0.0,0.0,0.0,1.2983,1.3004,1.2887,1.262,1.2601,1.2252,1.1528,1.1496,1.1613,1.1885,1.028,1.0152,1.1385,0.9962,1.0698,1.3191,1.2856,1.3074,1.3758,1.4769,1.562,1.6293,1.6576,1.7117,1.7738,0.0,0.0,0.0,0.0,0.0,0.0,0.0,1.5799,1.5487,1.3839,1.3297,1.2907,1.0993,1.0456,1.0409,1.0017,1.0496,1.1257,1.1934,1.2657,1.4176,1.7862,1.8127,1.8196,2.018,2.0263,1.9912,1.9912,1.959,0.0,0.0,0.0,0.0,0.0,0.0,0.0,0.0,0.0,0.0,0.0,0.0,0.0,0.0,0.0,0.0,0.0,2.2109,2.168,2.119,2.0791,2.0605,2.0595,2.0605,2.0605,2.0605,2.0605,2.0605,2.0605,2.0605,2.0605,2.0605,2.0595,2.0351,1.9941,2.041,2.0341,1.9912,1.9912,1.9648,1.9287,1.9287,1.9873,2.0603,0.0,0.0,0.0,0.0,0.0,0.0,0.0,0.0,1.8592,1.8592,1.8379,0.0,0.0,0.0,0.0,0.0,0.0,0.0,1.3311,1.3103,1.2961,1.2887,1.2696,1.2409,1.1995,1.1474,1.11,1.084,0.975,1.0137,1.1871,1.0845,1.1378,1.3226,1.3591,1.3441,1.3043,1.4797,1.5127,1.4524,1.5119,1.5779,1.6383,0.0,0.0,0.0,0.0,0.0,0.0,0.0,0.0,0.0,1.4509,1.341,1.2351,1.2526,1.1385,1.0163,1.057,1.0854,1.1122,1.157,1.3105,1.5118,1.7305,1.7854,1.8719,2.139,2.0843,2.009,2.0703,2.1222,0.0,0.0,0.0,0.0,0.0,0.0,0.0,0.0,0.0,0.0,0.0,0.0,0.0,0.0,0.0,0.0,0.0,2.1453,2.1044,2.0332,2.0469,2.0458,2.0107,2.0449,2.0605,2.0605,2.0605,2.0605,2.0605,2.0605,2.0972,2.1573,2.1189,2.1334,2.1807,2.0938,2.033,1.9883,1.959,1.9394,1.9287,1.9287,2.0257,2.1494,0.0,0.0,0.0,0.0,0.0,0.0,0.0,0.0,1.9297,1.9297,1.9297,1.9113,0.0,0.0,0.0,0.0,0.0,0.0,1.3738,1.3425,1.3096,1.27,1.2426,1.2205,1.2034,1.1338,1.0975,1.0968,0.9975,1.0248,1.1678,1.0836,1.1238,1.2645,1.2798,1.2636,1.2374,1.3724,1.4006,1.3584,1.4138,1.4942,1.5787,0.0,0.0,0.0,0.0,0.0,0.0,0.0,0.0,0.0,1.4886,1.4086,1.3205,1.2941,1.1963,1.0993,1.1085,1.1618,1.2299,1.3086,1.4843,1.6781,1.8311,0.0,0.0,0.0,2.164,2.0948,2.1817,2.2137,0.0,0.0,0.0,0.0,0.0,0.0,0.0,0.0,0.0,0.0,0.0,0.0,0.0,0.0,0.0,0.0,0.0,2.1064,2.0644,1.9932,2.0166,2.0098,1.9668,2.0302,2.0517,2.0303,2.0303,2.0494,2.0865,2.1074,2.1566,2.223,2.1503,2.1784,2.2588,2.1344,2.0488,1.9865,1.964,1.9237,1.8779,1.8779,1.992,2.1364,0.0,0.0,1.5931,1.6652,0.0,0.0,0.0,0.0,1.9297,1.9297,1.9297,1.9297,0.0,0.0,0.0,1.7533,0.0,0.0,0.0,1.3966,1.3357,1.2375,1.198,1.1805,1.1805,1.1196,1.1196,1.1805,1.0705,1.0507,1.1141,1.0417,1.0683,1.1775,1.1286,1.1346,1.1816,1.2182,1.2654,1.3185,1.3426,1.4377,1.5583,1.5271,0.0,0.0,0.0,0.0,0.0,0.0,0.0,0.0,1.5019,1.4946,1.4718,1.2685,1.2279,1.2332,1.1676,1.2526,1.3955,1.5497,1.7172,1.8859,2.047,2.1443,2.221,2.2916,0.0,2.2139,2.2945,2.251,2.2246,0.0,0.0,0.0,0.0,0.0,0.0,0.0,0.0,0.0,0.0,0.0,0.0,0.0,0.0,0.0,0.0,2.0732,2.0283,1.9814,1.9834,1.9658,1.9238,2.0077,2.0282,1.9853,1.9853,2.0356,2.1293,2.1611,2.2056,2.2525,2.1767,2.1925,2.2608,2.1666,2.0729,1.9902,1.986,1.91,1.8008,1.8008,1.9044,2.0494,0.0,0.0,1.5747,1.5931,0.0,0.0,0.0,0.0,1.9297,1.9297,1.9297,1.9297,1.9297,1.8777,0.0,1.7551,1.6899,0.0,0.0,1.4782,1.4148,1.3404,1.2363,1.1805,1.1805,1.1655,1.1655,1.1805,1.1027,1.0987,1.1644,1.1467,1.1536,1.1835,1.2762,1.2646,1.1865,1.2986,1.2931,1.213,1.2184,1.3012,1.4217,1.4144,1.4858,0.0,0.0,0.0,0.0,0.0,0.0,0.0,1.5101,1.431,1.3719,1.3586,1.2554,1.1664,1.2737,1.2515,1.2486,1.4559,1.7318,2.0076,2.2089,2.2717,2.2797,2.266,2.2236,2.2139,2.2945,2.2945,0.0,0.0,0.0,0.0,0.0,0.0,0.0,0.0,0.0,0.0,0.0,0.0,0.0,0.0,0.0,0.0,2.0215,2.0107,1.9697,1.89,1.9238,1.9209,1.8744,1.9297,1.9512,0.0,1.9424,2.0257,2.1776,2.0468,2.0466,2.1576,2.2842,2.3083,2.2486,2.1975,2.1037,1.987,1.9548,1.8835,1.8008,1.8008,1.8654,1.9694,0.0,0.0,0.0,0.0,0.0,0.0,0.0,0.0,1.9277,1.9174,1.9158,1.9117,1.8972,1.8633,0.0,0.0,1.7466,1.6898,1.6164,1.572,1.488,1.3579,1.2713,1.213,1.1805,1.1805,1.1805,1.1805,1.1579,1.1498,1.1571,1.186,1.2003,1.2079,1.2736,1.2748,1.2299,1.2673,1.2448,1.1835,1.216,1.2882,1.3842,1.4169,1.4916,1.5827,1.5997,0.0,0.0,0.0,0.0,0.0,0.0,0.0,1.439,1.3837,1.2849,1.2074,1.2544,1.272,1.3529,1.6778,0.0,2.1485,2.2813,2.3104,2.3018,2.285,2.2637,2.2617,2.3013,0.0,0.0,0.0,0.0,0.0,0.0,0.0,0.0,0.0,0.0,0.0,0.0,0.0,0.0,0.0,0.0,2.0419,1.9941,1.9727,1.9316,1.8627,1.8857,1.8734,1.8305,1.8975,1.9387,1.9586,1.9586,2.0188,2.1319,2.1498,2.2058,2.2962,2.3386,2.3437,2.3157,2.2384,2.1608,2.0785,1.9846,1.9132,1.862,1.862,1.9177,2.0009,0.0,0.0,0.0,0.0,0.0,0.0,0.0,0.0,0.0,1.8958,1.8931,1.8861,1.8614,1.8361,1.8198,0.0,0.0,0.0,1.6925,1.6514,1.5473,1.3623,1.3167,1.261,1.188,1.188,1.1811,1.1714,1.2043,1.2099,1.1911,1.234,1.2602,1.2725,1.2679,1.2712,1.2759,1.2328,1.2149,1.2194,1.2759,1.3361,1.4021,1.4588,1.5215,1.5813,1.587,1.6052,1.6301,1.6301,0.0,0.0,0.0,0.0,1.5254,1.3735,1.3164,1.2865,1.2177,1.3179,1.5345,1.9207,2.1092,0.0,2.2859,2.2972,2.2971,2.2998,2.3042,2.3091,2.3091,0.0,0.0,0.0,0.0,0.0,0.0,0.0,0.0,0.0,0.0,0.0,0.0,0.0,0.0,0.0,0.0,2.0156,1.9717,1.9365,1.8975,1.851,1.849,1.8325,1.8018,1.8773,1.9314,1.9672,1.9965,2.0249,2.0608,2.2823,2.3873,2.3904,2.3114,2.2989,2.3293,2.2371,2.1822,2.1476,2.0211,1.9498,1.9161,1.9278,1.9705,2.0305,0.0,0.0,0.0,0.0,0.0,0.0,0.0,0.0,0.0,0.0,1.8642,1.8632,1.8595,1.8361,1.8198,1.8198,1.7949,1.7749,1.7648,0.0,0.0,1.4569,1.3903,1.3131,1.2179,1.2154,1.1882,1.1378,1.1935,1.2932,1.4321,1.3999,1.4077,1.446,1.4461,1.3831,1.2819,1.3316,1.3528,1.3543,1.3618,1.4079,1.4691,1.4766,1.5215,1.5842,1.6122,1.626,1.6301,1.6301,1.5911,0.0,0.0,0.0,1.4349,1.3536,1.3401,1.3391,1.2889,1.4216,1.6153,0.0,1.9248,2.0594,0.0,0.0,2.2423,0.0,2.2847,2.3091,0.0,0.0,0.0,0.0,0.0,0.0,0.0,0.0,0.0,0.0,0.0,0.0,0.0,0.0,0.0,0.0,1.9658,1.9268,1.8792,1.8715,1.85,1.8105,1.8096,1.8066,1.8008,1.839,1.8642,1.8698,2.0155,2.0626,2.0317,2.2302,2.2232,2.0599,2.1187,2.1253,2.088,2.0706,2.0567,2.0388,1.995,1.9303,1.8657,1.9129,1.9079,1.8977,0.0,0.0,0.0,0.0,0.0,0.0,0.0,0.0,0.0,0.0,0.0,1.832,1.8166,1.8057,1.7982,1.7982,1.7861,1.78,1.78,1.7214,1.6477,1.562,1.4729,1.3807,1.2837,1.2412,1.1903,1.1296,1.1714,1.3558,1.6687,1.585,1.5772,1.633,1.6542,1.5667,1.4047,1.4272,1.4139,1.3827,1.4214,1.4318,1.4318,1.5065,1.5305,1.5258,1.5423,1.5814,1.6239,1.5865,1.5787,1.5891,1.6072,0.0,0.0,0.0,1.3831,1.2969,1.3435,1.3972,1.4957,0.0,1.8261,1.9067,2.1283,2.162,2.1649,2.2089,2.2305,0.0,0.0,0.0,0.0,0.0,0.0,0.0,0.0,0.0,0.0,0.0,0.0,0.0,0.0,0.0,0.0,0.0,1.9394,1.9102,1.8627,1.8598,1.8412,1.8018,1.8008,1.8083,1.8289,1.8432,1.8816,1.9456,2.0699,2.1141,2.0962,2.1811,2.1683,2.0828,2.1536,2.151,2.0994,2.0686,2.0708,2.0795,1.9487,1.9358,1.9829,1.935,1.9486,1.9976,0.0,0.0,0.0,0.0,0.0,0.0,0.0,0.0,0.0,0.0,0.0,1.8025,1.7822,0.0,0.0,0.0,1.767,1.767,1.767,1.7356,1.6931,1.6409,1.5555,1.4639,1.3681,1.2953,1.2242,1.1552,1.1647,1.3697,1.7516,1.7033,1.7201,1.7965,1.8031,1.7288,1.5921,1.5536,1.5148,1.4828,1.5336,1.5037,1.4408,1.541,1.538,1.4811,1.4811,1.5167,1.5608,1.5285,1.5393,1.5739,1.6265,1.5267,0.0,0.0,0.0,1.2653,1.3691,1.3519,1.3668,1.6263,1.7,1.7599,0.0,0.0,2.0648,0.0,2.1518,0.0,0.0,0.0,0.0,0.0,0.0,0.0,0.0,0.0,0.0,0.0,0.0,0.0,0.0,0.0,0.0,0.0,1.9023,1.8818,1.8461,1.8442,1.8295,1.8018,1.791,1.8042,1.8499,1.8657,1.9194,2.0117,2.0915,2.1232,2.1066,2.1355,2.133,2.1091,2.1434,2.1303,2.0769,2.036,2.0542,2.0892,1.9242,1.9402,2.0482,1.9677,1.9882,2.0587,0.0,0.0,0.0,0.0,0.0,0.0,0.0,0.0,0.0,0.0,0.0,1.7822,1.78,1.78,1.767,1.7356,1.7332,1.7332,1.7332,1.7002,1.678,1.668,1.6315,0.0,1.466,1.3978,1.3173,1.2248,1.1882,1.3079,1.5772,1.6984,1.8141,1.9172,1.8371,1.8196,1.844,1.7405,1.7179,1.7504,1.7549,1.6802,1.5709,1.5769,1.538,1.4811,1.4811,1.4436,1.403,1.4614,1.4433,1.4094,1.5075,1.4878,1.4354,0.0,0.0,0.0,1.346,1.3279,0.0,1.3823,1.4912,1.6138,0.0,0.0,0.0,0.0,0.0,0.0,0.0,0.0,0.0,0.0,0.0,0.0,0.0,0.0,0.0,0.0,0.0,0.0,0.0,0.0,0.0,0.0,1.8266,1.8066,1.8047,1.8047,1.8037,1.8008,1.7627,1.7775,1.8489,1.9057,1.9513,1.9847,2.0439,2.0453,1.9924,2.1004,2.0903,1.9898,1.9791,1.9407,1.8851,1.8827,1.9237,1.9859,1.9485,1.9396,1.953,1.9963,1.9873,1.961,0.0,0.0,0.0,0.0,0.0,0.0,0.0,0.0,0.0,0.0,0.0,0.0,0.0,1.7612,1.7514,1.7607,1.7415,1.7211,1.6989,1.7064,1.7012,1.6763,1.6392,1.5859,1.5091,1.3966,1.3023,1.2305,1.1722,1.2804,1.5417,1.555,1.6875,1.9218,1.9994,1.9382,1.7757,1.8074,1.7574,1.6668,1.7444,1.6724,1.5214,1.5649,1.564,1.5268,0.0,0.0,0.0,0.0,0.0,0.0,0.0,0.0,0.0,0.0,0.0,1.4559,0.0,0.0,0.0,1.3525,1.3504,1.3796,1.557,1.6662,1.747,1.7983,0.0,0.0,0.0,0.0,0.0,0.0,0.0,0.0,0.0,0.0,0.0,0.0,0.0,0.0,0.0,0.0,0.0,0.0,0.0,1.7818,1.7978,1.7855,1.7924,1.8316,1.8173,1.8417,1.9075,1.9467,1.9699,1.9798,2.0012,1.9999,1.9811,2.0225,2.0188,1.9811,1.975,1.9608,1.9397,1.9397,1.9553,1.9734,1.917,1.9471,2.0155,1.9482,1.9655,2.0239,0.0,0.0,0.0,0.0,0.0,1.735,1.7687,1.7195,1.6957,1.7415,0.0,0.0,0.0,0.0,1.7379,1.7153,1.6731,1.6406,1.6298,1.6397,1.6606,1.6952,1.6601,1.6108,1.5477,1.4334,1.3321,1.2463,1.1682,1.2425,1.4587,1.4479,1.5666,1.7965,1.9504,1.9444,1.82,1.8682,1.8268,1.7335,1.7918,1.7331,1.6112,1.6576,1.6596,0.0,0.0,0.0,0.0,0.0,0.0,0.0,0.0,0.0,0.0,0.0,0.0,0.0,1.3747,0.0,0.0,0.0,1.2603,1.2481,1.4038,0.0,1.6192,1.6713,0.0,0.0,0.0,0.0,0.0,0.0,0.0,0.0,0.0,0.0,0.0,0.0,0.0,0.0,0.0,0.0,0.0,0.0,0.0,0.0,1.8588,1.8173,1.7885,1.7811,1.8225,1.8504,1.862,1.9225,1.9547,1.9547,1.9547,1.9635,1.9798,1.9798,1.9798,1.9798,1.9798,1.9798,1.9798,1.9798,1.9798,1.9747,1.9254,1.9592,2.0299,1.9389,1.9631,2.0352,0.0,0.0,1.8001,1.7382,1.6733,1.6399,1.669,1.62,1.6016,1.6671,0.0,0.0,0.0,0.0,0.0,1.5939,1.5229,1.5,1.5296,1.5012,1.5562,1.7203,1.6948,1.646,1.5815,1.5114,1.4131,1.2801,1.1808,1.1954,1.3166,1.3896,1.4668,1.5515,1.6651,1.8229,1.996,1.9329,1.9293,1.9645,1.9146,1.8794,1.8578,1.8592,0.0,0.0,1.8242,1.7324,0.0,1.6583,0.0,0.0,0.0,0.0,0.0,0.0,0.0,0.0,0.0,0.0,0.0,0.0,0.0,0.0,1.2837,0.0,1.5642,0.0,0.0,0.0,0.0,0.0,0.0,0.0,0.0,0.0,0.0,0.0,0.0,0.0,0.0,0.0,0.0,0.0,0.0,0.0,1.968,1.9691,1.9767,1.9028,1.7934,1.6516,1.7667,1.7922,1.7145,1.8363,1.8983,1.8983,1.8995,1.9271,1.9773,1.9798,1.9798,1.9798,1.9786,1.9773,1.9773,1.9798,1.9798,1.9798,1.9798,1.9798,1.9798,1.9798,1.9798,1.9798,0.0,1.8198,1.7851,1.6775,1.6226,1.5808,1.5404,1.5407,1.549,0.0,0.0,0.0,1.5794,1.6517,1.687,1.6542,1.6361,1.6073,1.5682,1.5791,1.6099,1.6565,1.6206,1.5914,1.5731,1.4356,1.3464,1.3088,1.2126,1.1837,1.2199,1.2586,1.3389,1.4533,1.5832,1.6811,1.7531,1.8196,1.8002,1.7441,1.936,1.9266,1.8052,0.0,0.0,0.0,0.0,1.6592,1.6677,0.0,1.5919,1.462,0.0,0.0,0.0,0.0,0.0,0.0,1.2795,0.0,0.0,0.0,0.0,0.0,1.1744,1.2539,1.349,0.0,0.0,0.0,0.0,0.0,0.0,0.0,0.0,0.0,0.0,0.0,0.0,0.0,0.0,0.0,0.0,0.0,0.0,0.0,1.8988,1.8983,1.9148,1.8804,1.8423,1.8011,1.8156,1.8117,1.7894,1.8259,1.8406,1.8442,1.8807,1.9083,1.9221,1.9623,1.9798,1.9786,1.9384,1.9221,1.9246,1.9648,1.9798,1.9798,1.9798,1.9798,1.9798,1.9798,1.9798,1.9798,1.801,1.8035,1.7719,1.6678,1.6115,1.5683,1.528,1.515,1.5126,0.0,0.0,0.0,1.6486,1.6773,1.6846,1.6609,1.6466,1.6228,1.5825,1.5983,1.6291,1.6706,1.6788,1.6548,1.5961,1.5161,1.4244,1.3239,1.2546,1.222,1.2235,1.267,1.3313,1.4141,1.5216,1.5571,1.5496,1.6844,1.7281,1.7226,1.8675,1.9294,0.0,1.9706,1.9799,0.0,0.0,0.0,1.8838,1.8513,1.7364,1.585,1.4613,1.4142,0.0,0.0,0.0,0.0,0.0,0.0,0.0,0.0,0.0,0.0,1.2043,1.2661,1.3408,0.0,1.5462,0.0,0.0,0.0,0.0,0.0,0.0,0.0,0.0,0.0,0.0,0.0,0.0,0.0,0.0,1.941,1.9364,1.9626,1.9299,1.9137,1.9189,1.8393,1.7958,1.797,1.7576,1.741,1.7478,1.7739,1.7865,1.7865,1.8417,1.8782,1.902,1.956,1.9798,1.9786,1.9459,1.9321,1.9346,1.9673,1.9673,1.9497,1.971,1.9798,1.9798,1.9798,1.9798,1.9798,0.0,1.78,1.7584,1.6867,1.6257,1.5825,1.5758,1.5239,1.4958,0.0,1.616,1.7022,1.7701,1.7493,1.7065,1.6517,1.6231,1.606,1.6052,1.6116,1.6528,1.7395,1.7967,1.7629,1.6205,1.6414,1.544,1.3181,1.2928,1.2801,1.2816,1.3496,1.3972,1.4327,1.4992,1.495,1.447,1.5832,1.707,1.8084,1.7798,1.9145,0.0,0.0,2.1681,2.1992,2.2606,2.2146,2.1157,2.0644,1.9292,1.7611,1.6592,1.6013,1.5507,0.0,1.4652,0.0,0.0,0.0,0.0,0.0,1.246,0.0,1.2992,1.3628,1.4292,1.5025,1.6031,0.0,0.0,0.0,0.0,0.0,0.0,0.0,0.0,0.0,0.0,0.0,0.0,0.0,2.0385,1.9924,1.9836,2.0377,1.9924,1.9577,1.9441,1.7929,1.7058,1.7134,1.6563,1.6314,1.65,1.7024,1.731,1.7322,1.7852,1.8367,1.8845,1.9384,1.966,1.971,1.9648,1.9623,1.9623,1.9698,1.9472,1.9133,1.9623,1.9798,1.9798,1.9798,1.9798,1.9798,1.7648,1.78,1.7507,1.6561,1.6296,1.6028,1.5474,1.5294,1.5389,1.5872,1.6282,1.6834,1.7551,1.7393,1.7293,1.7486,1.774,1.7778,1.7502,1.806,1.8321,1.8186,1.7753,1.6858,1.5444,1.4702,1.3706,1.2412,1.2667,1.2801,1.2816,1.3496,1.4398,1.5504,1.6114,1.6718,1.7284,1.7149,1.7315,1.7746,1.8873,1.9648,2.0225,2.1142,2.0727,1.9773,2.079,2.0439,1.9472,1.9256,1.8552,1.7679,1.6913,1.5988,0.0,1.4788,0.0,0.0,0.0,0.0,0.0,0.0,0.0,0.0,1.2409,1.281,1.3403,0.0,1.3065,0.0,0.0,0.0,0.0,0.0,0.0,0.0,0.0,0.0,0.0,0.0,0.0,0.0,1.8669,1.8581,1.8555,1.8681,1.8581,1.8483,1.8474,1.7734,1.7327,1.7343,1.6761,1.646,1.65,1.6613,1.6685,1.6685,1.7262,1.7624,1.7714,1.8267,1.8756,1.9133,1.8706,1.8518,1.8555,1.897,1.9334,1.966,1.9761,1.9798,1.9798,1.9798,1.9798,1.9798,1.7111,1.6965,1.6728,1.6795,1.649,1.6334,1.6559,1.6434,1.6575,1.7357,1.7831,1.8122,1.8197,1.8102,1.8057,1.8047,1.807,1.8097,1.8097,1.8787,1.9113,1.8904,1.8734,1.8073,1.6825,1.6467,1.561,1.4244,1.4288,1.4135,1.3792,1.4139,1.4648,1.535,1.6637,1.7014,1.675,1.7696,1.7855,1.7519,1.8282,0.0,1.9535,2.0679,2.0767,2.0326,2.0878,2.0566,1.9774,1.9431,1.9072,0.0,1.7779,1.7209,1.6655,0.0,1.5165,1.5125,0.0,0.0,0.0,1.3882,0.0,0.0,0.0,1.3224,1.3272,1.367,1.3412,0.0,0.0,0.0,0.0,0.0,0.0,0.0,0.0,0.0,0.0,0.0,0.0,0.0,1.8204,1.7953,1.779,1.779,1.8053,1.8204,1.8204,1.7362,1.7043,1.7388,1.6534,1.6194,1.65,1.65,1.65,1.65,1.7388,1.7674,1.7436,1.8505,1.8983,1.9008,1.9007,1.9007,1.902,1.9296,1.9572,1.9798,1.9798,1.9798,1.9798,1.9798,1.9798,1.9798,1.658,1.6451,1.652,1.7439,1.7127,1.7034,1.7947,1.7588,1.7578,1.8651,1.9437,1.9749,1.9372,1.9106,1.9027,1.9183,1.8603,1.8531,1.9282,1.9911,2.0064,1.9701,1.9954,1.951,1.8219,1.834,1.7671,1.6205,1.5926,1.5515,1.499,1.499,1.5052,1.5231,1.6817,1.7073,1.6429,1.815,1.8489,1.7895,0.0,1.838,1.9271,2.0427,2.0993,2.1154,2.1154,2.0878,2.044,1.9849,1.9659,1.9512,1.8768,1.8449,0.0,0.0,0.0,0.0,0.0,0.0,0.0,0.0,0.0,1.3742,0.0,0.0,0.0,0.0,0.0,0.0,0.0,0.0,0.0,0.0,0.0,0.0,0.0,0.0,0.0,0.0,0.0,0.0,1.74,1.7121,1.7008,1.72,1.7626,1.7877,1.7877,1.6944,1.6677,1.7212,1.6284,1.6008,1.65,1.65,1.65,1.65,1.7551,1.7752,1.7285,1.8794,1.9271,1.887,1.9396,1.966,1.966,1.9761,1.9748,1.966,1.9761,1.9798,1.9798,1.9798,1.9798,1.9798,1.6682,1.7687,1.8572,1.8706,1.8643,1.8643,1.8782,1.7686,1.7302,1.856,1.9815,2.0761,2.1243,2.002,2.0062,2.2269,2.0742,2.0635,2.2932,2.3178,2.2476,2.0799,2.0595,1.9575,1.7468,1.6879,1.6345,1.5856,1.5827,1.5769,1.5694,1.5694,1.5964,1.6487,1.6711,1.8007,1.9954,1.9155,1.9145,0.0,1.9584,1.9597,0.0,2.0966,2.0815,1.9999,1.9999,1.9949,1.9823,0.0,1.9095,1.9152,0.0,1.8344,1.6892,1.7575,0.0,0.0,0.0,0.0,0.0,0.0,1.5754,0.0,0.0,0.0,1.4218,1.2878,0.0,0.0,0.0,0.0,0.0,0.0,0.0,0.0,0.0,0.0,0.0,0.0,0.0,0.0,0.0,1.4941,1.5588,1.6534,1.6651,1.6688,1.6688,1.656,1.6523,1.66,1.6482,1.6423,1.65,1.65,1.65,1.65,1.7174,1.7174,1.6638,1.784,1.8355,1.8329,1.8857,1.9096,1.9121,1.961,1.9522,1.9146,1.9623,1.9798,1.9798,1.9798,1.9798,1.9798,1.7422,1.7501,1.8025,1.9304,1.8665,1.8261,1.9124,1.9311,1.9331,1.9294,2.0729,2.1815,2.1996,2.1355,2.175,2.38,2.2672,2.244,0.0,2.3299,2.2548,2.1748,2.0735,1.968,1.8532,1.8161,1.7823,1.7491,1.7086,1.6907,1.6892,1.6144,1.6114,1.6711,1.7195,1.8024,1.912,1.9714,1.9943,0.0,0.0,2.022,0.0,2.1017,2.0798,2.0282,1.9586,1.9547,1.9673,0.0,1.9183,0.0,0.0,0.0,0.0,0.0,0.0,0.0,0.0,0.0,0.0,0.0,0.0,0.0,1.5604,0.0,1.413,0.0,0.0,0.0,0.0,0.0,0.0,0.0,1.0921,0.0,0.0,0.0,0.0,0.0,0.0,0.0,0.0,0.0,0.0,0.0,1.5567,1.5567,1.5567,1.617,1.65,1.65,1.65,1.65,1.65,1.65,1.65,1.65,1.7099,1.7074,1.655,1.7992,1.8481,1.8278,1.9514,1.9824,1.9535,2.0491,2.0563,2.011,2.0677,2.0695,2.0421,2.0781,2.089,2.0841,1.8792,1.8313,1.8397,1.9887,1.9063,1.8359,1.8859,2.0266,2.0926,2.0061,2.1417,2.254,2.2785,2.2317,2.2859,2.5086,2.4129,2.3917,0.0,0.0,2.3183,2.2943,2.128,2.0236,2.0035,1.9567,1.9231,1.8972,1.8296,1.7968,1.7938,1.6488,1.6308,1.7248,1.7347,1.7786,1.8584,0.0,2.0619,2.0386,2.0695,2.1272,2.1841,2.1263,2.093,2.0706,1.9992,1.9886,1.9952,1.9188,1.9867,0.0,2.0441,0.0,0.0,0.0,0.0,0.0,1.8635,0.0,0.0,0.0,0.0,0.0,0.0,0.0,0.0,0.0,0.0,0.0,0.0,0.0,0.0,0.0,0.0,1.0879,0.0,0.0,0.0,0.0,0.0,0.0,0.0,0.0,0.0,0.0,0.0,1.4959,1.511,1.6007,1.6584,1.6748,1.6588,1.65,1.65,1.65,1.6575,1.676,1.7187,1.7162,1.6798,1.8308,1.8695,1.8295,2.0046,2.0533,2.0163,2.126,2.1424,2.1113,2.1724,2.17,2.1345,2.1615,2.1697,2.1615,2.0936,2.1072,2.0931,2.0546,2.0428,1.9761,1.7862,1.9739,2.1195,2.0626,2.1647,2.2811,2.3918,2.2482,0.0,0.0,0.0,2.502,2.7705,0.0,2.5405,0.0,0.0,2.1501,2.1614,2.0355,1.9678,1.9678,1.9001,1.8672,1.8627,1.6698,1.6817,1.8548,1.6826,1.7426,1.9776,2.0515,2.1155,2.1834,2.3004,2.315,2.2595,0.0,2.1318,2.087,2.1435,0.0,0.0,2.0803,2.1278,0.0,0.0,0.0,0.0,0.0,0.0,0.0,0.0,0.0,0.0,2.0161,0.0,0.0,0.0,0.0,1.6443,0.0,0.0,0.0,0.0,0.0,0.0,0.0,0.0,0.0,0.0,0.0,0.0,0.0,0.0,0.0,0.0,0.0,0.0,0.0,1.4274,1.5123,1.5663,1.6208,1.6773,1.736,1.681,1.65,1.65,1.65,1.6798,1.7373,1.7398,1.7398,1.742,1.8504,1.87,1.8293,2.0044,2.079,2.0832,2.1452,2.1697,2.1734,2.2406,2.2649,2.2558,2.1922,2.1697,2.1615,2.222,2.244,2.2485,2.1973,2.1304,2.0415,1.9159,1.9668,2.0842,2.2564,2.4176,0.0,0.0,2.7699,2.7974,0.0,0.0,2.8397,2.9464,2.7758,0.0,0.0,0.0,2.3426,0.0,2.1699,2.1026,1.9708,1.9031,1.8702,1.8687,1.7564,1.7639,1.8653,1.7684,1.7795,0.0,0.0,0.0,0.0,0.0,2.2649,2.2867,0.0,2.2244,2.2035,2.1781,2.1568,0.0,2.1001,2.154,2.2491,2.3267,2.2899,2.2606,2.4758,2.3366,0.0,0.0,0.0,2.2794,2.2113,0.0,0.0,0.0,0.0,0.0,0.0,0.0,0.0,0.0,0.0,0.0,0.0,0.0,0.0,0.0,0.0,0.0,0.0,0.0,0.0,0.0,0.0,0.0,0.0,1.2749,0.0,1.2986,1.4877,1.5894,1.5751,1.6609,1.6911,1.65,1.6898,1.7187,1.741,1.7752,1.8134,1.8542,1.9314,1.9546,1.9421,2.1249,2.1333,2.0257,2.1736,2.1845,2.1161,2.2264,2.2706,2.2728,2.2878,2.2958,2.2823,2.2848,2.3274,2.3583,2.29,2.1932,2.1046,2.0471,2.1011,2.2289,0.0,2.6154,0.0,2.9855,0.0,3.0148,0.0,2.9901,2.9684,2.9896,2.8092,0.0,2.7818,2.6188,0.0,0.0,0.0,0.0,2.11,1.972,1.9301,1.9735,1.8356,1.8177,1.9029,1.8251,1.7865,1.8012,2.0904,2.168,0.0,0.0,2.3123,0.0,0.0,2.2826,2.3322,0.0,2.2225,2.2044,2.19,2.2657,2.3716,2.4014,2.425,2.4729,2.6174,2.5132,2.3728,2.4848,2.5041,0.0,2.4033,2.3603,0.0,2.1167,0.0,0.0,0.0,0.0,0.0,0.0,0.0,0.0,0.0,0.0,0.0,0.0,1.1389,0.0,0.0,0.0,0.0,0.0,0.0,0.0,1.1453,1.1777,1.1969,0.0,1.4142,1.5437,1.5475,1.6509,1.7087,1.7089,1.7287,1.7576,1.7965,1.8129,1.8492,1.9069,1.9485,1.961,1.9639,2.1282,2.1405,2.0578,2.2093,2.2191,2.1497,2.2364,2.2703,2.2763,2.337,2.3465,2.3135,2.2932,2.3646,2.4195,2.3322,2.235,2.1684,2.1732,0.0,2.5322,0.0,2.762,2.8963,3.0608,2.9803,2.9552,3.0532,2.9628,2.9109,2.9239,2.7892,0.0,0.0,2.6222,2.5455,2.6617,0.0,0.0,0.0,2.1066,2.0486,2.1635,1.9014,1.8508,1.9705,1.8524,1.7782,1.7632,2.1369,2.2304,2.1468,2.3046,2.4441,2.5297,2.2871,2.3142,2.4684,2.3896,2.3231,2.283,2.3421,2.4477,2.5442,2.4844,2.5959,2.739,2.6821,2.7091,2.7555,2.7585,2.7136,2.6497,2.5869,0.0,0.0,0.0,0.0,2.2553,0.0,0.0,0.0,0.0,0.0,0.0,0.0,0.0,0.0,0.0,0.0,0.0,0.0,0.0,0.0,0.0,0.0,1.2448,1.0574,1.1387,1.2077,0.0,1.3946,1.5344,1.6519,1.6493,1.7024,1.8239,1.7649,1.7903,1.8995,1.8469,1.853,1.9095,1.9048,1.8999,1.9024,2.0224,2.1076,2.1675,2.2398,2.2673,2.2643,2.2688,2.2718,2.2808,2.3385,2.3246,2.2653,2.3819,2.3896,2.4158,2.408,2.2717,2.2052,0.0,0.0,0.0,0.0,3.0344,3.2114,3.2968,3.3169,3.2528,3.0771,3.0932,0.0,0.0,0.0,0.0,3.1661,3.0257,2.8788,2.7365,2.7156,2.5944,2.3595,0.0,2.1849,2.1665,1.9974,1.9645,2.0404,1.9593,1.9009,1.8845,2.2045,2.3296,2.306,2.2201,2.3132,2.4838,0.0,2.4126,2.5886,2.4209,2.3508,2.3399,2.3551,2.4163,2.4903,2.5232,2.5704,2.6273,2.7106,2.7121,2.6971,2.7465,2.7465,2.73,2.7136,2.6213,2.5113,0.0,0.0,0.0,0.0,0.0,0.0,0.0,0.0,0.0,0.0,0.0,0.0,0.0,0.0,0.0,1.236,0.0,0.0,0.0,1.1808,1.1875,1.1129,1.1135,1.1626,1.2633,0.0,1.473,1.7167,1.6371,1.6859,1.8858,1.7444,1.7491,1.9008,1.8857,1.933,2.0325,1.9943,1.9704,1.9729,2.1019,2.1106,2.0478,2.2045,2.2418,2.2014,2.2508,2.2972,2.3385,2.3535,2.3508,2.3282,2.3724,2.3624,2.3889,2.4306,0.0,0.0,2.5498,2.6031,0.0,3.0005,3.1725,0.0,3.3809,3.4173,3.3746,3.219,3.1719,0.0,3.0531,0.0,0.0,3.1335,3.091,2.9782,2.7874,2.8036,0.0,2.4911,0.0,2.2643,2.2503,2.0887,2.0348,2.0658,1.9989,1.949,1.9265,2.181,2.3714,2.4856,2.3354,2.409,0.0,2.4031,2.4519,2.5974,2.4567,2.3849,2.3595,2.3595,2.4253,2.4993,2.4807,2.5525,2.6497,2.6686,2.6881,2.7121,2.7495,2.76,2.76,2.76,2.7046,2.6303,2.563,2.5181,2.4702,0.0,0.0,0.0,0.0,0.0,0.0,0.0,0.0,0.0,0.0,0.0,0.0,0.0,1.2772,0.0,0.0,1.185,1.1801,1.133,1.1161,1.1381,0.0,0.0,1.4769,1.5985,1.6552,1.7204,1.7959,1.6985,1.7215,1.8644,1.8644,1.9255,2.0333,2.0048,1.9882,1.9917,2.0957,2.114,2.0785,2.2147,2.2478,2.2179,2.2553,2.2912,2.3236,2.349,2.3595,2.3551,2.3404,2.3385,2.3809,2.4565,0.0,0.0,0.0,2.8127,0.0,3.1851,0.0,3.2855,3.3696,3.3859,3.3847,3.3696,0.0,3.1008,3.071,2.9619,2.9241,2.9812,3.0005,2.9586,2.8526,2.8108,2.7607,0.0,2.438,2.3362,2.3819,2.1784,2.0868,2.0932,2.0258,1.9909,0.0,2.1278,2.3565,2.6191,2.5191,2.5796,2.7001,2.5057,2.4888,2.5659,2.5068,2.4306,2.361,2.3699,2.4567,2.542,2.4328,2.5585,2.727,2.6183,2.6617,2.748,2.757,2.76,2.76,2.76,2.76,2.745,2.6866,2.6746,2.6746,2.6746,2.5734,2.4649,0.0,0.0,0.0,0.0,0.0,0.0,0.0,0.0,0.0,0.0,0.0,0.0,0.0,0.0,1.1977,1.1468,1.1341,1.1404,0.0,0.0,1.4982,1.4627,1.6864,1.771,1.6966,1.6675,1.7191,1.853,1.8229,1.8694,1.9798,1.9736,1.9686,1.9736,2.0487,2.1103,2.1649,2.249,2.2823,2.2823,2.2823,2.2823,2.2882,2.34,2.3595,2.3595,2.4494,2.4586,2.5231,0.0,0.0,2.9554,3.1714,3.2071,3.2102,3.2202,3.342,3.401,3.3294,3.3633,3.352,3.2591,3.2041,0.0,0.0,0.0,0.0,3.2146,3.0914,3.0323,3.0575,2.9981,2.9462,2.9082,2.6393,2.5151,2.5211,2.2697,2.1814,2.2328,2.1635,2.2207,2.3525,2.1825,0.0,2.5085,2.4878,2.4995,2.5409,2.6505,2.6708,2.6408,2.6288,2.5106,2.3684,2.4231,2.4948,2.5659,2.5974,2.6393,2.6851,2.7165,2.7031,2.6911,2.745,2.76,2.76,2.76,2.76,2.757,2.745,2.742,2.742,2.742,2.6806,2.6033,2.5375,0.0,0.0,0.0,0.0,0.0,0.0,0.0,0.0,0.0,0.0,1.4918,0.0,0.0,0.0,1.2055,1.1575,1.2139,0.0,0.0,1.4478,0.0,1.7008,0.0,0.0,0.0,1.7891,2.0239,1.8416,1.8317,1.9786,1.9334,1.9133,1.9204,2.0371,2.0945,2.1167,2.2782,2.343,2.343,2.343,2.343,2.3445,2.3565,2.3595,2.3595,2.6207,2.6009,2.6211,2.6965,0.0,0.0,0.0,3.3524,3.3734,3.3169,3.3282,3.3219,3.2692,3.3131,3.3257,3.2704,3.2467,3.216,3.1817,3.1074,3.0924,3.1613,3.1053,3.0246,2.9214,2.9783,2.9535,2.8404,2.6525,2.5779,2.6063,2.3759,2.3041,2.367,2.3355,2.3496,0.0,0.0,0.0,2.5716,2.6094,2.6243,2.6342,2.727,2.718,2.6587,2.6587,2.5749,2.4702,2.5008,2.5322,2.5674,2.5974,2.6318,2.6647,2.7001,2.6866,2.6761,2.742,2.76,2.76,2.76,2.76,2.76,2.76,2.76,2.76,2.76,2.6806,2.5648,2.4201,2.2194,0.0,0.0,0.0,0.0,0.0,0.0,0.0,0.0,0.0,0.0,0.0,0.0,0.0,0.0,0.0,1.2264,1.3879,0.0,1.5221,0.0,0.0,0.0,1.9162,0.0,1.8658,1.9868,1.8794,1.8801,1.9798,1.9547,1.9598,1.9996,2.0897,2.1504,2.1926,2.3098,2.3595,2.3595,2.3595,2.3595,2.3595,2.3595,2.3595,2.3595,2.8355,2.8218,0.0,0.0,3.1521,3.3361,3.3932,3.4592,3.4793,3.4142,3.3093,3.239,3.239,3.2805,3.3066,3.3026,3.2656,3.2379,3.2209,3.1281,3.0713,3.0709,3.0828,3.0006,2.8038,2.932,2.9378,2.811,2.6842,2.6512,2.6976,2.5106,2.4448,2.4829,0.0,0.0,0.0,0.0,2.6184,2.6774,2.7357,2.76,2.76,2.76,2.727,2.6821,2.6821,2.6378,2.5839,2.5974,2.5929,2.5809,2.5809,2.6273,2.6767,2.6632,2.6692,2.6941,2.7465,2.76,2.76,2.76,2.76,2.76,2.76,2.76,2.7555,2.742,2.6543,2.5257,2.3542,2.2678,0.0,0.0,0.0,0.0,0.0,0.0,0.0,0.0,0.0,0.0,1.5459,0.0,0.0,0.0,0.0,1.2573,1.3831,1.4969,1.5949,0.0,0.0,1.9132,1.8503,0.0,1.9446,1.9837,1.9349,1.9412,2.0003,1.985,2.0105,2.0622,2.139,2.2146,2.2934,2.3399,2.3595,2.3595,2.3595,2.3595,2.3595,2.3595,2.3595,2.3595,0.0,0.0,0.0,0.0,0.0,3.7018,3.7411,3.6673,3.5707,3.4768,3.3684,3.3006,3.3006,3.3086,3.2992,3.2748,3.2005,3.1744,3.2272,3.0799,3.0228,3.0936,3.0305,2.9947,2.9954,2.9815,3.0057,0.0,2.9125,2.8353,0.0,2.6976,2.6033,0.0,0.0,0.0,0.0,2.6451,2.6876,2.7484,2.7575,2.76,2.76,2.76,2.7555,2.751,2.751,2.7091,2.6587,2.721,2.7016,2.6497,2.6497,2.6971,2.739,2.6791,2.7031,2.7525,2.7585,2.76,2.76,2.76,2.76,2.76,2.76,2.76,2.742,2.6811,2.6558,2.6302,2.5905,2.4856,2.3321,0.0,0.0,0.0,0.0,0.0,1.8102,1.7713,0.0,0.0,0.0,1.3953,0.0,0.0,1.2699,1.373,1.6077,1.5369,1.5782,1.771,1.7849,1.8198,1.8865,1.9034,2.0167,2.2251,2.0107,1.9671,2.0696,2.008,1.9824,1.9952,2.1183,2.2386,2.3508,2.3573,2.3595,2.3595,2.3595,2.3595,2.3595,2.3595,2.3595,2.3595,0.0,0.0,0.0,0.0,0.0,0.0,0.0,3.773,3.662,3.5869,3.4214,3.3124,3.3124,3.3124,3.3063,3.2931,3.26,3.2143,3.1513,3.1082,3.0801,3.0765,3.0149,2.9694,2.9423,2.9083,2.9107,0.0,0.0,0.0,0.0,0.0,0.0,0.0,0.0,2.7921,2.7161,2.7623,2.7728,2.76,2.76,2.76,2.76,2.76,2.76,2.76,2.76,2.742,2.724,2.751,2.7151,2.6587,2.6587,2.6497,2.6422,2.6557,2.6497,2.6572,2.739,2.76,2.76,2.76,2.76,2.76,2.76,2.76,2.7505,2.715,2.6672,2.6279,2.6108,2.5398,2.4643,0.0,0.0,0.0,0.0,0.0,0.0,2.0901,0.0,1.9468,0.0,0.0,0.0,0.0,0.0,1.2818,1.4206,1.5263,1.6612,1.8341,0.0,2.0135,2.1706,2.1019,2.1326,2.2659,2.1712,2.1278,2.1342,2.1062,2.1159,2.1558,2.2091,2.2778,2.3595,2.3595,2.3595,2.3595,2.3595,2.3595,2.3595,2.3595,2.3595,2.3595,3.727,0.0,3.7345,0.0,3.9128,3.9339,3.9344,3.8588,3.7549,3.6282,3.4624,3.3441,3.3111,3.3124,3.3071,3.2971,3.2849,3.2288,3.1151,3.103,3.0863,3.0508,3.0047,0.0,2.9189,2.8995,2.8878,2.8749,2.7784,0.0,0.0,0.0,0.0,0.0,2.9733,2.9277,2.7856,2.8601,2.8502,2.7884,2.7675,2.772,2.7884,2.7675,2.76,2.76,2.76,2.772,2.7869,2.766,2.742,2.7111,2.6722,2.6408,2.6243,2.6512,2.6393,2.6393,2.7345,2.76,2.76,2.76,2.76,2.76,2.76,2.76,2.7554,2.7387,2.7052,2.6743,2.655,2.6219,2.5942,2.5819,0.0,0.0,0.0,2.2669,0.0,0.0,2.1123,2.0578,2.1759,1.8612,0.0,0.0,0.0,0.0,1.4151,1.535,1.6806,0.0,0.0,0.0,2.2433,2.156,2.1732,2.2965,2.2785,2.2452,2.1993,2.1805,2.2077,2.2694,2.2694,2.3031,2.3595,2.3595,2.3595,2.3595,2.3595,2.3595,2.3595,2.3595,2.3595,2.3595,3.9089,3.9903,4.0756,4.2111,4.2851,4.2204,3.9184,3.9312,3.8646,3.554,3.4875,3.4275,3.324,3.3124,3.2996,3.2724,3.2283,3.1885,3.1525,3.0435,2.9935,0.0,0.0,2.9792,2.9779,3.0051,2.9911,2.9381,0.0,0.0,2.9318,0.0,3.0148,2.9639,3.0898,3.0404,2.8637,2.9295,2.919,2.8532,2.7869,2.8004,2.8517,2.7854,2.76,2.76,2.76,2.8034,2.8487,2.7824,2.8034,2.8338,2.7021,2.7061,2.745,2.6806,2.7061,2.757,2.76,2.76,2.76,2.76,2.76,2.76,2.76,2.76,2.7516,2.7267,2.7721,2.808,2.7837,2.7772,2.7196,2.5413,0.0,0.0,0.0,0.0,0.0,2.1933,1.9283,1.8676,2.1521,1.8584,0.0,0.0,0.0,0.0,0.0,0.0,0.0,1.842,1.6785,0.0,1.9723,1.9738,2.1021,2.3573,2.2987,2.2694,2.2672,2.1993,2.2077,2.2694,2.2694,2.3031,2.3595,2.3595,2.3595,2.3595,2.3595,2.3595,2.3595,2.3595,2.3595,2.3595,3.7509,3.9394,4.092,4.0442,4.1265,4.1658,4.0698,4.0032,3.9169,3.7788,3.6225,3.4987,3.4272,3.3556,3.3058,0.0,3.2824,3.2304,0.0,3.0291,2.9858,2.991,2.9584,2.9613,3.0075,2.9343,2.9114,2.9381,0.0,0.0,0.0,2.9566,3.0116,3.0898,3.1316,3.0898,2.9909,3.0118,2.9849,2.925,2.9052,2.8828,2.8577,2.8353,2.8004,2.766,2.8113,2.8139,2.7959,2.8188,2.8113,2.7839,2.742,2.7121,2.6881,2.6647,2.6761,2.7031,2.748,2.76,2.76,2.76,2.76,2.76,2.76,2.7521,2.7574,2.7894,2.8062,2.8224,2.8563,2.8619,2.8005,2.6092,2.7068,0.0,0.0,0.0,2.4561,2.3747,2.1749,2.1282,2.3431,2.0876,0.0,0.0,0.0,0.0,0.0,0.0,0.0,0.0,2.0404,0.0,2.2358,2.1505,2.1919,2.3595,2.3399,2.3312,2.3275,2.268,2.2725,2.3275,2.2875,2.3031,2.3595,2.3595,2.3595,2.3595,2.3595,2.3879,2.4216,2.3774,2.3894,2.4216,3.7749,3.9439,4.0756,3.9933,4.0666,4.1168,4.0382,4.0073,3.9498,3.8435,3.6793,3.5654,3.5278,3.3995,0.0,3.3124,3.3124,3.2566,3.1373,3.0357,2.9792,2.9792,2.9577,2.963,3.0052,2.9295,0.0,2.9199,2.8347,2.8357,2.9185,2.9515,3.0324,3.1511,3.1511,3.1122,3.0507,3.0507,3.0283,2.9909,2.9696,2.9475,2.9295,2.9056,2.8738,2.8408,2.8816,2.8723,2.8378,2.8532,2.8308,2.7944,2.7675,2.7315,2.6986,2.6986,2.6986,2.7076,2.748,2.76,2.76,2.76,2.76,2.76,2.76,2.79,2.818,2.8289,2.858,2.8968,2.9342,2.8941,2.826,2.7336,2.7951,2.7872,2.5898,0.0,0.0,0.0,0.0,0.0,0.0,2.2801,2.185,0.0,0.0,0.0,0.0,0.0,0.0,2.077,2.1182,2.1865,2.2877,2.2099,2.2338,2.3595,2.3595,2.3595,2.3595,2.3209,2.3246,2.3573,2.3187,2.3246,2.3595,2.3595,2.3595,2.3595,2.3595,2.3864,2.4171,2.3759,2.3864,2.4156,3.9134,3.9783,4.0307,0.0,4.0771,0.0,3.8751,3.9529,3.9664,3.7793,3.6828,3.6277,3.6198,3.4415,3.3197,3.3124,0.0,0.0,0.0,3.0658,2.9867,2.9792,2.9792,2.9805,2.9845,2.9768,2.9466,2.8888,2.8605,2.8685,2.9058,2.9842,3.0673,3.1511,3.1511,3.1152,3.0567,3.0567,3.0567,3.0522,2.9953,3.0028,3.0447,2.9864,2.9651,2.9621,2.9651,2.9651,2.9517,2.8921,2.8667,2.8502,2.7929,2.766,2.76,2.76,2.76,2.76,2.76,2.76,2.76,2.76,2.76,2.76,2.76,2.8496,2.9147,2.8515,2.9304,3.0101,3.0106,2.8922,2.8162,2.8824,2.8298,2.7503,2.6657,0.0,0.0,0.0,0.0,0.0,2.4409,2.4342,2.4149,0.0,0.0,0.0,0.0,0.0,1.8002,1.9957,1.9995,2.0576,2.1814,2.1829,2.2428,2.3595,2.3595,2.3595,2.3595,2.3595,2.3595,2.3595,2.3595,2.3595,2.3595,2.3551,2.3551,2.3595,2.3551,2.3581,2.367,2.3625,2.3625,2.367,0.0,0.0,3.9334,3.8302,3.9095,3.9723,3.9245,3.9454,3.9484,3.9005,3.8067,3.7098,3.629,3.5088,3.3995,3.3154,3.3124,3.2641,3.1599,3.121,3.0645,2.9829,2.9792,2.991,3.0084,2.9619,2.9189,2.8888,2.8442,2.8686,2.9614,2.94,3.0072,3.1511,3.1511,3.1406,3.1256,3.1256,3.1256,3.1256,3.1107,3.0823,3.0492,3.0342,2.9998,2.9666,3.0118,2.9983,2.9651,2.9953,2.94,2.8667,2.9022,2.8423,2.76,2.76,2.76,2.76,2.76,2.76,2.76,2.76,2.76,2.76,2.76,2.8189,2.8802,2.907,2.9734,3.0222,3.0133,2.9785,2.9227,2.8229,2.7925,2.7148,2.5286,2.488,0.0,0.0,2.3435,2.4262,2.5253,2.578,2.5715,0.0,0.0,0.0,2.2622,2.1618,2.1735,2.3225,2.2879,2.2832,2.3146,2.3146,2.3295,2.3595,2.3595,2.3595,2.3595,2.3595,2.3595,2.3595,2.3595,2.3595,2.3551,2.3098,2.3187,2.3551,2.3098,2.351,2.4291,2.3789,2.3924,2.4291,3.7823,3.8646,3.9185,3.8452,3.8931,3.9388,3.9388,3.9679,3.9873,3.9873,3.8911,3.8054,3.743,3.6192,3.4966,3.3911,3.3081,3.2315,3.17,3.1035,3.0657,3.0685,3.0533,3.0515,3.0645,3.0293,2.9585,2.8512,2.8247,2.8555,2.9421,2.9154,2.9889,3.1511,3.1511,3.1511,3.1511,3.1511,3.1511,3.1511,3.1511,3.1271,3.0943,3.0943,3.0761,3.0522,3.0823,3.0552,3.0058,3.0387,2.9864,2.9116,2.9502,2.9112,2.8513,2.8513,2.8079,2.76,2.76,2.76,2.76,2.76,2.76,2.766,2.7959,2.8487,2.9065,2.9695,3.0293,3.0684,3.0608,3.0057,2.9313,2.8484,2.7199,2.5998,2.5118,2.412,2.3579,2.3767,2.422,2.5049,2.6471,2.6979,2.7113,2.6889,2.5396,0.0,2.5037,2.3648,2.3361,2.4454,2.4212,2.4073,2.4073,2.3759,2.3595,2.3595,2.3595,2.3595,2.3595,2.3595,2.3595,2.3595,2.3595,2.3595,2.3573,2.3246,2.3312,2.3573,2.3246,2.3533,2.4096,2.3729,2.3834,2.4081,4.0142,3.9798,3.9388,3.9388,3.9388,3.9388,3.9388,3.9888,4.0247,4.0247,3.9442,3.8827,3.8674,3.7331,3.6013,3.502,3.3282,3.2171,3.1942,3.0683,3.0445,3.1576,3.1415,3.1328,3.1426,3.1278,3.0277,2.836,2.8419,2.8708,2.9233,2.9295,3.0097,3.1511,3.1511,3.1511,3.1511,3.1511,3.1511,3.1511,3.1511,3.1511,3.1511,3.1511,3.1511,3.1511,3.1511,3.1122,3.0657,3.0657,3.0238,2.9744,2.9849,2.9744,2.9636,2.9726,2.8873,2.7884,2.7779,2.7675,2.76,2.76,2.7675,2.7885,2.8367,2.9042,2.9673,3.0187,3.0777,3.1157,3.1055,2.9924,2.8925,2.8688,2.6403,2.4812,2.522,0.0,2.3615,2.539,2.5338,2.5947,2.7959,2.8043,2.8315,2.9111,2.7007,2.6409,2.8097,2.5605,2.44,2.5025,2.4844,2.4709,2.4605,2.3939,2.3595,2.3595,2.3595,2.3595,2.3595,2.3595,2.3595,2.3595,2.3595,2.3595,2.3595,2.3508,2.3508,2.3595,2.3508,2.3508,2.3595,2.3595,2.3595,2.3595,3.9508,3.9448,3.9388,3.9388,3.9388,3.9388,3.9388,3.9514,3.9574,3.9574,3.9414,3.8966,3.8063,3.772,3.7137,3.6053,3.446,3.2939,3.1593,3.0997,3.0905,3.1244,3.1489,3.1842,3.2393,3.1609,3.0642,2.9528,2.9872,3.0144,3.0341,3.0694,3.1094,3.1511,3.1511,3.1511,3.1511,3.1511,3.1511,3.1511,3.1511,3.1511,3.1511,3.1511,3.1511,3.1511,3.1511,3.1436,3.1346,3.1346,3.0898,3.0462,3.1017,3.0477,2.9711,3.0208,2.9849,2.9172,2.8592,2.8034,2.76,2.76,2.7968,2.8367,2.8463,2.9361,3.0187,3.0272,3.0777,3.1004,3.0395,2.9567,2.857,2.7283,2.6133,2.5033,2.39,0.0,2.5913,2.5626,2.7199,2.8688,2.9651,2.9178,2.911,2.9871,2.8972,2.8332,2.8199,2.7731,2.7331,2.7048,2.6,2.5173,2.4605,2.3939,2.3595,2.3595,2.3595,2.3595,2.3595,2.3595,2.3595,2.3595,2.3595,2.3595,2.3551,2.3054,2.3143,2.3551,2.3031,2.3143,2.3595,2.3595,2.3595,2.3595,3.9948,4.0038,3.9941,3.9463,3.9388,3.9388,3.9388,4.0023,4.0352,3.9993,4.0247,4.0137,3.9305,3.8877,3.8219,3.7175,3.6098,3.4796,3.313,3.1586,3.11,3.1928,3.2119,3.255,3.3345,3.2429,3.1594,3.0877,3.1065,3.1268,3.1462,3.1664,3.2034,3.2572,3.2183,3.2228,3.2542,3.1809,3.1705,3.2004,3.1645,3.1511,3.154,3.1899,3.2034,3.2034,3.2034,3.2034,3.1974,3.163,3.1286,3.1077,3.1406,3.1092,3.0687,3.0943,3.0357,2.9547,2.9205,2.8637,2.8154,2.8154,2.8332,2.87,2.9423,3.0261,3.1092,3.1821,3.1873,3.1701,3.1343,3.0362,2.9364,2.8653,2.7215,0.0,2.5812,2.6302,2.6725,2.6776,2.8095,2.9297,3.004,2.9786,2.9905,3.0632,3.0006,2.9829,3.0372,2.9341,2.9005,2.9579,2.7342,2.6139,2.6161,2.4837,2.4126,2.4126,2.3774,2.3595,2.361,2.3962,2.4126,2.4156,2.4522,2.4477,2.4104,2.3836,2.3681,2.3573,2.3275,2.3341,2.3595,2.3595,2.3595,2.3595,4.0202,4.0546,4.0621,3.9798,3.9768,3.9873,3.9873,4.0726,4.1205,4.0696,4.107,4.113,4.0472,3.9948,3.9231,3.8248,3.7546,3.6505,3.4869,3.2692,3.1907,3.2883,3.315,3.3498,3.3993,3.3276,3.2618,3.1986,3.218,3.2328,3.2403,3.2629,3.2998,3.3469,3.2961,3.3021,3.3425,3.2392,3.2243,3.2706,3.2168,3.1959,3.2019,3.2557,3.2736,3.2736,3.2736,3.2647,3.2407,3.1899,3.163,3.1511,3.1511,3.1511,3.1511,3.1511,3.0821,2.9998,2.9834,2.9429,2.9048,2.9048,2.9255,2.9706,3.0744,3.1417,3.2162,3.3187,3.2949,3.2513,3.2327,3.1224,3.0243,2.9905,0.0,2.7165,0.0,2.7469,2.7571,2.8466,2.9127,2.9805,3.0531,3.0463,3.0666,3.1393,3.092,3.1173,3.2496,3.0881,3.0352,3.1319,2.8403,2.6951,2.7288,2.5508,2.4605,2.459,2.3924,2.3684,2.3849,2.4201,2.4545,2.4844,2.5202,2.5158,2.4829,2.4829,2.444,2.3834,2.3834,2.3744,2.3595,2.3595,2.3595,2.3625,3.9619,4.0487,4.1115,4.0442,4.0831,4.1235,4.1235,4.1324,4.1369,4.1309,4.1354,4.113,4.0472,4.0352,4.0046,3.9346,3.8339,3.7201,3.5949,3.4771,3.4043,3.3899,3.4806,3.4872,3.4027,3.391,3.347,3.2538,3.3427,3.3571,3.3062,3.3923,3.4037,3.3499,3.344,3.344,3.3484,3.3395,3.338,3.3425,3.3365,3.335,3.3365,3.341,3.3425,3.3425,3.3425,3.3036,3.2497,3.2452,3.2004,3.1511,3.1511,3.1511,3.1511,3.1511,3.1436,3.1212,3.0612,3.0437,3.0448,3.0448,3.135,3.2235,3.2329,3.2822,3.3275,3.3368,3.3372,3.3119,3.2429,3.1667,3.0666,2.9297,0.0,0.0,2.779,2.8383,2.9365,3.0768,3.1004,3.1345,3.2073,3.1532,3.141,3.2158,3.2175,3.2476,3.3288,3.254,3.181,3.1216,2.8762,2.7195,2.6684,2.5285,2.4605,2.459,2.3924,2.3939,2.4515,2.3939,2.4358,2.5486,2.4918,2.4993,2.554,2.554,2.5128,2.453,2.453,2.4141,2.3595,2.3595,2.3595,2.3684,4.0681,4.125,4.1624,4.11,4.1444,4.1698,4.1429,4.1767,4.1886,4.1467,4.1767,4.1632,4.0516,4.0397,4.0127,3.9448,3.9017,3.8258,3.6965,3.6877,3.6019,3.4085,3.4953,3.5326,3.4953,3.4953,3.4773,3.4409,3.4773,3.4802,3.4599,3.4939,3.4981,3.4726,3.4292,3.4337,3.4696,3.3844,3.3724,3.4068,3.3664,3.3499,3.3544,3.3948,3.4098,3.4098,3.4098,3.3948,3.3664,3.326,3.2961,3.2751,3.2751,3.2751,3.2677,3.2228,3.2108,3.2076,3.185,3.1516,3.1228,3.1228,3.1871,3.2611,3.3079,3.364,3.4083,3.4083,3.4083,3.3863,3.3119,3.2747,3.2374,3.1816,0.0,3.1255,3.1255,3.1546,3.1935,3.251,3.256,3.2679,3.2949,3.273,3.2679,3.2949,3.2983,3.3305,3.4032,3.346,3.2569,3.1428,2.9697,2.8654,2.8342,2.6252,2.5435,2.5839,2.4739,2.456,2.5217,2.539,2.5734,2.6228,2.6378,2.6138,2.5615,2.5615,2.5187,2.456,2.4141,2.4066,2.4156,2.3759,2.3595,2.3699,4.1422,4.1953,4.2243,4.1811,4.2102,4.2342,4.2043,4.2387,4.2506,4.2058,4.2387,4.2162,4.0846,4.0711,4.0367,3.9499,3.9388,3.8931,3.7793,3.7943,3.7085,3.4874,3.5444,3.5714,3.5504,3.5504,3.5504,3.5504,3.5504,3.5504,3.5504,3.5504,3.5504,3.5489,3.5011,3.5055,3.5444,3.4517,3.4382,3.4756,3.4307,3.4128,3.4173,3.4622,3.4801,3.4801,3.4801,3.4698,3.4444,3.3963,3.3664,3.3499,3.3499,3.3499,3.341,3.2961,3.2677,3.2555,3.2798,3.2547,3.228,3.2487,3.2999,3.3617,3.4116,3.4544,3.4844,3.4844,3.4844,3.4624,3.388,3.3744,3.3677,3.344,3.3406,3.3406,3.3406,3.3406,3.3491,3.3728,3.3541,3.3491,3.3728,3.3541,3.3508,3.3728,3.3744,3.3964,3.4472,3.4125,3.3222,3.1828,3.0759,2.9934,2.9437,2.7093,2.6138,2.6572,2.5442,2.5262,2.5929,2.6168,2.6512,2.6941,2.718,2.6896,2.6228,2.6228,2.5839,2.5173,2.4717,2.4702,2.4859,2.4403,2.4223,2.4328,4.1384,4.2432,4.3135,4.2515,4.2895,4.329,4.329,4.329,4.329,4.329,4.329,4.2796,4.1519,4.1422,4.0846,3.9529,3.9388,3.9125,3.8437,3.7778,3.715,3.6522,3.6492,3.6178,3.5519,3.5504,3.5504,3.5504,3.5504,3.5504,3.5504,3.5504,3.5504,3.5504,3.5504,3.5504,3.5504,3.5504,3.5504,3.5504,3.5504,3.5504,3.5504,3.5504,3.5504,3.5504,3.5504,3.507,3.4518,3.4518,3.4084,3.3514,3.3514,3.3514,3.3499,3.3499,3.3036,3.2675,3.3323,3.357,3.3761,3.4431,3.5098,3.56,3.56,3.56,3.56,3.5583,3.56,3.5363,3.4641,3.4489,3.4269,3.3541,3.3423,3.3423,3.3423,3.3423,3.3694,3.4421,3.3863,3.3711,3.4438,3.3846,3.3728,3.4438,3.4506,3.4506,3.4506,3.4489,3.3851,3.2432,3.1812,3.0878,2.9524,2.7576,2.6602,2.6587,2.5929,2.5959,2.6572,2.5929,2.6333,2.7555,2.6911,2.6986,2.7585,2.7585,2.721,2.6587,2.6587,2.6183,2.5615,2.5615,2.5615,2.5704,4.2656,4.3021,4.323,4.3075,4.317,4.329,4.329,4.329,4.329,4.329,4.329,4.2796,4.1519,4.1422,4.0846,3.9529,3.9388,3.9334,3.9125,3.8482,3.7808,3.7165,3.6716,3.6178,3.5519,3.5504,3.5504,3.5504,3.5504,3.5504,3.5504,3.5504,3.5504,3.5504,3.5504,3.5504,3.5504,3.5504,3.5504,3.5504,3.5504,3.5504,3.5504,3.5504,3.5504,3.5504,3.5504,3.537,3.519,3.519,3.507,3.4906,3.4906,3.4906,3.4816,3.4322,3.4061,3.4073,3.4825,3.4677,3.4358,3.4552,3.5098,3.56,3.56,3.56,3.5447,3.4928,3.525,3.5363,3.4641,3.4928,3.5194,3.4974,3.494,3.494,3.494,3.494,3.5025,3.5245,3.5076,3.5025,3.5245,3.5059,3.5025,3.5267,3.5261,3.5261,3.5261,3.4827,3.4164,3.3273,3.2143,3.0944,2.9584,2.8061,2.73,2.7285,2.6617,2.6632,2.73,2.7106,2.7225,2.7585,2.739,2.7151,2.6911,2.6911,2.6791,2.6542,2.6078,2.6063,2.6243,2.5779,2.5615,2.5704,4.317,4.329,4.329,4.329,4.329,4.329,4.329,4.329,4.329,4.329,4.329,4.294,4.1931,4.1811,4.1272,3.9918,3.9574,3.9388,3.9388,3.9035,3.8497,3.7823,3.7449,3.6686,3.5534,3.5504,3.5504,3.5504,3.5504,3.5504,3.5504,3.5504,3.5504,3.5504,3.5504,3.5504,3.5504,3.5504,3.5504,3.5504,3.5504,3.5504,3.5504,3.5504,3.5504,3.5504,3.5504,3.5504,3.5504,3.5504,3.5504,3.5504,3.5504,3.5504,3.5429,3.4996,3.4896,3.5103,3.5888,3.5808,3.5547,3.5823,3.5988,3.5994,3.5667,3.6073,3.6315,3.5554,3.5994,3.636,3.5926,3.5977,3.6079,3.6079,3.5825,3.56,3.56,3.56,3.56,3.56,3.56,3.56,3.56,3.56,3.56,3.56,3.5877,3.5803,3.5241,3.4807,3.4177,3.3224,3.2424,3.1336,2.9981,2.9157,2.8364,2.76,2.7195,2.721,2.76,2.76,2.76,2.76,2.76,2.7375,2.7001,2.7001,2.7001,2.6971,2.6542,2.6632,2.6956,2.6527,2.6378,2.6437,4.317,4.329,4.329,4.329,4.329,4.329,4.329,4.329,4.329,4.329,4.329,4.309,4.247,4.2351,4.1811,4.0502,3.9798,3.9388,3.9388,3.9388,3.911,3.8422,3.8392,3.7539,3.5714,3.5624,3.5564,3.5504,3.5504,3.5504,3.5504,3.5504,3.5504,3.5504,3.5504,3.5504,3.5504,3.5504,3.5504,3.5504,3.5504,3.5504,3.5504,3.5504,3.5504,3.5504,3.5504,3.5504,3.5504,3.5504,3.5504,3.5504,3.5504,3.5504,3.5504,3.5587,3.5644,3.5859,3.6673,3.6895,3.7078,3.7812,3.7483,3.6795,3.5988,3.6884,3.7719,3.7049,3.7432,3.7905,3.7905,3.7347,3.6897,3.6897,3.6231,3.5701,3.5701,3.565,3.5616,3.5701,3.5701,3.5718,3.5802,3.5802,3.5802,3.5802,3.6363,3.6133,3.4863,3.4616,3.3942,3.2722,3.2563,3.1852,3.0507,3.0507,2.9549,2.769,2.769,2.766,2.76,2.7675,2.7635,2.76,2.766,2.7635,2.76,2.76,2.76,2.76,2.76,2.76,2.76,2.76,2.763,2.769,4.326,4.329,4.329,4.329,4.329,4.329,4.329,4.329,4.329,4.329,4.329,4.309,4.247,4.1946,4.1265,4.0472,3.9798,3.9388,3.9388,3.9388,3.911,3.8422,3.8392,3.7958,3.7015,3.6522,3.6028,3.5504,3.5504,3.5504,3.5504,3.5504,3.5504,3.5504,3.5504,3.5504,3.5504,3.5504,3.5504,3.5504,3.5504,3.5504,3.5504,3.5504,3.5504,3.5504,3.5504,3.5504,3.5504,3.5504,3.5504,3.5504,3.5504,3.5504,3.5619,3.6196,3.6405,3.6749,3.8079,3.8048,3.7838,3.8592,3.8633,3.8328,3.7584,3.7669,3.7855,3.7702,3.7787,3.7905,3.7905,3.777,3.7669,3.7669,3.7026,3.6535,3.6535,3.6011,3.5819,3.6451,3.6535,3.6755,3.7364,3.7415,3.7415,3.7415,3.7003,3.6632,3.6272,3.4681,3.3657,3.333,3.2294,3.1338,3.0507,3.0507,2.9789,2.8368,2.8368,2.8124,2.7625,2.8091,2.8042,2.7625,2.8091,2.8042,2.76,2.76,2.76,2.76,2.76,2.76,2.76,2.76,2.7944,2.8368,4.323,4.309,4.2865,4.2865,4.2865,4.2865,4.2865,4.3135,4.329,4.329,4.329,4.317,4.2865,4.2276,4.1497,4.0487,3.9798,3.9388,3.9388,3.9388,3.926,3.8901,3.8886,3.8556,3.7883,3.7569,3.6926,3.5968,3.5968,3.5804,3.5504,3.5504,3.5504,3.5504,3.5504,3.5504,3.5504,3.5504,3.5504,3.5504,3.5504,3.5504,3.5534,3.5848,3.5774,3.5549,3.5863,3.5774,3.5504,3.5504,3.5504,3.5504,3.5504,3.5504,3.5587,3.5943,3.6352,3.6906,3.8064,3.8381,3.8547,3.9319,3.9512,3.9225,3.8159,3.8447,3.8853,3.8497,3.87,3.8937,3.8937,3.8667,3.843,3.843,3.7804,3.7313,3.7313,3.6958,3.6857,3.7263,3.7313,3.7483,3.7872,3.8227,3.8278,3.7939,3.7851,3.7343,3.6273,3.5159,3.4082,3.3067,3.2329,3.166,3.0972,3.0972,3.0492,2.9505,2.9205,2.8738,2.8094,2.8728,2.849,2.764,2.8283,2.8188,2.76,2.76,2.76,2.76,2.76,2.76,2.76,2.76,2.8034,2.8652,4.317,4.2806,4.2396,4.2396,4.2306,4.2231,4.2231,4.2746,4.3125,4.3125,4.323,4.3245,4.314,4.2491,4.1632,4.0502,3.9903,3.9553,3.9553,3.9694,3.9649,3.9388,3.9493,3.9275,3.8586,3.8556,3.7928,3.6641,3.6537,3.6207,3.5669,3.5549,3.5504,3.5504,3.5504,3.5504,3.5504,3.5504,3.5504,3.5504,3.5504,3.5504,3.5579,3.6237,3.6148,3.5759,3.6417,3.6222,3.5654,3.5549,3.5504,3.5504,3.5504,3.5504,3.5537,3.5636,3.6117,3.6813,3.7748,3.8442,3.9086,3.9901,4.0096,3.9791,3.8548,3.9208,3.9943,3.9292,3.9673,4.0096,4.0096,3.9605,3.9174,3.9174,3.8565,3.8091,3.8091,3.799,3.7956,3.8075,3.821,3.8278,3.8278,3.8819,3.892,3.8328,3.8679,3.8078,3.6181,3.5789,3.4767,3.2901,3.2632,3.2228,3.1675,3.157,3.1212,3.0672,3.0163,2.952,2.8786,2.9444,2.9083,2.8,2.8746,2.866,2.7944,2.8082,2.7981,2.7764,2.7764,2.7705,2.763,2.7854,2.8304,2.8861,4.317,4.2806,4.2396,4.2396,4.1931,4.1557,4.1557,4.2111,4.253,4.253,4.2985,4.312,4.259,4.1399,4.0591,4.0412,4.0322,4.0262,4.0262,4.0801,4.0606,3.9433,3.9963,3.9963,3.929,3.9239,3.8616,3.7285,3.6746,3.6432,3.6342,3.5774,3.5504,3.5504,3.5504,3.5504,3.5504,3.5504,3.5504,3.5504,3.5504,3.5504,3.5579,3.6237,3.6432,3.6432,3.706,3.6881,3.6267,3.5699,3.5504,3.5504,3.5504,3.5504,3.5619,3.6244,3.6523,3.6918,3.837,3.8827,3.9086,3.9901,4.0096,4.0045,3.9859,3.996,4.0079,3.9977,4.0028,4.0096,4.0096,4.0028,3.996,3.996,3.9326,3.8853,3.8853,3.8311,3.8142,3.8768,3.9394,3.9808,3.9808,3.9893,3.991,3.9808,3.9302,3.8574,3.7559,3.6334,3.5229,3.425,3.3095,3.2452,3.2377,3.1795,3.1451,3.1361,3.1271,3.0627,2.9487,3.0101,2.9988,2.939,3.0592,3.0441,2.9375,2.9971,2.9506,2.8457,2.8457,2.8124,2.7735,2.8903,2.9397,2.9535,4.3021,4.2222,4.1422,4.1796,4.1265,4.0831,4.0831,4.1737,4.2276,4.1901,4.2387,4.2536,4.1916,4.0965,4.0397,4.0397,4.0397,4.0397,4.0397,4.101,4.0786,3.9448,4.0053,4.0098,3.9388,3.9388,3.9125,3.8527,3.7868,3.7195,3.6477,3.6193,3.5863,3.5504,3.5504,3.5504,3.5534,3.5893,3.5833,3.5564,3.6282,3.6357,3.6163,3.7165,3.733,3.7045,3.7315,3.724,3.6911,3.6267,3.6058,3.5983,3.5624,3.5504,3.5554,3.5894,3.5975,3.6228,3.7336,3.7946,3.8486,3.9236,3.9782,4.0096,4.0096,4.0096,4.0096,4.0096,4.0096,4.0096,4.0096,4.0096,4.0096,4.0096,3.9842,3.9622,3.9622,3.9326,3.9242,3.9588,3.991,4.0096,4.0096,4.0096,4.0096,4.0096,3.9808,3.9094,3.7847,3.723,3.6129,3.4535,3.3918,3.344,3.3066,3.2378,3.2049,3.2049,3.1675,3.1002,3.0103,3.0767,3.0528,2.9648,3.0551,3.0426,2.9633,2.991,2.969,2.9146,2.9146,2.8992,2.8843,2.9744,3.0103,3.0193]}]]